<?xml version="1.0" encoding="UTF-8"?>
<gpx version="1.1" creator="https://www.youtrack.es" xsi:schemaLocation="http://www.topografix.com/GPX/1/1 http://www.topografix.com/GPX/1/1/gpx.xsd http://www.garmin.com/xmlschemas/GpxExtensions/v3 http://www.garmin.com/xmlschemas/GpxExtensionsv3.xsd http://www.garmin.com/xmlschemas/TrackPointExtension/v1 http://www.garmin.com/xmlschemas/TrackPointExtensionv1.xsd" xmlns:gpxtpx="http://www.garmin.com/xmlschemas/TrackPointExtension/v1" xmlns:gpxx="http://www.garmin.com/xmlschemas/GpxExtensions/v3" xmlns:xsi="http://www.w3.org/2001/XMLSchema-instance">
  <metadata>
    <link href="https://www.youtrack.es">
      <text>YouTrack.es</text>
    </link>
    <time>2026-05-10T15:25:33Z</time>
  </metadata>
  <trk>
    <src>https://www.youtrack.es</src>
    <link href="https://www.youtrack.es/ruta/32688-castellar">
      <text>YouTrack.es</text>
    </link>
    <trkseg>
      <trkpt lat="41.533284746110439300537109375" lon="2.083314321935176849365234375">
        <ele>174.600006103515625</ele>
        <time>2022-06-01T06:38:58.000Z</time>
      </trkpt>
      <trkpt lat="41.53328332118690013885498046875" lon="2.08331574685871601104736328125">
        <ele>174.399993896484375</ele>
        <time>2022-06-01T06:39:10.000Z</time>
      </trkpt>
      <trkpt lat="41.53326831758022308349609375" lon="2.08332714624702930450439453125">
        <ele>174.399993896484375</ele>
        <time>2022-06-01T06:39:13.000Z</time>
      </trkpt>
      <trkpt lat="41.53323403559625148773193359375" lon="2.08335958421230316162109375">
        <ele>174.399993896484375</ele>
        <time>2022-06-01T06:39:16.000Z</time>
      </trkpt>
      <trkpt lat="41.53312775306403636932373046875" lon="2.08346175961196422576904296875">
        <ele>174.399993896484375</ele>
        <time>2022-06-01T06:39:23.000Z</time>
      </trkpt>
      <trkpt lat="41.53304410167038440704345703125" lon="2.0835837163031101226806640625">
        <ele>174</ele>
        <time>2022-06-01T06:39:28.000Z</time>
      </trkpt>
      <trkpt lat="41.53290060348808765411376953125" lon="2.08376484923064708709716796875">
        <ele>173.600006103515625</ele>
        <time>2022-06-01T06:39:35.000Z</time>
      </trkpt>
      <trkpt lat="41.53285433538258075714111328125" lon="2.08381815813481807708740234375">
        <ele>173.399993896484375</ele>
        <time>2022-06-01T06:39:37.000Z</time>
      </trkpt>
      <trkpt lat="41.53275190852582454681396484375" lon="2.0839270390570163726806640625">
        <ele>173.1999969482421875</ele>
        <time>2022-06-01T06:39:41.000Z</time>
      </trkpt>
      <trkpt lat="41.5326354838907718658447265625" lon="2.08409844897687435150146484375">
        <ele>172.600006103515625</ele>
        <time>2022-06-01T06:39:47.000Z</time>
      </trkpt>
      <trkpt lat="41.53257639147341251373291015625" lon="2.0841774903237819671630859375">
        <ele>172.1999969482421875</ele>
        <time>2022-06-01T06:39:50.000Z</time>
      </trkpt>
      <trkpt lat="41.532532386481761932373046875" lon="2.084234990179538726806640625">
        <ele>172</ele>
        <time>2022-06-01T06:39:52.000Z</time>
      </trkpt>
      <trkpt lat="41.53246139176189899444580078125" lon="2.08437873981893062591552734375">
        <ele>171.399993896484375</ele>
        <time>2022-06-01T06:39:56.000Z</time>
      </trkpt>
      <trkpt lat="41.53245954774320125579833984375" lon="2.0844269357621669769287109375">
        <ele>171.399993896484375</ele>
        <time>2022-06-01T06:39:57.000Z</time>
      </trkpt>
      <trkpt lat="41.5324790775775909423828125" lon="2.08453363738954067230224609375">
        <ele>171.1999969482421875</ele>
        <time>2022-06-01T06:39:59.000Z</time>
      </trkpt>
      <trkpt lat="41.53250950388610363006591796875" lon="2.08469557575881481170654296875">
        <ele>171</ele>
        <time>2022-06-01T06:40:02.000Z</time>
      </trkpt>
      <trkpt lat="41.5325804986059665679931640625" lon="2.085050046443939208984375">
        <ele>170.1999969482421875</ele>
        <time>2022-06-01T06:40:09.000Z</time>
      </trkpt>
      <trkpt lat="41.53259198181331157684326171875" lon="2.08509438671171665191650390625">
        <ele>170.1999969482421875</ele>
        <time>2022-06-01T06:40:10.000Z</time>
      </trkpt>
      <trkpt lat="41.53258929960429668426513671875" lon="2.08516714163124561309814453125">
        <ele>170</ele>
        <time>2022-06-01T06:40:12.000Z</time>
      </trkpt>
      <trkpt lat="41.5325670875608921051025390625" lon="2.08518373779952526092529296875">
        <ele>170</ele>
        <time>2022-06-01T06:40:13.000Z</time>
      </trkpt>
      <trkpt lat="41.53247438371181488037109375" lon="2.0852954685688018798828125">
        <ele>169.600006103515625</ele>
        <time>2022-06-01T06:40:19.000Z</time>
      </trkpt>
      <trkpt lat="41.5324718691408634185791015625" lon="2.08539613522589206695556640625">
        <ele>169.600006103515625</ele>
        <time>2022-06-01T06:40:24.000Z</time>
      </trkpt>
      <trkpt lat="41.53247463516891002655029296875" lon="2.0855085365474224090576171875">
        <ele>169.600006103515625</ele>
        <time>2022-06-01T06:40:28.000Z</time>
      </trkpt>
      <trkpt lat="41.53249173425137996673583984375" lon="2.08571682684123516082763671875">
        <ele>169.399993896484375</ele>
        <time>2022-06-01T06:40:33.000Z</time>
      </trkpt>
      <trkpt lat="41.53254118748009204864501953125" lon="2.085954286158084869384765625">
        <ele>169.1999969482421875</ele>
        <time>2022-06-01T06:40:38.000Z</time>
      </trkpt>
      <trkpt lat="41.5325520001351833343505859375" lon="2.08601052872836589813232421875">
        <ele>169.1999969482421875</ele>
        <time>2022-06-01T06:40:40.000Z</time>
      </trkpt>
      <trkpt lat="41.53258175589144229888916015625" lon="2.0861941762268543243408203125">
        <ele>168.8000030517578125</ele>
        <time>2022-06-01T06:40:46.000Z</time>
      </trkpt>
      <trkpt lat="41.532599441707134246826171875" lon="2.0864005386829376220703125">
        <ele>168.8000030517578125</ele>
        <time>2022-06-01T06:40:51.000Z</time>
      </trkpt>
      <trkpt lat="41.53262249194085597991943359375" lon="2.08672986365854740142822265625">
        <ele>169.1999969482421875</ele>
        <time>2022-06-01T06:40:58.000Z</time>
      </trkpt>
      <trkpt lat="41.53266347944736480712890625" lon="2.087049297988414764404296875">
        <ele>169.399993896484375</ele>
        <time>2022-06-01T06:41:04.000Z</time>
      </trkpt>
      <trkpt lat="41.53271066956222057342529296875" lon="2.08735473453998565673828125">
        <ele>170</ele>
        <time>2022-06-01T06:41:10.000Z</time>
      </trkpt>
      <trkpt lat="41.53273883275687694549560546875" lon="2.08753444254398345947265625">
        <ele>170.1999969482421875</ele>
        <time>2022-06-01T06:41:14.000Z</time>
      </trkpt>
      <trkpt lat="41.532767079770565032958984375" lon="2.08766662515699863433837890625">
        <ele>170.8000030517578125</ele>
        <time>2022-06-01T06:41:17.000Z</time>
      </trkpt>
      <trkpt lat="41.53277101926505565643310546875" lon="2.08774675615131855010986328125">
        <ele>171</ele>
        <time>2022-06-01T06:41:19.000Z</time>
      </trkpt>
      <trkpt lat="41.532742269337177276611328125" lon="2.08781213499605655670166015625">
        <ele>171</ele>
        <time>2022-06-01T06:41:21.000Z</time>
      </trkpt>
      <trkpt lat="41.5326587855815887451171875" lon="2.087933085858821868896484375">
        <ele>171.399993896484375</ele>
        <time>2022-06-01T06:41:26.000Z</time>
      </trkpt>
      <trkpt lat="41.53262869454920291900634765625" lon="2.08794222213327884674072265625">
        <ele>171.399993896484375</ele>
        <time>2022-06-01T06:41:27.000Z</time>
      </trkpt>
      <trkpt lat="41.53245627880096435546875" lon="2.08798865787684917449951171875">
        <ele>171.399993896484375</ele>
        <time>2022-06-01T06:41:32.000Z</time>
      </trkpt>
      <trkpt lat="41.5323974378407001495361328125" lon="2.0880392007529735565185546875">
        <ele>171.399993896484375</ele>
        <time>2022-06-01T06:41:34.000Z</time>
      </trkpt>
      <trkpt lat="41.53232024051249027252197265625" lon="2.088074572384357452392578125">
        <ele>171.399993896484375</ele>
        <time>2022-06-01T06:41:36.000Z</time>
      </trkpt>
      <trkpt lat="41.532128043472766876220703125" lon="2.08808655850589275360107421875">
        <ele>171</ele>
        <time>2022-06-01T06:41:41.000Z</time>
      </trkpt>
      <trkpt lat="41.5318988822400569915771484375" lon="2.0881310664117336273193359375">
        <ele>170.399993896484375</ele>
        <time>2022-06-01T06:41:47.000Z</time>
      </trkpt>
      <trkpt lat="41.53166812844574451446533203125" lon="2.08817155100405216217041015625">
        <ele>170</ele>
        <time>2022-06-01T06:41:53.000Z</time>
      </trkpt>
      <trkpt lat="41.531434021890163421630859375" lon="2.0882309786975383758544921875">
        <ele>169.399993896484375</ele>
        <time>2022-06-01T06:41:59.000Z</time>
      </trkpt>
      <trkpt lat="41.53125959448516368865966796875" lon="2.08827347494661808013916015625">
        <ele>169</ele>
        <time>2022-06-01T06:42:04.000Z</time>
      </trkpt>
      <trkpt lat="41.5311659686267375946044921875" lon="2.08830063231289386749267578125">
        <ele>168.8000030517578125</ele>
        <time>2022-06-01T06:42:07.000Z</time>
      </trkpt>
      <trkpt lat="41.5311039425432682037353515625" lon="2.08833483047783374786376953125">
        <ele>168.600006103515625</ele>
        <time>2022-06-01T06:42:09.000Z</time>
      </trkpt>
      <trkpt lat="41.53106429614126682281494140625" lon="2.08834924735128879547119140625">
        <ele>168.399993896484375</ele>
        <time>2022-06-01T06:42:10.000Z</time>
      </trkpt>
      <trkpt lat="41.5310184471309185028076171875" lon="2.088362239301204681396484375">
        <ele>168.1999969482421875</ele>
        <time>2022-06-01T06:42:11.000Z</time>
      </trkpt>
      <trkpt lat="41.5309711731970310211181640625" lon="2.088370956480503082275390625">
        <ele>168</ele>
        <time>2022-06-01T06:42:12.000Z</time>
      </trkpt>
      <trkpt lat="41.53077922761440277099609375" lon="2.0884227566421031951904296875">
        <ele>167.399993896484375</ele>
        <time>2022-06-01T06:42:17.000Z</time>
      </trkpt>
      <trkpt lat="41.53075098060071468353271484375" lon="2.08844077773392200469970703125">
        <ele>167.1999969482421875</ele>
        <time>2022-06-01T06:42:18.000Z</time>
      </trkpt>
      <trkpt lat="41.53063983656466007232666015625" lon="2.08847497589886188507080078125">
        <ele>166.1999969482421875</ele>
        <time>2022-06-01T06:42:22.000Z</time>
      </trkpt>
      <trkpt lat="41.53062256984412670135498046875" lon="2.08849928341805934906005859375">
        <ele>166</ele>
        <time>2022-06-01T06:42:23.000Z</time>
      </trkpt>
      <trkpt lat="41.5306171216070652008056640625" lon="2.0885615609586238861083984375">
        <ele>165.1999969482421875</ele>
        <time>2022-06-01T06:42:25.000Z</time>
      </trkpt>
      <trkpt lat="41.53062994591891765594482421875" lon="2.0886267721652984619140625">
        <ele>165</ele>
        <time>2022-06-01T06:42:27.000Z</time>
      </trkpt>
      <trkpt lat="41.5306335501372814178466796875" lon="2.08865887485444545745849609375">
        <ele>164.8000030517578125</ele>
        <time>2022-06-01T06:42:28.000Z</time>
      </trkpt>
      <trkpt lat="41.53065542690455913543701171875" lon="2.0887758024036884307861328125">
        <ele>164.8000030517578125</ele>
        <time>2022-06-01T06:42:32.000Z</time>
      </trkpt>
      <trkpt lat="41.53070772998034954071044921875" lon="2.0890218950808048248291015625">
        <ele>165.600006103515625</ele>
        <time>2022-06-01T06:42:41.000Z</time>
      </trkpt>
      <trkpt lat="41.53072432614862918853759765625" lon="2.08911904133856296539306640625">
        <ele>166</ele>
        <time>2022-06-01T06:42:45.000Z</time>
      </trkpt>
      <trkpt lat="41.53070337139070034027099609375" lon="2.0892116613686084747314453125">
        <ele>166.600006103515625</ele>
        <time>2022-06-01T06:42:49.000Z</time>
      </trkpt>
      <trkpt lat="41.53065693564713001251220703125" lon="2.089309394359588623046875">
        <ele>167</ele>
        <time>2022-06-01T06:42:54.000Z</time>
      </trkpt>
      <trkpt lat="41.53063396923243999481201171875" lon="2.08937284536659717559814453125">
        <ele>167.399993896484375</ele>
        <time>2022-06-01T06:42:57.000Z</time>
      </trkpt>
      <trkpt lat="41.530586779117584228515625" lon="2.08952707238495349884033203125">
        <ele>168.1999969482421875</ele>
        <time>2022-06-01T06:43:04.000Z</time>
      </trkpt>
      <trkpt lat="41.53056976385414600372314453125" lon="2.08954769186675548553466796875">
        <ele>168.1999969482421875</ele>
        <time>2022-06-01T06:43:05.000Z</time>
      </trkpt>
      <trkpt lat="41.5304434485733509063720703125" lon="2.08958767354488372802734375">
        <ele>168.600006103515625</ele>
        <time>2022-06-01T06:43:10.000Z</time>
      </trkpt>
      <trkpt lat="41.5303016267716884613037109375" lon="2.089693285524845123291015625">
        <ele>168.600006103515625</ele>
        <time>2022-06-01T06:43:15.000Z</time>
      </trkpt>
      <trkpt lat="41.5301091782748699188232421875" lon="2.08984524942934513092041015625">
        <ele>168.600006103515625</ele>
        <time>2022-06-01T06:43:21.000Z</time>
      </trkpt>
      <trkpt lat="41.5299224294722080230712890625" lon="2.09009335376322269439697265625">
        <ele>168</ele>
        <time>2022-06-01T06:43:29.000Z</time>
      </trkpt>
      <trkpt lat="41.5297752432525157928466796875" lon="2.0903747342526912689208984375">
        <ele>168</ele>
        <time>2022-06-01T06:43:37.000Z</time>
      </trkpt>
      <trkpt lat="41.52963166125118732452392578125" lon="2.09052242338657379150390625">
        <ele>168.1999969482421875</ele>
        <time>2022-06-01T06:43:43.000Z</time>
      </trkpt>
      <trkpt lat="41.52935589663684368133544921875" lon="2.09053223021328449249267578125">
        <ele>168.1999969482421875</ele>
        <time>2022-06-01T06:43:51.000Z</time>
      </trkpt>
      <trkpt lat="41.529071331024169921875" lon="2.090536840260028839111328125">
        <ele>168.1999969482421875</ele>
        <time>2022-06-01T06:43:59.000Z</time>
      </trkpt>
      <trkpt lat="41.5287962369620800018310546875" lon="2.09055771119892597198486328125">
        <ele>168</ele>
        <time>2022-06-01T06:44:07.000Z</time>
      </trkpt>
      <trkpt lat="41.52847588062286376953125" lon="2.0905896462500095367431640625">
        <ele>168</ele>
        <time>2022-06-01T06:44:16.000Z</time>
      </trkpt>
      <trkpt lat="41.5282711945474147796630859375" lon="2.0906161330640316009521484375">
        <ele>168</ele>
        <time>2022-06-01T06:44:22.000Z</time>
      </trkpt>
      <trkpt lat="41.52810908854007720947265625" lon="2.0906201563775539398193359375">
        <ele>168</ele>
        <time>2022-06-01T06:44:28.000Z</time>
      </trkpt>
      <trkpt lat="41.52805804274976253509521484375" lon="2.09059660322964191436767578125">
        <ele>167.600006103515625</ele>
        <time>2022-06-01T06:44:34.000Z</time>
      </trkpt>
      <trkpt lat="41.52803809382021427154541015625" lon="2.0905775763094425201416015625">
        <ele>167</ele>
        <time>2022-06-01T06:44:37.000Z</time>
      </trkpt>
      <trkpt lat="41.528022252023220062255859375" lon="2.09053541533648967742919921875">
        <ele>166.600006103515625</ele>
        <time>2022-06-01T06:44:42.000Z</time>
      </trkpt>
      <trkpt lat="41.52801680378615856170654296875" lon="2.09051429294049739837646484375">
        <ele>166</ele>
        <time>2022-06-01T06:44:47.000Z</time>
      </trkpt>
      <trkpt lat="41.528016217052936553955078125" lon="2.09051412530243396759033203125">
        <ele>166</ele>
        <time>2022-06-01T06:44:48.000Z</time>
      </trkpt>
      <trkpt lat="41.52800909243524074554443359375" lon="2.0904793404042720794677734375">
        <ele>165.600006103515625</ele>
        <time>2022-06-01T06:45:10.000Z</time>
      </trkpt>
      <trkpt lat="41.52801009826362133026123046875" lon="2.09044908173382282257080078125">
        <ele>165.600006103515625</ele>
        <time>2022-06-01T06:45:11.000Z</time>
      </trkpt>
      <trkpt lat="41.52800104580819606781005859375" lon="2.0902483351528644561767578125">
        <ele>165.600006103515625</ele>
        <time>2022-06-01T06:45:16.000Z</time>
      </trkpt>
      <trkpt lat="41.52791370637714862823486328125" lon="2.090102322399616241455078125">
        <ele>165.399993896484375</ele>
        <time>2022-06-01T06:45:20.000Z</time>
      </trkpt>
      <trkpt lat="41.52785603888332843780517578125" lon="2.09007156081497669219970703125">
        <ele>165.1999969482421875</ele>
        <time>2022-06-01T06:45:24.000Z</time>
      </trkpt>
      <trkpt lat="41.52785025537014007568359375" lon="2.09005027078092098236083984375">
        <ele>165</ele>
        <time>2022-06-01T06:45:26.000Z</time>
      </trkpt>
      <trkpt lat="41.5278469026088714599609375" lon="2.0900337584316730499267578125">
        <ele>165</ele>
        <time>2022-06-01T06:45:27.000Z</time>
      </trkpt>
      <trkpt lat="41.52783776633441448211669921875" lon="2.09000408649444580078125">
        <ele>164.8000030517578125</ele>
        <time>2022-06-01T06:45:29.000Z</time>
      </trkpt>
      <trkpt lat="41.52780842967331409454345703125" lon="2.09003769792616367340087890625">
        <ele>164.8000030517578125</ele>
        <time>2022-06-01T06:45:32.000Z</time>
      </trkpt>
      <trkpt lat="41.52780340053141117095947265625" lon="2.09012922830879688262939453125">
        <ele>164.600006103515625</ele>
        <time>2022-06-01T06:45:35.000Z</time>
      </trkpt>
      <trkpt lat="41.52779468335211277008056640625" lon="2.09024439565837383270263671875">
        <ele>164.600006103515625</ele>
        <time>2022-06-01T06:45:38.000Z</time>
      </trkpt>
      <trkpt lat="41.52783072553575038909912109375" lon="2.0906895585358142852783203125">
        <ele>164.399993896484375</ele>
        <time>2022-06-01T06:45:48.000Z</time>
      </trkpt>
      <trkpt lat="41.52786324732005596160888671875" lon="2.091096751391887664794921875">
        <ele>164.399993896484375</ele>
        <time>2022-06-01T06:45:56.000Z</time>
      </trkpt>
      <trkpt lat="41.52792594395577907562255859375" lon="2.09139816462993621826171875">
        <ele>164.1999969482421875</ele>
        <time>2022-06-01T06:46:02.000Z</time>
      </trkpt>
      <trkpt lat="41.5279469825327396392822265625" lon="2.09170804359018802642822265625">
        <ele>164.399993896484375</ele>
        <time>2022-06-01T06:46:08.000Z</time>
      </trkpt>
      <trkpt lat="41.5279811806976795196533203125" lon="2.09198020398616790771484375">
        <ele>164.600006103515625</ele>
        <time>2022-06-01T06:46:12.000Z</time>
      </trkpt>
      <trkpt lat="41.5280153788626194000244140625" lon="2.0921243727207183837890625">
        <ele>164.600006103515625</ele>
        <time>2022-06-01T06:46:14.000Z</time>
      </trkpt>
      <trkpt lat="41.52813448570668697357177734375" lon="2.092640362679958343505859375">
        <ele>164.1999969482421875</ele>
        <time>2022-06-01T06:46:21.000Z</time>
      </trkpt>
      <trkpt lat="41.5281478129327297210693359375" lon="2.09271244704723358154296875">
        <ele>164</ele>
        <time>2022-06-01T06:46:22.000Z</time>
      </trkpt>
      <trkpt lat="41.52821444906294345855712890625" lon="2.09304847754538059234619140625">
        <ele>162.600006103515625</ele>
        <time>2022-06-01T06:46:27.000Z</time>
      </trkpt>
      <trkpt lat="41.52821897529065608978271484375" lon="2.09311519749462604522705078125">
        <ele>162.600006103515625</ele>
        <time>2022-06-01T06:46:28.000Z</time>
      </trkpt>
      <trkpt lat="41.52821796946227550506591796875" lon="2.09318451583385467529296875">
        <ele>162.600006103515625</ele>
        <time>2022-06-01T06:46:29.000Z</time>
      </trkpt>
      <trkpt lat="41.5281602181494235992431640625" lon="2.09354602731764316558837890625">
        <ele>162.1999969482421875</ele>
        <time>2022-06-01T06:46:34.000Z</time>
      </trkpt>
      <trkpt lat="41.52813867665827274322509765625" lon="2.0936155132949352264404296875">
        <ele>162.1999969482421875</ele>
        <time>2022-06-01T06:46:35.000Z</time>
      </trkpt>
      <trkpt lat="41.52804697863757610321044921875" lon="2.09377015940845012664794921875">
        <ele>162</ele>
        <time>2022-06-01T06:46:38.000Z</time>
      </trkpt>
      <trkpt lat="41.52795620262622833251953125" lon="2.093862779438495635986328125">
        <ele>161.600006103515625</ele>
        <time>2022-06-01T06:46:41.000Z</time>
      </trkpt>
      <trkpt lat="41.527917645871639251708984375" lon="2.09388197399675846099853515625">
        <ele>161.399993896484375</ele>
        <time>2022-06-01T06:46:42.000Z</time>
      </trkpt>
      <trkpt lat="41.527878083288669586181640625" lon="2.093897648155689239501953125">
        <ele>161.399993896484375</ele>
        <time>2022-06-01T06:46:43.000Z</time>
      </trkpt>
      <trkpt lat="41.52770466171205043792724609375" lon="2.0939745940268039703369140625">
        <ele>160.8000030517578125</ele>
        <time>2022-06-01T06:46:48.000Z</time>
      </trkpt>
      <trkpt lat="41.52765269391238689422607421875" lon="2.0940198563039302825927734375">
        <ele>160.399993896484375</ele>
        <time>2022-06-01T06:46:50.000Z</time>
      </trkpt>
      <trkpt lat="41.52762897312641143798828125" lon="2.0940936170518398284912109375">
        <ele>159.600006103515625</ele>
        <time>2022-06-01T06:46:52.000Z</time>
      </trkpt>
      <trkpt lat="41.5276314876973628997802734375" lon="2.09417953155934810638427734375">
        <ele>159.1999969482421875</ele>
        <time>2022-06-01T06:46:54.000Z</time>
      </trkpt>
      <trkpt lat="41.52765604667365550994873046875" lon="2.094280533492565155029296875">
        <ele>159</ele>
        <time>2022-06-01T06:46:56.000Z</time>
      </trkpt>
      <trkpt lat="41.52766786515712738037109375" lon="2.09432705305516719818115234375">
        <ele>158.8000030517578125</ele>
        <time>2022-06-01T06:46:57.000Z</time>
      </trkpt>
      <trkpt lat="41.5277411229908466339111328125" lon="2.094627879559993743896484375">
        <ele>158.399993896484375</ele>
        <time>2022-06-01T06:47:02.000Z</time>
      </trkpt>
      <trkpt lat="41.52775730006396770477294921875" lon="2.09469300694763660430908203125">
        <ele>158</ele>
        <time>2022-06-01T06:47:03.000Z</time>
      </trkpt>
      <trkpt lat="41.52789493091404438018798828125" lon="2.09493465721607208251953125">
        <ele>157.600006103515625</ele>
        <time>2022-06-01T06:47:08.000Z</time>
      </trkpt>
      <trkpt lat="41.52796483598649501800537109375" lon="2.09492149762809276580810546875">
        <ele>157.600006103515625</ele>
        <time>2022-06-01T06:47:09.000Z</time>
      </trkpt>
      <trkpt lat="41.5279526822268962860107421875" lon="2.09499835968017578125">
        <ele>157.600006103515625</ele>
        <time>2022-06-01T06:47:12.000Z</time>
      </trkpt>
      <trkpt lat="41.52802325785160064697265625" lon="2.09500498138368129730224609375">
        <ele>157.600006103515625</ele>
        <time>2022-06-01T06:47:16.000Z</time>
      </trkpt>
      <trkpt lat="41.5281015448272228240966796875" lon="2.0949747227132320404052734375">
        <ele>157.8000030517578125</ele>
        <time>2022-06-01T06:47:20.000Z</time>
      </trkpt>
      <trkpt lat="41.52811738662421703338623046875" lon="2.094955109059810638427734375">
        <ele>157.8000030517578125</ele>
        <time>2022-06-01T06:47:21.000Z</time>
      </trkpt>
      <trkpt lat="41.52823205105960369110107421875" lon="2.09487036801874637603759765625">
        <ele>158</ele>
        <time>2022-06-01T06:47:26.000Z</time>
      </trkpt>
      <trkpt lat="41.52846758253872394561767578125" lon="2.09475872106850147247314453125">
        <ele>158.1999969482421875</ele>
        <time>2022-06-01T06:47:34.000Z</time>
      </trkpt>
      <trkpt lat="41.52867947705090045928955078125" lon="2.0946528576314449310302734375">
        <ele>158.600006103515625</ele>
        <time>2022-06-01T06:47:41.000Z</time>
      </trkpt>
      <trkpt lat="41.52889120392501354217529296875" lon="2.09455034695565700531005859375">
        <ele>159</ele>
        <time>2022-06-01T06:47:48.000Z</time>
      </trkpt>
      <trkpt lat="41.5289541520178318023681640625" lon="2.09451757371425628662109375">
        <ele>159.1999969482421875</ele>
        <time>2022-06-01T06:47:50.000Z</time>
      </trkpt>
      <trkpt lat="41.529183648526668548583984375" lon="2.0943970419466495513916015625">
        <ele>159.8000030517578125</ele>
        <time>2022-06-01T06:47:57.000Z</time>
      </trkpt>
      <trkpt lat="41.529379785060882568359375" lon="2.09431783296167850494384765625">
        <ele>160</ele>
        <time>2022-06-01T06:48:03.000Z</time>
      </trkpt>
      <trkpt lat="41.52941239066421985626220703125" lon="2.094332166016101837158203125">
        <ele>160</ele>
        <time>2022-06-01T06:48:04.000Z</time>
      </trkpt>
      <trkpt lat="41.52947190217673778533935546875" lon="2.09437969140708446502685546875">
        <ele>160.1999969482421875</ele>
        <time>2022-06-01T06:48:06.000Z</time>
      </trkpt>
      <trkpt lat="41.529513895511627197265625" lon="2.09445965476334095001220703125">
        <ele>160.1999969482421875</ele>
        <time>2022-06-01T06:48:08.000Z</time>
      </trkpt>
      <trkpt lat="41.52954231016337871551513671875" lon="2.09455755539238452911376953125">
        <ele>160.399993896484375</ele>
        <time>2022-06-01T06:48:10.000Z</time>
      </trkpt>
      <trkpt lat="41.529613472521305084228515625" lon="2.094819657504558563232421875">
        <ele>160.399993896484375</ele>
        <time>2022-06-01T06:48:15.000Z</time>
      </trkpt>
      <trkpt lat="41.52969586662948131561279296875" lon="2.09508259780704975128173828125">
        <ele>160.399993896484375</ele>
        <time>2022-06-01T06:48:20.000Z</time>
      </trkpt>
      <trkpt lat="41.52974129654467105865478515625" lon="2.09525107406079769134521484375">
        <ele>160.1999969482421875</ele>
        <time>2022-06-01T06:48:23.000Z</time>
      </trkpt>
      <trkpt lat="41.52979753911495208740234375" lon="2.09548006765544414520263671875">
        <ele>159.8000030517578125</ele>
        <time>2022-06-01T06:48:27.000Z</time>
      </trkpt>
      <trkpt lat="41.529938690364360809326171875" lon="2.09590150974690914154052734375">
        <ele>159.399993896484375</ele>
        <time>2022-06-01T06:48:34.000Z</time>
      </trkpt>
      <trkpt lat="41.52998856268823146820068359375" lon="2.0960844866931438446044921875">
        <ele>159</ele>
        <time>2022-06-01T06:48:37.000Z</time>
      </trkpt>
      <trkpt lat="41.53006131760776042938232421875" lon="2.0963649451732635498046875">
        <ele>158.8000030517578125</ele>
        <time>2022-06-01T06:48:42.000Z</time>
      </trkpt>
      <trkpt lat="41.5300758183002471923828125" lon="2.09641783498227596282958984375">
        <ele>158.600006103515625</ele>
        <time>2022-06-01T06:48:43.000Z</time>
      </trkpt>
      <trkpt lat="41.5301423706114292144775390625" lon="2.09677104838192462921142578125">
        <ele>158</ele>
        <time>2022-06-01T06:48:49.000Z</time>
      </trkpt>
      <trkpt lat="41.530155949294567108154296875" lon="2.09683500230312347412109375">
        <ele>158</ele>
        <time>2022-06-01T06:48:50.000Z</time>
      </trkpt>
      <trkpt lat="41.5302151255309581756591796875" lon="2.0972334779798984527587890625">
        <ele>157.600006103515625</ele>
        <time>2022-06-01T06:48:56.000Z</time>
      </trkpt>
      <trkpt lat="41.53028972446918487548828125" lon="2.09763698279857635498046875">
        <ele>157</ele>
        <time>2022-06-01T06:49:02.000Z</time>
      </trkpt>
      <trkpt lat="41.530300788581371307373046875" lon="2.0977072231471538543701171875">
        <ele>156.8000030517578125</ele>
        <time>2022-06-01T06:49:03.000Z</time>
      </trkpt>
      <trkpt lat="41.53035736642777919769287109375" lon="2.0980297587811946868896484375">
        <ele>156.399993896484375</ele>
        <time>2022-06-01T06:49:08.000Z</time>
      </trkpt>
      <trkpt lat="41.530394665896892547607421875" lon="2.09813880734145641326904296875">
        <ele>156.1999969482421875</ele>
        <time>2022-06-01T06:49:10.000Z</time>
      </trkpt>
      <trkpt lat="41.5304457955062389373779296875" lon="2.098298482596874237060546875">
        <ele>155.8000030517578125</ele>
        <time>2022-06-01T06:49:13.000Z</time>
      </trkpt>
      <trkpt lat="41.53052081353962421417236328125" lon="2.09855941124260425567626953125">
        <ele>155.600006103515625</ele>
        <time>2022-06-01T06:49:18.000Z</time>
      </trkpt>
      <trkpt lat="41.530618965625762939453125" lon="2.0989403687417507171630859375">
        <ele>155.600006103515625</ele>
        <time>2022-06-01T06:49:25.000Z</time>
      </trkpt>
      <trkpt lat="41.53072549961507320404052734375" lon="2.0993413589894771575927734375">
        <ele>155.8000030517578125</ele>
        <time>2022-06-01T06:49:33.000Z</time>
      </trkpt>
      <trkpt lat="41.53081987984478473663330078125" lon="2.09972416050732135772705078125">
        <ele>156.399993896484375</ele>
        <time>2022-06-01T06:49:41.000Z</time>
      </trkpt>
      <trkpt lat="41.530864723026752471923828125" lon="2.09991510026156902313232421875">
        <ele>156.8000030517578125</ele>
        <time>2022-06-01T06:49:45.000Z</time>
      </trkpt>
      <trkpt lat="41.53091375716030597686767578125" lon="2.10009899921715259552001953125">
        <ele>157.1999969482421875</ele>
        <time>2022-06-01T06:49:49.000Z</time>
      </trkpt>
      <trkpt lat="41.53099975548684597015380859375" lon="2.1004403941333293914794921875">
        <ele>158</ele>
        <time>2022-06-01T06:49:57.000Z</time>
      </trkpt>
      <trkpt lat="41.53101149015128612518310546875" lon="2.10047786124050617218017578125">
        <ele>157.8000030517578125</ele>
        <time>2022-06-01T06:49:58.000Z</time>
      </trkpt>
      <trkpt lat="41.53105054982006549835205078125" lon="2.10052429698407649993896484375">
        <ele>158</ele>
        <time>2022-06-01T06:50:00.000Z</time>
      </trkpt>
      <trkpt lat="41.53107821010053157806396484375" lon="2.10053167305886745452880859375">
        <ele>158</ele>
        <time>2022-06-01T06:50:01.000Z</time>
      </trkpt>
      <trkpt lat="41.5311797149479389190673828125" lon="2.1005771867930889129638671875">
        <ele>158.399993896484375</ele>
        <time>2022-06-01T06:50:05.000Z</time>
      </trkpt>
      <trkpt lat="41.53123914264142513275146484375" lon="2.1006108820438385009765625">
        <ele>158.8000030517578125</ele>
        <time>2022-06-01T06:50:09.000Z</time>
      </trkpt>
      <trkpt lat="41.5313225425779819488525390625" lon="2.1006781049072742462158203125">
        <ele>158.8000030517578125</ele>
        <time>2022-06-01T06:50:13.000Z</time>
      </trkpt>
      <trkpt lat="41.5314670465886592864990234375" lon="2.10066125728189945220947265625">
        <ele>158.8000030517578125</ele>
        <time>2022-06-01T06:50:17.000Z</time>
      </trkpt>
      <trkpt lat="41.53170869685709476470947265625" lon="2.100544162094593048095703125">
        <ele>158.600006103515625</ele>
        <time>2022-06-01T06:50:23.000Z</time>
      </trkpt>
      <trkpt lat="41.531749852001667022705078125" lon="2.1005215309560298919677734375">
        <ele>158.600006103515625</ele>
        <time>2022-06-01T06:50:24.000Z</time>
      </trkpt>
      <trkpt lat="41.5319672785699367523193359375" lon="2.1004070341587066650390625">
        <ele>158.399993896484375</ele>
        <time>2022-06-01T06:50:29.000Z</time>
      </trkpt>
      <trkpt lat="41.53209594078361988067626953125" lon="2.10035540163516998291015625">
        <ele>158.399993896484375</ele>
        <time>2022-06-01T06:50:32.000Z</time>
      </trkpt>
      <trkpt lat="41.53241294436156749725341796875" lon="2.10019044578075408935546875">
        <ele>158.399993896484375</ele>
        <time>2022-06-01T06:50:40.000Z</time>
      </trkpt>
      <trkpt lat="41.53271318413317203521728515625" lon="2.10006513632833957672119140625">
        <ele>158.600006103515625</ele>
        <time>2022-06-01T06:50:48.000Z</time>
      </trkpt>
      <trkpt lat="41.53282348997890949249267578125" lon="2.10004703141748905181884765625">
        <ele>158.8000030517578125</ele>
        <time>2022-06-01T06:50:52.000Z</time>
      </trkpt>
      <trkpt lat="41.532893143594264984130859375" lon="2.100071422755718231201171875">
        <ele>158.8000030517578125</ele>
        <time>2022-06-01T06:50:55.000Z</time>
      </trkpt>
      <trkpt lat="41.53291082940995693206787109375" lon="2.10010595619678497314453125">
        <ele>158.8000030517578125</ele>
        <time>2022-06-01T06:50:56.000Z</time>
      </trkpt>
      <trkpt lat="41.53292256407439708709716796875" lon="2.10027887485921382904052734375">
        <ele>159.1999969482421875</ele>
        <time>2022-06-01T06:51:00.000Z</time>
      </trkpt>
      <trkpt lat="41.53291719965636730194091796875" lon="2.10032229311764240264892578125">
        <ele>159.1999969482421875</ele>
        <time>2022-06-01T06:51:01.000Z</time>
      </trkpt>
      <trkpt lat="41.532891802489757537841796875" lon="2.10059973411262035369873046875">
        <ele>160.1999969482421875</ele>
        <time>2022-06-01T06:51:07.000Z</time>
      </trkpt>
      <trkpt lat="41.5328849293291568756103515625" lon="2.1006465889513492584228515625">
        <ele>160.1999969482421875</ele>
        <time>2022-06-01T06:51:08.000Z</time>
      </trkpt>
      <trkpt lat="41.5328379906713962554931640625" lon="2.10091707296669483184814453125">
        <ele>160.8000030517578125</ele>
        <time>2022-06-01T06:51:14.000Z</time>
      </trkpt>
      <trkpt lat="41.532812006771564483642578125" lon="2.10110935382544994354248046875">
        <ele>161</ele>
        <time>2022-06-01T06:51:19.000Z</time>
      </trkpt>
      <trkpt lat="41.53279532678425312042236328125" lon="2.1013540215790271759033203125">
        <ele>161.1999969482421875</ele>
        <time>2022-06-01T06:51:25.000Z</time>
      </trkpt>
      <trkpt lat="41.5327910520136356353759765625" lon="2.10139132104814052581787109375">
        <ele>161.1999969482421875</ele>
        <time>2022-06-01T06:51:26.000Z</time>
      </trkpt>
      <trkpt lat="41.53274352662265300750732421875" lon="2.10157723166048526763916015625">
        <ele>161.399993896484375</ele>
        <time>2022-06-01T06:51:31.000Z</time>
      </trkpt>
      <trkpt lat="41.53270966373383998870849609375" lon="2.10169323720037937164306640625">
        <ele>161.600006103515625</ele>
        <time>2022-06-01T06:51:35.000Z</time>
      </trkpt>
      <trkpt lat="41.532588712871074676513671875" lon="2.101822905242443084716796875">
        <ele>161.8000030517578125</ele>
        <time>2022-06-01T06:51:41.000Z</time>
      </trkpt>
      <trkpt lat="41.5325300395488739013671875" lon="2.10192407481372356414794921875">
        <ele>161.8000030517578125</ele>
        <time>2022-06-01T06:51:46.000Z</time>
      </trkpt>
      <trkpt lat="41.53252962045371532440185546875" lon="2.101959027349948883056640625">
        <ele>161.8000030517578125</ele>
        <time>2022-06-01T06:51:47.000Z</time>
      </trkpt>
      <trkpt lat="41.53246910311281681060791015625" lon="2.10205717943608760833740234375">
        <ele>161.600006103515625</ele>
        <time>2022-06-01T06:51:51.000Z</time>
      </trkpt>
      <trkpt lat="41.53247128240764141082763671875" lon="2.1021295152604579925537109375">
        <ele>161.600006103515625</ele>
        <time>2022-06-01T06:51:54.000Z</time>
      </trkpt>
      <trkpt lat="41.53252626769244670867919921875" lon="2.10216463543474674224853515625">
        <ele>161.399993896484375</ele>
        <time>2022-06-01T06:51:57.000Z</time>
      </trkpt>
      <trkpt lat="41.532569937407970428466796875" lon="2.1021905355155467987060546875">
        <ele>161.399993896484375</ele>
        <time>2022-06-01T06:51:59.000Z</time>
      </trkpt>
      <trkpt lat="41.5326230786740779876708984375" lon="2.1022599376738071441650390625">
        <ele>161.399993896484375</ele>
        <time>2022-06-01T06:52:02.000Z</time>
      </trkpt>
      <trkpt lat="41.53263322077691555023193359375" lon="2.1023248136043548583984375">
        <ele>161.399993896484375</ele>
        <time>2022-06-01T06:52:04.000Z</time>
      </trkpt>
      <trkpt lat="41.532625257968902587890625" lon="2.10237979888916015625">
        <ele>161.399993896484375</ele>
        <time>2022-06-01T06:52:06.000Z</time>
      </trkpt>
      <trkpt lat="41.532619558274745941162109375" lon="2.10249823518097400665283203125">
        <ele>161.399993896484375</ele>
        <time>2022-06-01T06:52:10.000Z</time>
      </trkpt>
      <trkpt lat="41.53261243365705013275146484375" lon="2.1027216129004955291748046875">
        <ele>161.600006103515625</ele>
        <time>2022-06-01T06:52:16.000Z</time>
      </trkpt>
      <trkpt lat="41.532566584646701812744140625" lon="2.1030624210834503173828125">
        <ele>161.8000030517578125</ele>
        <time>2022-06-01T06:52:25.000Z</time>
      </trkpt>
      <trkpt lat="41.53254152275621891021728515625" lon="2.10322938859462738037109375">
        <ele>162</ele>
        <time>2022-06-01T06:52:31.000Z</time>
      </trkpt>
      <trkpt lat="41.5325389243662357330322265625" lon="2.1033140458166599273681640625">
        <ele>162.1999969482421875</ele>
        <time>2022-06-01T06:52:37.000Z</time>
      </trkpt>
      <trkpt lat="41.5325288660824298858642578125" lon="2.103341035544872283935546875">
        <ele>162.1999969482421875</ele>
        <time>2022-06-01T06:52:39.000Z</time>
      </trkpt>
      <trkpt lat="41.53252241201698780059814453125" lon="2.1033708751201629638671875">
        <ele>162.1999969482421875</ele>
        <time>2022-06-01T06:52:41.000Z</time>
      </trkpt>
      <trkpt lat="41.532492153346538543701171875" lon="2.10344907827675342559814453125">
        <ele>162.1999969482421875</ele>
        <time>2022-06-01T06:52:46.000Z</time>
      </trkpt>
      <trkpt lat="41.53244077228009700775146484375" lon="2.103487215936183929443359375">
        <ele>162.1999969482421875</ele>
        <time>2022-06-01T06:52:51.000Z</time>
      </trkpt>
      <trkpt lat="41.532431803643703460693359375" lon="2.103477828204631805419921875">
        <ele>162.1999969482421875</ele>
        <time>2022-06-01T06:52:52.000Z</time>
      </trkpt>
      <trkpt lat="41.53245024383068084716796875" lon="2.10343080572783946990966796875">
        <ele>162.1999969482421875</ele>
        <time>2022-06-01T06:52:56.000Z</time>
      </trkpt>
      <trkpt lat="41.532476730644702911376953125" lon="2.10347615182399749755859375">
        <ele>162.1999969482421875</ele>
        <time>2022-06-01T06:53:00.000Z</time>
      </trkpt>
      <trkpt lat="41.53247698210179805755615234375" lon="2.10359391756355762481689453125">
        <ele>162.1999969482421875</ele>
        <time>2022-06-01T06:53:04.000Z</time>
      </trkpt>
      <trkpt lat="41.53247446753084659576416015625" lon="2.10365208797156810760498046875">
        <ele>162.1999969482421875</ele>
        <time>2022-06-01T06:53:06.000Z</time>
      </trkpt>
      <trkpt lat="41.53245669789612293243408203125" lon="2.1038558520376682281494140625">
        <ele>162.399993896484375</ele>
        <time>2022-06-01T06:53:12.000Z</time>
      </trkpt>
      <trkpt lat="41.5324551053345203399658203125" lon="2.10389013402163982391357421875">
        <ele>162.399993896484375</ele>
        <time>2022-06-01T06:53:13.000Z</time>
      </trkpt>
      <trkpt lat="41.53242803178727626800537109375" lon="2.1040932275354862213134765625">
        <ele>163</ele>
        <time>2022-06-01T06:53:19.000Z</time>
      </trkpt>
      <trkpt lat="41.53239198960363864898681640625" lon="2.1042357198894023895263671875">
        <ele>163.1999969482421875</ele>
        <time>2022-06-01T06:53:23.000Z</time>
      </trkpt>
      <trkpt lat="41.5323655866086483001708984375" lon="2.10433504544198513031005859375">
        <ele>163.1999969482421875</ele>
        <time>2022-06-01T06:53:26.000Z</time>
      </trkpt>
      <trkpt lat="41.53237807564437389373779296875" lon="2.10439874790608882904052734375">
        <ele>163.1999969482421875</ele>
        <time>2022-06-01T06:53:28.000Z</time>
      </trkpt>
      <trkpt lat="41.5324021317064762115478515625" lon="2.10460226051509380340576171875">
        <ele>163.1999969482421875</ele>
        <time>2022-06-01T06:53:33.000Z</time>
      </trkpt>
      <trkpt lat="41.53239115141332149505615234375" lon="2.1049424819648265838623046875">
        <ele>163</ele>
        <time>2022-06-01T06:53:40.000Z</time>
      </trkpt>
      <trkpt lat="41.53236902318894863128662109375" lon="2.1052459068596363067626953125">
        <ele>162.8000030517578125</ele>
        <time>2022-06-01T06:53:46.000Z</time>
      </trkpt>
      <trkpt lat="41.53236952610313892364501953125" lon="2.10556559264659881591796875">
        <ele>162.399993896484375</ele>
        <time>2022-06-01T06:53:52.000Z</time>
      </trkpt>
      <trkpt lat="41.53228419832885265350341796875" lon="2.10568520240485668182373046875">
        <ele>162.1999969482421875</ele>
        <time>2022-06-01T06:53:56.000Z</time>
      </trkpt>
      <trkpt lat="41.53215561993420124053955078125" lon="2.1058192290365695953369140625">
        <ele>161.8000030517578125</ele>
        <time>2022-06-01T06:54:01.000Z</time>
      </trkpt>
      <trkpt lat="41.53211840428411960601806640625" lon="2.1059198118746280670166015625">
        <ele>161.399993896484375</ele>
        <time>2022-06-01T06:54:04.000Z</time>
      </trkpt>
      <trkpt lat="41.53212242759764194488525390625" lon="2.1059560216963291168212890625">
        <ele>161.399993896484375</ele>
        <time>2022-06-01T06:54:05.000Z</time>
      </trkpt>
      <trkpt lat="41.5321251936256885528564453125" lon="2.10602198727428913116455078125">
        <ele>161.1999969482421875</ele>
        <time>2022-06-01T06:54:07.000Z</time>
      </trkpt>
      <trkpt lat="41.5321225114166736602783203125" lon="2.10605115629732608795166015625">
        <ele>161.1999969482421875</ele>
        <time>2022-06-01T06:54:08.000Z</time>
      </trkpt>
      <trkpt lat="41.532128714025020599365234375" lon="2.10608191788196563720703125">
        <ele>161.1999969482421875</ele>
        <time>2022-06-01T06:54:09.000Z</time>
      </trkpt>
      <trkpt lat="41.532168276607990264892578125" lon="2.10625902749598026275634765625">
        <ele>160.8000030517578125</ele>
        <time>2022-06-01T06:54:15.000Z</time>
      </trkpt>
      <trkpt lat="41.53217724524438381195068359375" lon="2.10628568194806575775146484375">
        <ele>160.8000030517578125</ele>
        <time>2022-06-01T06:54:16.000Z</time>
      </trkpt>
      <trkpt lat="41.53223139233887195587158203125" lon="2.10635307244956493377685546875">
        <ele>160.8000030517578125</ele>
        <time>2022-06-01T06:54:19.000Z</time>
      </trkpt>
      <trkpt lat="41.532259471714496612548828125" lon="2.1063707582652568817138671875">
        <ele>160.8000030517578125</ele>
        <time>2022-06-01T06:54:20.000Z</time>
      </trkpt>
      <trkpt lat="41.53244580142199993133544921875" lon="2.10652875714004039764404296875">
        <ele>160.8000030517578125</ele>
        <time>2022-06-01T06:54:27.000Z</time>
      </trkpt>
      <trkpt lat="41.53250497765839099884033203125" lon="2.10666286759078502655029296875">
        <ele>160.8000030517578125</ele>
        <time>2022-06-01T06:54:32.000Z</time>
      </trkpt>
      <trkpt lat="41.532550156116485595703125" lon="2.106849364936351776123046875">
        <ele>161</ele>
        <time>2022-06-01T06:54:37.000Z</time>
      </trkpt>
      <trkpt lat="41.53259248472750186920166015625" lon="2.1071093715727329254150390625">
        <ele>161</ele>
        <time>2022-06-01T06:54:44.000Z</time>
      </trkpt>
      <trkpt lat="41.53258913196623325347900390625" lon="2.10716477595269680023193359375">
        <ele>161</ele>
        <time>2022-06-01T06:54:46.000Z</time>
      </trkpt>
      <trkpt lat="41.5326301194727420806884765625" lon="2.10720685310661792755126953125">
        <ele>161</ele>
        <time>2022-06-01T06:54:48.000Z</time>
      </trkpt>
      <trkpt lat="41.53271972201764583587646484375" lon="2.10730995051562786102294921875">
        <ele>161</ele>
        <time>2022-06-01T06:54:52.000Z</time>
      </trkpt>
      <trkpt lat="41.53272961266338825225830078125" lon="2.10735504515469074249267578125">
        <ele>161</ele>
        <time>2022-06-01T06:54:53.000Z</time>
      </trkpt>
      <trkpt lat="41.53280957601964473724365234375" lon="2.10764304734766483306884765625">
        <ele>161</ele>
        <time>2022-06-01T06:54:59.000Z</time>
      </trkpt>
      <trkpt lat="41.53292926959693431854248046875" lon="2.108087874948978424072265625">
        <ele>161.600006103515625</ele>
        <time>2022-06-01T06:55:08.000Z</time>
      </trkpt>
      <trkpt lat="41.53303563594818115234375" lon="2.10841678082942962646484375">
        <ele>162</ele>
        <time>2022-06-01T06:55:14.000Z</time>
      </trkpt>
      <trkpt lat="41.533167064189910888671875" lon="2.10887535475194454193115234375">
        <ele>162.1999969482421875</ele>
        <time>2022-06-01T06:55:21.000Z</time>
      </trkpt>
      <trkpt lat="41.5333212912082672119140625" lon="2.1094273030757904052734375">
        <ele>161.600006103515625</ele>
        <time>2022-06-01T06:55:28.000Z</time>
      </trkpt>
      <trkpt lat="41.533476524055004119873046875" lon="2.10994974710047245025634765625">
        <ele>160.8000030517578125</ele>
        <time>2022-06-01T06:55:35.000Z</time>
      </trkpt>
      <trkpt lat="41.5335869975388050079345703125" lon="2.1103578619658946990966796875">
        <ele>160.8000030517578125</ele>
        <time>2022-06-01T06:55:42.000Z</time>
      </trkpt>
      <trkpt lat="41.53368213213980197906494140625" lon="2.110697329044342041015625">
        <ele>161.399993896484375</ele>
        <time>2022-06-01T06:55:49.000Z</time>
      </trkpt>
      <trkpt lat="41.5337477624416351318359375" lon="2.11100243031978607177734375">
        <ele>162.1999969482421875</ele>
        <time>2022-06-01T06:55:56.000Z</time>
      </trkpt>
      <trkpt lat="41.53377315960824489593505859375" lon="2.111080549657344818115234375">
        <ele>162.399993896484375</ele>
        <time>2022-06-01T06:55:58.000Z</time>
      </trkpt>
      <trkpt lat="41.53381842188537120819091796875" lon="2.1112726628780364990234375">
        <ele>163</ele>
        <time>2022-06-01T06:56:04.000Z</time>
      </trkpt>
      <trkpt lat="41.53384029865264892578125" lon="2.11136980913579463958740234375">
        <ele>163.399993896484375</ele>
        <time>2022-06-01T06:56:08.000Z</time>
      </trkpt>
      <trkpt lat="41.53384926728904247283935546875" lon="2.1114143170416355133056640625">
        <ele>163.600006103515625</ele>
        <time>2022-06-01T06:56:10.000Z</time>
      </trkpt>
      <trkpt lat="41.5338791906833648681640625" lon="2.11156091652810573577880859375">
        <ele>164</ele>
        <time>2022-06-01T06:56:15.000Z</time>
      </trkpt>
      <trkpt lat="41.5339185856282711029052734375" lon="2.11173207499086856842041015625">
        <ele>164.600006103515625</ele>
        <time>2022-06-01T06:56:21.000Z</time>
      </trkpt>
      <trkpt lat="41.5339370258152484893798828125" lon="2.111798040568828582763671875">
        <ele>164.8000030517578125</ele>
        <time>2022-06-01T06:56:24.000Z</time>
      </trkpt>
      <trkpt lat="41.533929817378520965576171875" lon="2.11190004833042621612548828125">
        <ele>165.399993896484375</ele>
        <time>2022-06-01T06:56:30.000Z</time>
      </trkpt>
      <trkpt lat="41.53391799889504909515380859375" lon="2.11191010661423206329345703125">
        <ele>165.600006103515625</ele>
        <time>2022-06-01T06:56:31.000Z</time>
      </trkpt>
      <trkpt lat="41.5339055098593235015869140625" lon="2.1119182370603084564208984375">
        <ele>165.600006103515625</ele>
        <time>2022-06-01T06:56:32.000Z</time>
      </trkpt>
      <trkpt lat="41.53384306468069553375244140625" lon="2.1119919978082180023193359375">
        <ele>166</ele>
        <time>2022-06-01T06:56:37.000Z</time>
      </trkpt>
      <trkpt lat="41.53389385901391506195068359375" lon="2.1120583824813365936279296875">
        <ele>166</ele>
        <time>2022-06-01T06:56:40.000Z</time>
      </trkpt>
      <trkpt lat="41.53391565196216106414794921875" lon="2.11208662949502468109130859375">
        <ele>166</ele>
        <time>2022-06-01T06:56:41.000Z</time>
      </trkpt>
      <trkpt lat="41.53392805717885494232177734375" lon="2.11212585680186748504638671875">
        <ele>166</ele>
        <time>2022-06-01T06:56:42.000Z</time>
      </trkpt>
      <trkpt lat="41.53396594338119029998779296875" lon="2.1122427843511104583740234375">
        <ele>166.1999969482421875</ele>
        <time>2022-06-01T06:56:45.000Z</time>
      </trkpt>
      <trkpt lat="41.53403702192008495330810546875" lon="2.11231981404125690460205078125">
        <ele>166.1999969482421875</ele>
        <time>2022-06-01T06:56:48.000Z</time>
      </trkpt>
      <trkpt lat="41.53409351594746112823486328125" lon="2.11235828697681427001953125">
        <ele>166.1999969482421875</ele>
        <time>2022-06-01T06:56:50.000Z</time>
      </trkpt>
      <trkpt lat="41.53414347209036350250244140625" lon="2.1123939938843250274658203125">
        <ele>166.600006103515625</ele>
        <time>2022-06-01T06:56:52.000Z</time>
      </trkpt>
      <trkpt lat="41.53415855951607227325439453125" lon="2.11246398277580738067626953125">
        <ele>166.8000030517578125</ele>
        <time>2022-06-01T06:56:54.000Z</time>
      </trkpt>
      <trkpt lat="41.53417490422725677490234375" lon="2.1125673316419124603271484375">
        <ele>166.8000030517578125</ele>
        <time>2022-06-01T06:56:57.000Z</time>
      </trkpt>
      <trkpt lat="41.53419041074812412261962890625" lon="2.1126303635537624359130859375">
        <ele>166.8000030517578125</ele>
        <time>2022-06-01T06:56:59.000Z</time>
      </trkpt>
      <trkpt lat="41.53424874879419803619384765625" lon="2.11285893805325031280517578125">
        <ele>167.399993896484375</ele>
        <time>2022-06-01T06:57:07.000Z</time>
      </trkpt>
      <trkpt lat="41.53426199220120906829833984375" lon="2.11291258223354816436767578125">
        <ele>167.600006103515625</ele>
        <time>2022-06-01T06:57:09.000Z</time>
      </trkpt>
      <trkpt lat="41.53433457948267459869384765625" lon="2.11312464438378810882568359375">
        <ele>168.1999969482421875</ele>
        <time>2022-06-01T06:57:17.000Z</time>
      </trkpt>
      <trkpt lat="41.5343437157571315765380859375" lon="2.11325171403586864471435546875">
        <ele>168.600006103515625</ele>
        <time>2022-06-01T06:57:22.000Z</time>
      </trkpt>
      <trkpt lat="41.53434966690838336944580078125" lon="2.1133049391210079193115234375">
        <ele>168.600006103515625</ele>
        <time>2022-06-01T06:57:24.000Z</time>
      </trkpt>
      <trkpt lat="41.5343834459781646728515625" lon="2.1134185977280139923095703125">
        <ele>168.8000030517578125</ele>
        <time>2022-06-01T06:57:28.000Z</time>
      </trkpt>
      <trkpt lat="41.53443641960620880126953125" lon="2.1136526204645633697509765625">
        <ele>169.399993896484375</ele>
        <time>2022-06-01T06:57:36.000Z</time>
      </trkpt>
      <trkpt lat="41.53447053395211696624755859375" lon="2.11380961351096630096435546875">
        <ele>169.600006103515625</ele>
        <time>2022-06-01T06:57:41.000Z</time>
      </trkpt>
      <trkpt lat="41.5344852022826671600341796875" lon="2.1138769201934337615966796875">
        <ele>169.600006103515625</ele>
        <time>2022-06-01T06:57:43.000Z</time>
      </trkpt>
      <trkpt lat="41.5345458872616291046142578125" lon="2.11407984606921672821044921875">
        <ele>170</ele>
        <time>2022-06-01T06:57:49.000Z</time>
      </trkpt>
      <trkpt lat="41.53460799716413021087646484375" lon="2.1143556945025920867919921875">
        <ele>170.1999969482421875</ele>
        <time>2022-06-01T06:57:57.000Z</time>
      </trkpt>
      <trkpt lat="41.53472953476011753082275390625" lon="2.1146272681653499603271484375">
        <ele>170.399993896484375</ele>
        <time>2022-06-01T06:58:05.000Z</time>
      </trkpt>
      <trkpt lat="41.5347373299300670623779296875" lon="2.114658616483211517333984375">
        <ele>170.399993896484375</ele>
        <time>2022-06-01T06:58:06.000Z</time>
      </trkpt>
      <trkpt lat="41.534723751246929168701171875" lon="2.1147201396524906158447265625">
        <ele>170.399993896484375</ele>
        <time>2022-06-01T06:58:08.000Z</time>
      </trkpt>
      <trkpt lat="41.53465694747865200042724609375" lon="2.11475844494998455047607421875">
        <ele>170.399993896484375</ele>
        <time>2022-06-01T06:58:12.000Z</time>
      </trkpt>
      <trkpt lat="41.534600369632244110107421875" lon="2.11477898061275482177734375">
        <ele>170.399993896484375</ele>
        <time>2022-06-01T06:58:16.000Z</time>
      </trkpt>
      <trkpt lat="41.534588299691677093505859375" lon="2.114788033068180084228515625">
        <ele>170.399993896484375</ele>
        <time>2022-06-01T06:58:17.000Z</time>
      </trkpt>
      <trkpt lat="41.53447438962757587432861328125" lon="2.11486774496734142303466796875">
        <ele>170.1999969482421875</ele>
        <time>2022-06-01T06:58:23.000Z</time>
      </trkpt>
      <trkpt lat="41.5343775786459445953369140625" lon="2.114953659474849700927734375">
        <ele>170.1999969482421875</ele>
        <time>2022-06-01T06:58:30.000Z</time>
      </trkpt>
      <trkpt lat="41.53432401828467845916748046875" lon="2.11503203026950359344482421875">
        <ele>170.1999969482421875</ele>
        <time>2022-06-01T06:58:37.000Z</time>
      </trkpt>
      <trkpt lat="41.53419527225196361541748046875" lon="2.115106880664825439453125">
        <ele>170.1999969482421875</ele>
        <time>2022-06-01T06:58:45.000Z</time>
      </trkpt>
      <trkpt lat="41.534143723547458648681640625" lon="2.1151457726955413818359375">
        <ele>170</ele>
        <time>2022-06-01T06:58:52.000Z</time>
      </trkpt>
      <trkpt lat="41.53418303467333316802978515625" lon="2.11513780988752841949462890625">
        <ele>169.8000030517578125</ele>
        <time>2022-06-01T06:59:00.000Z</time>
      </trkpt>
      <trkpt lat="41.534190662205219268798828125" lon="2.11515490896999835968017578125">
        <ele>169.8000030517578125</ele>
        <time>2022-06-01T06:59:08.000Z</time>
      </trkpt>
      <trkpt lat="41.53417616151273250579833984375" lon="2.1151667274534702301025390625">
        <ele>170</ele>
        <time>2022-06-01T06:59:19.000Z</time>
      </trkpt>
      <trkpt lat="41.5340976230800151824951171875" lon="2.11520251818001270294189453125">
        <ele>169.8000030517578125</ele>
        <time>2022-06-01T06:59:26.000Z</time>
      </trkpt>
      <trkpt lat="41.5340721420943737030029296875" lon="2.11522179655730724334716796875">
        <ele>169.8000030517578125</ele>
        <time>2022-06-01T06:59:28.000Z</time>
      </trkpt>
      <trkpt lat="41.53406987898051738739013671875" lon="2.1152750216424465179443359375">
        <ele>169.8000030517578125</ele>
        <time>2022-06-01T06:59:30.000Z</time>
      </trkpt>
      <trkpt lat="41.5341016463935375213623046875" lon="2.11544626392424106597900390625">
        <ele>169.600006103515625</ele>
        <time>2022-06-01T06:59:34.000Z</time>
      </trkpt>
      <trkpt lat="41.53417398221790790557861328125" lon="2.11579394526779651641845703125">
        <ele>169.399993896484375</ele>
        <time>2022-06-01T06:59:41.000Z</time>
      </trkpt>
      <trkpt lat="41.53424807824194431304931640625" lon="2.11609032936394214630126953125">
        <ele>169.1999969482421875</ele>
        <time>2022-06-01T06:59:47.000Z</time>
      </trkpt>
      <trkpt lat="41.53429250232875347137451171875" lon="2.1161918342113494873046875">
        <ele>169.1999969482421875</ele>
        <time>2022-06-01T06:59:51.000Z</time>
      </trkpt>
      <trkpt lat="41.53430440463125705718994140625" lon="2.11621136404573917388916015625">
        <ele>169.1999969482421875</ele>
        <time>2022-06-01T06:59:52.000Z</time>
      </trkpt>
      <trkpt lat="41.5343510918319225311279296875" lon="2.11634270846843719482421875">
        <ele>169</ele>
        <time>2022-06-01T06:59:56.000Z</time>
      </trkpt>
      <trkpt lat="41.53436576016247272491455078125" lon="2.11638755165040493011474609375">
        <ele>169</ele>
        <time>2022-06-01T06:59:57.000Z</time>
      </trkpt>
      <trkpt lat="41.53440733440220355987548828125" lon="2.11654446087777614593505859375">
        <ele>168.8000030517578125</ele>
        <time>2022-06-01T07:00:01.000Z</time>
      </trkpt>
      <trkpt lat="41.53441303409636020660400390625" lon="2.1165638230741024017333984375">
        <ele>168.600006103515625</ele>
        <time>2022-06-01T07:00:02.000Z</time>
      </trkpt>
      <trkpt lat="41.534440778195858001708984375" lon="2.1166399307548999786376953125">
        <ele>167.8000030517578125</ele>
        <time>2022-06-01T07:00:07.000Z</time>
      </trkpt>
      <trkpt lat="41.5344463102519512176513671875" lon="2.11666080169379711151123046875">
        <ele>167.600006103515625</ele>
        <time>2022-06-01T07:00:08.000Z</time>
      </trkpt>
      <trkpt lat="41.534478329122066497802734375" lon="2.11676758714020252227783203125">
        <ele>166.399993896484375</ele>
        <time>2022-06-01T07:00:13.000Z</time>
      </trkpt>
      <trkpt lat="41.53452367521822452545166015625" lon="2.1169782243669033050537109375">
        <ele>165.8000030517578125</ele>
        <time>2022-06-01T07:00:20.000Z</time>
      </trkpt>
      <trkpt lat="41.53455234132707118988037109375" lon="2.117054164409637451171875">
        <ele>165.399993896484375</ele>
        <time>2022-06-01T07:00:23.000Z</time>
      </trkpt>
      <trkpt lat="41.53456843458116054534912109375" lon="2.11714996956288814544677734375">
        <ele>165.1999969482421875</ele>
        <time>2022-06-01T07:00:27.000Z</time>
      </trkpt>
      <trkpt lat="41.534566842019557952880859375" lon="2.1171735227108001708984375">
        <ele>165</ele>
        <time>2022-06-01T07:00:28.000Z</time>
      </trkpt>
      <trkpt lat="41.53453700244426727294921875" lon="2.117231525480747222900390625">
        <ele>164.600006103515625</ele>
        <time>2022-06-01T07:00:31.000Z</time>
      </trkpt>
      <trkpt lat="41.53453088365495204925537109375" lon="2.1172548271715641021728515625">
        <ele>164.399993896484375</ele>
        <time>2022-06-01T07:00:32.000Z</time>
      </trkpt>
      <trkpt lat="41.53451043181121349334716796875" lon="2.1173349581658840179443359375">
        <ele>164</ele>
        <time>2022-06-01T07:00:36.000Z</time>
      </trkpt>
      <trkpt lat="41.5345006249845027923583984375" lon="2.11740461178123950958251953125">
        <ele>163.399993896484375</ele>
        <time>2022-06-01T07:00:42.000Z</time>
      </trkpt>
      <trkpt lat="41.53449903242290019989013671875" lon="2.117411904036998748779296875">
        <ele>163.399993896484375</ele>
        <time>2022-06-01T07:00:43.000Z</time>
      </trkpt>
      <trkpt lat="41.534468941390514373779296875" lon="2.1175069548189640045166015625">
        <ele>162.8000030517578125</ele>
        <time>2022-06-01T07:00:50.000Z</time>
      </trkpt>
      <trkpt lat="41.53444672934710979461669921875" lon="2.11759530007839202880859375">
        <ele>162.399993896484375</ele>
        <time>2022-06-01T07:00:55.000Z</time>
      </trkpt>
      <trkpt lat="41.53443767689168453216552734375" lon="2.1176145784556865692138671875">
        <ele>162.1999969482421875</ele>
        <time>2022-06-01T07:00:56.000Z</time>
      </trkpt>
      <trkpt lat="41.53439476154744625091552734375" lon="2.1177376247942447662353515625">
        <ele>161.8000030517578125</ele>
        <time>2022-06-01T07:01:00.000Z</time>
      </trkpt>
      <trkpt lat="41.5343065001070499420166015625" lon="2.11794977076351642608642578125">
        <ele>161.399993896484375</ele>
        <time>2022-06-01T07:01:06.000Z</time>
      </trkpt>
      <trkpt lat="41.5342877246439456939697265625" lon="2.1180390380322933197021484375">
        <ele>161</ele>
        <time>2022-06-01T07:01:09.000Z</time>
      </trkpt>
      <trkpt lat="41.53429158031940460205078125" lon="2.1180581487715244293212890625">
        <ele>160.8000030517578125</ele>
        <time>2022-06-01T07:01:10.000Z</time>
      </trkpt>
      <trkpt lat="41.53430088423192501068115234375" lon="2.118140794336795806884765625">
        <ele>160</ele>
        <time>2022-06-01T07:01:15.000Z</time>
      </trkpt>
      <trkpt lat="41.5343008004128932952880859375" lon="2.11817172355949878692626953125">
        <ele>159.600006103515625</ele>
        <time>2022-06-01T07:01:17.000Z</time>
      </trkpt>
      <trkpt lat="41.534302644431591033935546875" lon="2.1182589791715145111083984375">
        <ele>159.1999969482421875</ele>
        <time>2022-06-01T07:01:21.000Z</time>
      </trkpt>
      <trkpt lat="41.5343386866152286529541015625" lon="2.118311114609241485595703125">
        <ele>159</ele>
        <time>2022-06-01T07:01:23.000Z</time>
      </trkpt>
      <trkpt lat="41.53440901078283786773681640625" lon="2.11834765970706939697265625">
        <ele>158.8000030517578125</ele>
        <time>2022-06-01T07:01:25.000Z</time>
      </trkpt>
      <trkpt lat="41.5344637446105480194091796875" lon="2.11836911737918853759765625">
        <ele>158.600006103515625</ele>
        <time>2022-06-01T07:01:27.000Z</time>
      </trkpt>
      <trkpt lat="41.5344826877117156982421875" lon="2.11841194890439510345458984375">
        <ele>158.399993896484375</ele>
        <time>2022-06-01T07:01:29.000Z</time>
      </trkpt>
      <trkpt lat="41.53448428027331829071044921875" lon="2.11847011931240558624267578125">
        <ele>158.1999969482421875</ele>
        <time>2022-06-01T07:01:31.000Z</time>
      </trkpt>
      <trkpt lat="41.53442946262657642364501953125" lon="2.1185805089771747589111328125">
        <ele>157.8000030517578125</ele>
        <time>2022-06-01T07:01:35.000Z</time>
      </trkpt>
      <trkpt lat="41.5344201587140560150146484375" lon="2.118653096258640289306640625">
        <ele>157.8000030517578125</ele>
        <time>2022-06-01T07:01:37.000Z</time>
      </trkpt>
      <trkpt lat="41.5344107709825038909912109375" lon="2.1187759749591350555419921875">
        <ele>157.600006103515625</ele>
        <time>2022-06-01T07:01:40.000Z</time>
      </trkpt>
      <trkpt lat="41.53442929498851299285888671875" lon="2.11890011094510555267333984375">
        <ele>157</ele>
        <time>2022-06-01T07:01:43.000Z</time>
      </trkpt>
      <trkpt lat="41.53442476876080036163330078125" lon="2.11899273097515106201171875">
        <ele>156.399993896484375</ele>
        <time>2022-06-01T07:01:45.000Z</time>
      </trkpt>
      <trkpt lat="41.53438637964427471160888671875" lon="2.1191315352916717529296875">
        <ele>155.600006103515625</ele>
        <time>2022-06-01T07:01:48.000Z</time>
      </trkpt>
      <trkpt lat="41.53437414206564426422119140625" lon="2.119186855852603912353515625">
        <ele>155.399993896484375</ele>
        <time>2022-06-01T07:01:49.000Z</time>
      </trkpt>
      <trkpt lat="41.5343460626900196075439453125" lon="2.1193863451480865478515625">
        <ele>155</ele>
        <time>2022-06-01T07:01:52.000Z</time>
      </trkpt>
      <trkpt lat="41.5342987887561321258544921875" lon="2.11960695683956146240234375">
        <ele>154.399993896484375</ele>
        <time>2022-06-01T07:01:55.000Z</time>
      </trkpt>
      <trkpt lat="41.5342548675835132598876953125" lon="2.1197365410625934600830078125">
        <ele>154</ele>
        <time>2022-06-01T07:01:57.000Z</time>
      </trkpt>
      <trkpt lat="41.53423726558685302734375" lon="2.1197958849370479583740234375">
        <ele>153.600006103515625</ele>
        <time>2022-06-01T07:01:58.000Z</time>
      </trkpt>
      <trkpt lat="41.5342142991721630096435546875" lon="2.11990828625857830047607421875">
        <ele>153</ele>
        <time>2022-06-01T07:02:00.000Z</time>
      </trkpt>
      <trkpt lat="41.5341985411942005157470703125" lon="2.11996310390532016754150390625">
        <ele>152.600006103515625</ele>
        <time>2022-06-01T07:02:01.000Z</time>
      </trkpt>
      <trkpt lat="41.5341589786112308502197265625" lon="2.12006435729563236236572265625">
        <ele>152</ele>
        <time>2022-06-01T07:02:03.000Z</time>
      </trkpt>
      <trkpt lat="41.5341044962406158447265625" lon="2.12016175501048564910888671875">
        <ele>151.1999969482421875</ele>
        <time>2022-06-01T07:02:05.000Z</time>
      </trkpt>
      <trkpt lat="41.53407926671206951141357421875" lon="2.12020601145923137664794921875">
        <ele>150.600006103515625</ele>
        <time>2022-06-01T07:02:06.000Z</time>
      </trkpt>
      <trkpt lat="41.53397776186466217041015625" lon="2.1203889884054660797119140625">
        <ele>149.399993896484375</ele>
        <time>2022-06-01T07:02:10.000Z</time>
      </trkpt>
      <trkpt lat="41.53391129337251186370849609375" lon="2.12052787654101848602294921875">
        <ele>148.600006103515625</ele>
        <time>2022-06-01T07:02:13.000Z</time>
      </trkpt>
      <trkpt lat="41.53388815931975841522216796875" lon="2.1205673553049564361572265625">
        <ele>148.1999969482421875</ele>
        <time>2022-06-01T07:02:14.000Z</time>
      </trkpt>
      <trkpt lat="41.53380878269672393798828125" lon="2.120665423572063446044921875">
        <ele>147.1999969482421875</ele>
        <time>2022-06-01T07:02:17.000Z</time>
      </trkpt>
      <trkpt lat="41.5337482653558254241943359375" lon="2.1207876317203044891357421875">
        <ele>145.8000030517578125</ele>
        <time>2022-06-01T07:02:20.000Z</time>
      </trkpt>
      <trkpt lat="41.53370157815515995025634765625" lon="2.120919562876224517822265625">
        <ele>144.8000030517578125</ele>
        <time>2022-06-01T07:02:23.000Z</time>
      </trkpt>
      <trkpt lat="41.533687077462673187255859375" lon="2.12096256203949451446533203125">
        <ele>144.600006103515625</ele>
        <time>2022-06-01T07:02:24.000Z</time>
      </trkpt>
      <trkpt lat="41.5336101315915584564208984375" lon="2.1211349777877330780029296875">
        <ele>143.399993896484375</ele>
        <time>2022-06-01T07:02:28.000Z</time>
      </trkpt>
      <trkpt lat="41.53358842246234416961669921875" lon="2.12118275463581085205078125">
        <ele>142.8000030517578125</ele>
        <time>2022-06-01T07:02:29.000Z</time>
      </trkpt>
      <trkpt lat="41.5335618518292903900146484375" lon="2.12125257588922977447509765625">
        <ele>142.1999969482421875</ele>
        <time>2022-06-01T07:02:31.000Z</time>
      </trkpt>
      <trkpt lat="41.53354869224131107330322265625" lon="2.12133052758872509002685546875">
        <ele>141.600006103515625</ele>
        <time>2022-06-01T07:02:33.000Z</time>
      </trkpt>
      <trkpt lat="41.53353410772979259490966796875" lon="2.1214414201676845550537109375">
        <ele>140.600006103515625</ele>
        <time>2022-06-01T07:02:35.000Z</time>
      </trkpt>
      <trkpt lat="41.5335149131715297698974609375" lon="2.1216375567018985748291015625">
        <ele>139.399993896484375</ele>
        <time>2022-06-01T07:02:38.000Z</time>
      </trkpt>
      <trkpt lat="41.5335078723728656768798828125" lon="2.12189898826181888580322265625">
        <ele>138</ele>
        <time>2022-06-01T07:02:42.000Z</time>
      </trkpt>
      <trkpt lat="41.5335105545818805694580078125" lon="2.12196989916265010833740234375">
        <ele>137.8000030517578125</ele>
        <time>2022-06-01T07:02:43.000Z</time>
      </trkpt>
      <trkpt lat="41.53351373970508575439453125" lon="2.12210535071790218353271484375">
        <ele>137.399993896484375</ele>
        <time>2022-06-01T07:02:45.000Z</time>
      </trkpt>
      <trkpt lat="41.53352312743663787841796875" lon="2.12229712866246700286865234375">
        <ele>136.600006103515625</ele>
        <time>2022-06-01T07:02:48.000Z</time>
      </trkpt>
      <trkpt lat="41.53352488763630390167236328125" lon="2.12236560881137847900390625">
        <ele>136.399993896484375</ele>
        <time>2022-06-01T07:02:49.000Z</time>
      </trkpt>
      <trkpt lat="41.53352471999824047088623046875" lon="2.122514806687831878662109375">
        <ele>135.600006103515625</ele>
        <time>2022-06-01T07:02:51.000Z</time>
      </trkpt>
      <trkpt lat="41.53349504806101322174072265625" lon="2.122718654572963714599609375">
        <ele>134.600006103515625</ele>
        <time>2022-06-01T07:02:54.000Z</time>
      </trkpt>
      <trkpt lat="41.53343620710074901580810546875" lon="2.1228866279125213623046875">
        <ele>133.399993896484375</ele>
        <time>2022-06-01T07:02:57.000Z</time>
      </trkpt>
      <trkpt lat="41.5333963930606842041015625" lon="2.1229981072247028350830078125">
        <ele>133.1999969482421875</ele>
        <time>2022-06-01T07:02:59.000Z</time>
      </trkpt>
      <trkpt lat="41.533335037529468536376953125" lon="2.12314185686409473419189453125">
        <ele>132</ele>
        <time>2022-06-01T07:03:02.000Z</time>
      </trkpt>
      <trkpt lat="41.53328239917755126953125" lon="2.12321762926876544952392578125">
        <ele>131.399993896484375</ele>
        <time>2022-06-01T07:03:04.000Z</time>
      </trkpt>
      <trkpt lat="41.53325666673481464385986328125" lon="2.123258113861083984375">
        <ele>130.8000030517578125</ele>
        <time>2022-06-01T07:03:05.000Z</time>
      </trkpt>
      <trkpt lat="41.53320126235485076904296875" lon="2.12337772361934185028076171875">
        <ele>129.600006103515625</ele>
        <time>2022-06-01T07:03:08.000Z</time>
      </trkpt>
      <trkpt lat="41.53319514356553554534912109375" lon="2.12341812439262866973876953125">
        <ele>129.399993896484375</ele>
        <time>2022-06-01T07:03:09.000Z</time>
      </trkpt>
      <trkpt lat="41.5331816487014293670654296875" lon="2.12356396950781345367431640625">
        <ele>128.399993896484375</ele>
        <time>2022-06-01T07:03:12.000Z</time>
      </trkpt>
      <trkpt lat="41.533140242099761962890625" lon="2.1236649714410305023193359375">
        <ele>127.1999969482421875</ele>
        <time>2022-06-01T07:03:14.000Z</time>
      </trkpt>
      <trkpt lat="41.5330700017511844635009765625" lon="2.1238302625715732574462890625">
        <ele>125.8000030517578125</ele>
        <time>2022-06-01T07:03:17.000Z</time>
      </trkpt>
      <trkpt lat="41.53302750550210475921630859375" lon="2.123939059674739837646484375">
        <ele>125</ele>
        <time>2022-06-01T07:03:19.000Z</time>
      </trkpt>
      <trkpt lat="41.53299934230744838714599609375" lon="2.1239861659705638885498046875">
        <ele>124.59999847412109375</ele>
        <time>2022-06-01T07:03:20.000Z</time>
      </trkpt>
      <trkpt lat="41.532860286533832550048828125" lon="2.12419814430177211761474609375">
        <ele>123.40000152587890625</ele>
        <time>2022-06-01T07:03:24.000Z</time>
      </trkpt>
      <trkpt lat="41.53279884718358516693115234375" lon="2.12431934662163257598876953125">
        <ele>123</ele>
        <time>2022-06-01T07:03:26.000Z</time>
      </trkpt>
      <trkpt lat="41.53277101926505565643310546875" lon="2.124379612505435943603515625">
        <ele>123</ele>
        <time>2022-06-01T07:03:27.000Z</time>
      </trkpt>
      <trkpt lat="41.53272776864469051361083984375" lon="2.1245058439671993255615234375">
        <ele>122.8000030517578125</ele>
        <time>2022-06-01T07:03:29.000Z</time>
      </trkpt>
      <trkpt lat="41.5327136032283306121826171875" lon="2.12456761859357357025146484375">
        <ele>122.59999847412109375</ele>
        <time>2022-06-01T07:03:30.000Z</time>
      </trkpt>
      <trkpt lat="41.532704718410968780517578125" lon="2.124629057943820953369140625">
        <ele>122.40000152587890625</ele>
        <time>2022-06-01T07:03:31.000Z</time>
      </trkpt>
      <trkpt lat="41.53269030153751373291015625" lon="2.12474933825433254241943359375">
        <ele>121.40000152587890625</ele>
        <time>2022-06-01T07:03:33.000Z</time>
      </trkpt>
      <trkpt lat="41.53267965652048587799072265625" lon="2.12480776011943817138671875">
        <ele>120.8000030517578125</ele>
        <time>2022-06-01T07:03:34.000Z</time>
      </trkpt>
      <trkpt lat="41.53267110697925090789794921875" lon="2.12486869655549526214599609375">
        <ele>120.59999847412109375</ele>
        <time>2022-06-01T07:03:35.000Z</time>
      </trkpt>
      <trkpt lat="41.53266741894185543060302734375" lon="2.12508092634379863739013671875">
        <ele>120</ele>
        <time>2022-06-01T07:03:38.000Z</time>
      </trkpt>
      <trkpt lat="41.53265551663935184478759765625" lon="2.12525074370205402374267578125">
        <ele>119.8000030517578125</ele>
        <time>2022-06-01T07:03:40.000Z</time>
      </trkpt>
      <trkpt lat="41.53264411725103855133056640625" lon="2.12552181445062160491943359375">
        <ele>119.40000152587890625</ele>
        <time>2022-06-01T07:03:43.000Z</time>
      </trkpt>
      <trkpt lat="41.53264260850846767425537109375" lon="2.12578400038182735443115234375">
        <ele>119</ele>
        <time>2022-06-01T07:03:46.000Z</time>
      </trkpt>
      <trkpt lat="41.53263757936656475067138671875" lon="2.1258543245494365692138671875">
        <ele>118.59999847412109375</ele>
        <time>2022-06-01T07:03:47.000Z</time>
      </trkpt>
      <trkpt lat="41.5326415188610553741455078125" lon="2.12592079304158687591552734375">
        <ele>118.40000152587890625</ele>
        <time>2022-06-01T07:03:48.000Z</time>
      </trkpt>
      <trkpt lat="41.5326851047575473785400390625" lon="2.12604702450335025787353515625">
        <ele>117.40000152587890625</ele>
        <time>2022-06-01T07:03:51.000Z</time>
      </trkpt>
      <trkpt lat="41.53273698873817920684814453125" lon="2.12611139751970767974853515625">
        <ele>116.1999969482421875</ele>
        <time>2022-06-01T07:03:54.000Z</time>
      </trkpt>
      <trkpt lat="41.53280722908675670623779296875" lon="2.12618373334407806396484375">
        <ele>115.40000152587890625</ele>
        <time>2022-06-01T07:03:57.000Z</time>
      </trkpt>
      <trkpt lat="41.5329338796436786651611328125" lon="2.1262191049754619598388671875">
        <ele>115.1999969482421875</ele>
        <time>2022-06-01T07:04:01.000Z</time>
      </trkpt>
      <trkpt lat="41.5329965762794017791748046875" lon="2.12622488848865032196044921875">
        <ele>115.1999969482421875</ele>
        <time>2022-06-01T07:04:03.000Z</time>
      </trkpt>
      <trkpt lat="41.53318743221461772918701171875" lon="2.1262556500732898712158203125">
        <ele>115.1999969482421875</ele>
        <time>2022-06-01T07:04:09.000Z</time>
      </trkpt>
      <trkpt lat="41.533483229577541351318359375" lon="2.1262781135737895965576171875">
        <ele>115.40000152587890625</ele>
        <time>2022-06-01T07:04:18.000Z</time>
      </trkpt>
      <trkpt lat="41.5337117202579975128173828125" lon="2.12629982270300388336181640625">
        <ele>115.59999847412109375</ele>
        <time>2022-06-01T07:04:25.000Z</time>
      </trkpt>
      <trkpt lat="41.5339745767414569854736328125" lon="2.1263052709400653839111328125">
        <ele>116</ele>
        <time>2022-06-01T07:04:33.000Z</time>
      </trkpt>
      <trkpt lat="41.534273810684680938720703125" lon="2.12630870752036571502685546875">
        <ele>116.1999969482421875</ele>
        <time>2022-06-01T07:04:42.000Z</time>
      </trkpt>
      <trkpt lat="41.534338183701038360595703125" lon="2.1263062767684459686279296875">
        <ele>116.1999969482421875</ele>
        <time>2022-06-01T07:04:44.000Z</time>
      </trkpt>
      <trkpt lat="41.53453297913074493408203125" lon="2.12632128037512302398681640625">
        <ele>116.40000152587890625</ele>
        <time>2022-06-01T07:04:50.000Z</time>
      </trkpt>
      <trkpt lat="41.53474998660385608673095703125" lon="2.12634743191301822662353515625">
        <ele>116.8000030517578125</ele>
        <time>2022-06-01T07:04:56.000Z</time>
      </trkpt>
      <trkpt lat="41.53499591164290904998779296875" lon="2.1264048479497432708740234375">
        <ele>117.1999969482421875</ele>
        <time>2022-06-01T07:05:03.000Z</time>
      </trkpt>
      <trkpt lat="41.53528911061584949493408203125" lon="2.12643108330667018890380859375">
        <ele>117.40000152587890625</ele>
        <time>2022-06-01T07:05:11.000Z</time>
      </trkpt>
      <trkpt lat="41.5354377217590808868408203125" lon="2.1264440752565860748291015625">
        <ele>117.40000152587890625</ele>
        <time>2022-06-01T07:05:15.000Z</time>
      </trkpt>
      <trkpt lat="41.53558432124555110931396484375" lon="2.12645052932202816009521484375">
        <ele>117.59999847412109375</ele>
        <time>2022-06-01T07:05:19.000Z</time>
      </trkpt>
      <trkpt lat="41.53587810695171356201171875" lon="2.12648279964923858642578125">
        <ele>117.8000030517578125</ele>
        <time>2022-06-01T07:05:27.000Z</time>
      </trkpt>
      <trkpt lat="41.53621472418308258056640625" lon="2.1265317499637603759765625">
        <ele>118.40000152587890625</ele>
        <time>2022-06-01T07:05:37.000Z</time>
      </trkpt>
      <trkpt lat="41.536308936774730682373046875" lon="2.12656569667160511016845703125">
        <ele>118.59999847412109375</ele>
        <time>2022-06-01T07:05:40.000Z</time>
      </trkpt>
      <trkpt lat="41.53646777383983135223388671875" lon="2.126648090779781341552734375">
        <ele>118.8000030517578125</ele>
        <time>2022-06-01T07:05:45.000Z</time>
      </trkpt>
      <trkpt lat="41.53669039718806743621826171875" lon="2.12674657814204692840576171875">
        <ele>119</ele>
        <time>2022-06-01T07:05:52.000Z</time>
      </trkpt>
      <trkpt lat="41.53692391701042652130126953125" lon="2.12685135193169116973876953125">
        <ele>119.1999969482421875</ele>
        <time>2022-06-01T07:05:59.000Z</time>
      </trkpt>
      <trkpt lat="41.53710898943245410919189453125" lon="2.1269376017153263092041015625">
        <ele>119.40000152587890625</ele>
        <time>2022-06-01T07:06:06.000Z</time>
      </trkpt>
      <trkpt lat="41.5371342189610004425048828125" lon="2.12694422341883182525634765625">
        <ele>119.59999847412109375</ele>
        <time>2022-06-01T07:06:07.000Z</time>
      </trkpt>
      <trkpt lat="41.53728232719004154205322265625" lon="2.127013541758060455322265625">
        <ele>120.59999847412109375</ele>
        <time>2022-06-01T07:06:13.000Z</time>
      </trkpt>
      <trkpt lat="41.5373078919947147369384765625" lon="2.12703340686857700347900390625">
        <ele>120.59999847412109375</ele>
        <time>2022-06-01T07:06:14.000Z</time>
      </trkpt>
      <trkpt lat="41.5374641306698322296142578125" lon="2.12715125642716884613037109375">
        <ele>121</ele>
        <time>2022-06-01T07:06:19.000Z</time>
      </trkpt>
      <trkpt lat="41.537715755403041839599609375" lon="2.1272661723196506500244140625">
        <ele>121</ele>
        <time>2022-06-01T07:06:26.000Z</time>
      </trkpt>
      <trkpt lat="41.537914909422397613525390625" lon="2.1273278631269931793212890625">
        <ele>121</ele>
        <time>2022-06-01T07:06:32.000Z</time>
      </trkpt>
      <trkpt lat="41.538192518055438995361328125" lon="2.12740606628358364105224609375">
        <ele>121</ele>
        <time>2022-06-01T07:06:40.000Z</time>
      </trkpt>
      <trkpt lat="41.53841002844274044036865234375" lon="2.12743255309760570526123046875">
        <ele>121</ele>
        <time>2022-06-01T07:06:46.000Z</time>
      </trkpt>
      <trkpt lat="41.538547240197658538818359375" lon="2.1274785697460174560546875">
        <ele>121.1999969482421875</ele>
        <time>2022-06-01T07:06:51.000Z</time>
      </trkpt>
      <trkpt lat="41.5385611541569232940673828125" lon="2.127496339380741119384765625">
        <ele>121.1999969482421875</ele>
        <time>2022-06-01T07:06:52.000Z</time>
      </trkpt>
      <trkpt lat="41.5385611541569232940673828125" lon="2.1275491453707218170166015625">
        <ele>121.1999969482421875</ele>
        <time>2022-06-01T07:06:54.000Z</time>
      </trkpt>
      <trkpt lat="41.5385420434176921844482421875" lon="2.127649225294589996337890625">
        <ele>121.40000152587890625</ele>
        <time>2022-06-01T07:06:57.000Z</time>
      </trkpt>
      <trkpt lat="41.538523100316524505615234375" lon="2.12779716588556766510009765625">
        <ele>121.40000152587890625</ele>
        <time>2022-06-01T07:07:01.000Z</time>
      </trkpt>
      <trkpt lat="41.53848295100033283233642578125" lon="2.12802708148956298828125">
        <ele>121.40000152587890625</ele>
        <time>2022-06-01T07:07:07.000Z</time>
      </trkpt>
      <trkpt lat="41.53844640590250492095947265625" lon="2.1283239684998989105224609375">
        <ele>121.40000152587890625</ele>
        <time>2022-06-01T07:07:15.000Z</time>
      </trkpt>
      <trkpt lat="41.5384525246918201446533203125" lon="2.1284148283302783966064453125">
        <ele>121.59999847412109375</ele>
        <time>2022-06-01T07:07:18.000Z</time>
      </trkpt>
      <trkpt lat="41.5384733118116855621337890625" lon="2.12843813002109527587890625">
        <ele>121.59999847412109375</ele>
        <time>2022-06-01T07:07:19.000Z</time>
      </trkpt>
      <trkpt lat="41.5385946817696094512939453125" lon="2.12845648638904094696044921875">
        <ele>121.59999847412109375</ele>
        <time>2022-06-01T07:07:23.000Z</time>
      </trkpt>
      <trkpt lat="41.53883649967610836029052734375" lon="2.12840451858937740325927734375">
        <ele>121.59999847412109375</ele>
        <time>2022-06-01T07:07:30.000Z</time>
      </trkpt>
      <trkpt lat="41.53911394067108631134033203125" lon="2.12836705148220062255859375">
        <ele>121.59999847412109375</ele>
        <time>2022-06-01T07:07:38.000Z</time>
      </trkpt>
      <trkpt lat="41.53929331339895725250244140625" lon="2.1283115632832050323486328125">
        <ele>121.8000030517578125</ele>
        <time>2022-06-01T07:07:43.000Z</time>
      </trkpt>
      <trkpt lat="41.53939406387507915496826171875" lon="2.128272168338298797607421875">
        <ele>122</ele>
        <time>2022-06-01T07:07:46.000Z</time>
      </trkpt>
      <trkpt lat="41.5396969020366668701171875" lon="2.128095142543315887451171875">
        <ele>122.1999969482421875</ele>
        <time>2022-06-01T07:07:55.000Z</time>
      </trkpt>
      <trkpt lat="41.5399186871945858001708984375" lon="2.12791250087320804595947265625">
        <ele>122.40000152587890625</ele>
        <time>2022-06-01T07:08:02.000Z</time>
      </trkpt>
      <trkpt lat="41.54008255340158939361572265625" lon="2.127816192805767059326171875">
        <ele>122.59999847412109375</ele>
        <time>2022-06-01T07:08:07.000Z</time>
      </trkpt>
      <trkpt lat="41.54026611708104610443115234375" lon="2.1276882849633693695068359375">
        <ele>123</ele>
        <time>2022-06-01T07:08:13.000Z</time>
      </trkpt>
      <trkpt lat="41.54035965912044048309326171875" lon="2.12761477567255496978759765625">
        <ele>123.1999969482421875</ele>
        <time>2022-06-01T07:08:16.000Z</time>
      </trkpt>
      <trkpt lat="41.54060290195047855377197265625" lon="2.1274388395249843597412109375">
        <ele>123.40000152587890625</ele>
        <time>2022-06-01T07:08:24.000Z</time>
      </trkpt>
      <trkpt lat="41.5408215858042240142822265625" lon="2.1272862888872623443603515625">
        <ele>123.59999847412109375</ele>
        <time>2022-06-01T07:08:31.000Z</time>
      </trkpt>
      <trkpt lat="41.541028283536434173583984375" lon="2.12712594307959079742431640625">
        <ele>123.8000030517578125</ele>
        <time>2022-06-01T07:08:38.000Z</time>
      </trkpt>
      <trkpt lat="41.54124042950570583343505859375" lon="2.126965932548046112060546875">
        <ele>123.8000030517578125</ele>
        <time>2022-06-01T07:08:45.000Z</time>
      </trkpt>
      <trkpt lat="41.54130631126463413238525390625" lon="2.12692276574671268463134765625">
        <ele>124</ele>
        <time>2022-06-01T07:08:47.000Z</time>
      </trkpt>
      <trkpt lat="41.54149758629500865936279296875" lon="2.12677809409797191619873046875">
        <ele>124.1999969482421875</ele>
        <time>2022-06-01T07:08:53.000Z</time>
      </trkpt>
      <trkpt lat="41.5417957305908203125" lon="2.126621939241886138916015625">
        <ele>124.40000152587890625</ele>
        <time>2022-06-01T07:09:02.000Z</time>
      </trkpt>
      <trkpt lat="41.542139388620853424072265625" lon="2.12646243162453174591064453125">
        <ele>124.8000030517578125</ele>
        <time>2022-06-01T07:09:12.000Z</time>
      </trkpt>
      <trkpt lat="41.54230308718979358673095703125" lon="2.12636553682386875152587890625">
        <ele>125</ele>
        <time>2022-06-01T07:09:17.000Z</time>
      </trkpt>
      <trkpt lat="41.5425244532525539398193359375" lon="2.12626730091869831085205078125">
        <ele>125.1999969482421875</ele>
        <time>2022-06-01T07:09:24.000Z</time>
      </trkpt>
      <trkpt lat="41.5427785925567150115966796875" lon="2.12615280412137508392333984375">
        <ele>125.40000152587890625</ele>
        <time>2022-06-01T07:09:32.000Z</time>
      </trkpt>
      <trkpt lat="41.54299710877239704132080078125" lon="2.12608943693339824676513671875">
        <ele>125.8000030517578125</ele>
        <time>2022-06-01T07:09:39.000Z</time>
      </trkpt>
      <trkpt lat="41.54321269132196903228759765625" lon="2.12598399259150028228759765625">
        <ele>126</ele>
        <time>2022-06-01T07:09:46.000Z</time>
      </trkpt>
      <trkpt lat="41.54324471019208431243896484375" lon="2.125968821346759796142578125">
        <ele>126</ele>
        <time>2022-06-01T07:09:47.000Z</time>
      </trkpt>
      <trkpt lat="41.54349583201110363006591796875" lon="2.12583244778215885162353515625">
        <ele>126.40000152587890625</ele>
        <time>2022-06-01T07:09:55.000Z</time>
      </trkpt>
      <trkpt lat="41.5437884442508220672607421875" lon="2.12569884024560451507568359375">
        <ele>126.59999847412109375</ele>
        <time>2022-06-01T07:10:04.000Z</time>
      </trkpt>
      <trkpt lat="41.543986760079860687255859375" lon="2.12560814805328845977783203125">
        <ele>127</ele>
        <time>2022-06-01T07:10:10.000Z</time>
      </trkpt>
      <trkpt lat="41.544085331261157989501953125" lon="2.12556288577616214752197265625">
        <ele>127.1999969482421875</ele>
        <time>2022-06-01T07:10:13.000Z</time>
      </trkpt>
      <trkpt lat="41.5443959645926952362060546875" lon="2.12541016750037670135498046875">
        <ele>127.59999847412109375</ele>
        <time>2022-06-01T07:10:23.000Z</time>
      </trkpt>
      <trkpt lat="41.54461028985679149627685546875" lon="2.1253007836639881134033203125">
        <ele>127.8000030517578125</ele>
        <time>2022-06-01T07:10:30.000Z</time>
      </trkpt>
      <trkpt lat="41.54485152103006839752197265625" lon="2.12514865212142467498779296875">
        <ele>128</ele>
        <time>2022-06-01T07:10:38.000Z</time>
      </trkpt>
      <trkpt lat="41.54491354711353778839111328125" lon="2.12511830963194370269775390625">
        <ele>128.1999969482421875</ele>
        <time>2022-06-01T07:10:40.000Z</time>
      </trkpt>
      <trkpt lat="41.545162238180637359619140625" lon="2.12499258108437061309814453125">
        <ele>128.399993896484375</ele>
        <time>2022-06-01T07:10:48.000Z</time>
      </trkpt>
      <trkpt lat="41.54537740163505077362060546875" lon="2.12484589777886867523193359375">
        <ele>128.600006103515625</ele>
        <time>2022-06-01T07:10:55.000Z</time>
      </trkpt>
      <trkpt lat="41.54561452567577362060546875" lon="2.1246644295752048492431640625">
        <ele>128.8000030517578125</ele>
        <time>2022-06-01T07:11:03.000Z</time>
      </trkpt>
      <trkpt lat="41.54577654786407947540283203125" lon="2.12456711567938327789306640625">
        <ele>129</ele>
        <time>2022-06-01T07:11:08.000Z</time>
      </trkpt>
      <trkpt lat="41.54590277932584285736083984375" lon="2.12447114288806915283203125">
        <ele>129.1999969482421875</ele>
        <time>2022-06-01T07:11:12.000Z</time>
      </trkpt>
      <trkpt lat="41.54599229805171489715576171875" lon="2.1243824623525142669677734375">
        <ele>129.399993896484375</ele>
        <time>2022-06-01T07:11:15.000Z</time>
      </trkpt>
      <trkpt lat="41.54614484868943691253662109375" lon="2.12414869107306003570556640625">
        <ele>129.8000030517578125</ele>
        <time>2022-06-01T07:11:21.000Z</time>
      </trkpt>
      <trkpt lat="41.54626705683767795562744140625" lon="2.1238141693174839019775390625">
        <ele>130</ele>
        <time>2022-06-01T07:11:28.000Z</time>
      </trkpt>
      <trkpt lat="41.546377949416637420654296875" lon="2.12341611273586750030517578125">
        <ele>130.1999969482421875</ele>
        <time>2022-06-01T07:11:36.000Z</time>
      </trkpt>
      <trkpt lat="41.5464545600116252899169921875" lon="2.1231637336313724517822265625">
        <ele>130.399993896484375</ele>
        <time>2022-06-01T07:11:42.000Z</time>
      </trkpt>
      <trkpt lat="41.5465209446847438812255859375" lon="2.1229243464767932891845703125">
        <ele>130.399993896484375</ele>
        <time>2022-06-01T07:11:48.000Z</time>
      </trkpt>
      <trkpt lat="41.54653326608240604400634765625" lon="2.12288302369415760040283203125">
        <ele>130.600006103515625</ele>
        <time>2022-06-01T07:11:49.000Z</time>
      </trkpt>
      <trkpt lat="41.546611972153186798095703125" lon="2.12264363653957843780517578125">
        <ele>131</ele>
        <time>2022-06-01T07:11:55.000Z</time>
      </trkpt>
      <trkpt lat="41.54668875038623809814453125" lon="2.1223483420908451080322265625">
        <ele>131.1999969482421875</ele>
        <time>2022-06-01T07:12:02.000Z</time>
      </trkpt>
      <trkpt lat="41.54677734710276126861572265625" lon="2.12208339013159275054931640625">
        <ele>131.399993896484375</ele>
        <time>2022-06-01T07:12:09.000Z</time>
      </trkpt>
      <trkpt lat="41.5468074381351470947265625" lon="2.12201247923076152801513671875">
        <ele>131.600006103515625</ele>
        <time>2022-06-01T07:12:11.000Z</time>
      </trkpt>
      <trkpt lat="41.54689201153814792633056640625" lon="2.1218481101095676422119140625">
        <ele>131.8000030517578125</ele>
        <time>2022-06-01T07:12:16.000Z</time>
      </trkpt>
      <trkpt lat="41.54707322828471660614013671875" lon="2.12159204296767711639404296875">
        <ele>132.1999969482421875</ele>
        <time>2022-06-01T07:12:25.000Z</time>
      </trkpt>
      <trkpt lat="41.54718403704464435577392578125" lon="2.1214570105075836181640625">
        <ele>132.600006103515625</ele>
        <time>2022-06-01T07:12:30.000Z</time>
      </trkpt>
      <trkpt lat="41.5472508408129215240478515625" lon="2.12137629278004169464111328125">
        <ele>132.8000030517578125</ele>
        <time>2022-06-01T07:12:33.000Z</time>
      </trkpt>
      <trkpt lat="41.54751059599220752716064453125" lon="2.12106565944850444793701171875">
        <ele>133.600006103515625</ele>
        <time>2022-06-01T07:12:44.000Z</time>
      </trkpt>
      <trkpt lat="41.54756180942058563232421875" lon="2.121010087430477142333984375">
        <ele>133.600006103515625</ele>
        <time>2022-06-01T07:12:46.000Z</time>
      </trkpt>
      <trkpt lat="41.54766180552542209625244140625" lon="2.12089634500443935394287109375">
        <ele>134</ele>
        <time>2022-06-01T07:12:50.000Z</time>
      </trkpt>
      <trkpt lat="41.54788861982524394989013671875" lon="2.120691575109958648681640625">
        <ele>134.1999969482421875</ele>
        <time>2022-06-01T07:12:58.000Z</time>
      </trkpt>
      <trkpt lat="41.54811979271471500396728515625" lon="2.12050926871597766876220703125">
        <ele>134.399993896484375</ele>
        <time>2022-06-01T07:13:06.000Z</time>
      </trkpt>
      <trkpt lat="41.54829564504325389862060546875" lon="2.1203913353383541107177734375">
        <ele>134.600006103515625</ele>
        <time>2022-06-01T07:13:12.000Z</time>
      </trkpt>
      <trkpt lat="41.54838968999683856964111328125" lon="2.12034749798476696014404296875">
        <ele>134.8000030517578125</ele>
        <time>2022-06-01T07:13:15.000Z</time>
      </trkpt>
      <trkpt lat="41.54860829003155231475830078125" lon="2.12032486684620380401611328125">
        <ele>134.8000030517578125</ele>
        <time>2022-06-01T07:13:21.000Z</time>
      </trkpt>
      <trkpt lat="41.5489344298839569091796875" lon="2.120350934565067291259765625">
        <ele>135</ele>
        <time>2022-06-01T07:13:30.000Z</time>
      </trkpt>
      <trkpt lat="41.5492951869964599609375" lon="2.12040851823985576629638671875">
        <ele>135.1999969482421875</ele>
        <time>2022-06-01T07:13:40.000Z</time>
      </trkpt>
      <trkpt lat="41.54949744231998920440673828125" lon="2.120454870164394378662109375">
        <ele>135.1999969482421875</ele>
        <time>2022-06-01T07:13:46.000Z</time>
      </trkpt>
      <trkpt lat="41.5498743765056133270263671875" lon="2.1205485798418521881103515625">
        <ele>135.399993896484375</ele>
        <time>2022-06-01T07:13:57.000Z</time>
      </trkpt>
      <trkpt lat="41.550055928528308868408203125" lon="2.1205968596041202545166015625">
        <ele>135.600006103515625</ele>
        <time>2022-06-01T07:14:03.000Z</time>
      </trkpt>
      <trkpt lat="41.55013111419975757598876953125" lon="2.12061555124819278717041015625">
        <ele>135.8000030517578125</ele>
        <time>2022-06-01T07:14:06.000Z</time>
      </trkpt>
      <trkpt lat="41.55017687939107418060302734375" lon="2.120613791048526763916015625">
        <ele>135.8000030517578125</ele>
        <time>2022-06-01T07:14:08.000Z</time>
      </trkpt>
      <trkpt lat="41.55021945945918560028076171875" lon="2.12049904279410839080810546875">
        <ele>136</ele>
        <time>2022-06-01T07:14:13.000Z</time>
      </trkpt>
      <trkpt lat="41.55022281222045421600341796875" lon="2.12047322653234004974365234375">
        <ele>136</ele>
        <time>2022-06-01T07:14:14.000Z</time>
      </trkpt>
      <trkpt lat="41.55025918968021869659423828125" lon="2.1202850528061389923095703125">
        <ele>136</ele>
        <time>2022-06-01T07:14:20.000Z</time>
      </trkpt>
      <trkpt lat="41.55030696652829647064208984375" lon="2.12001456879079341888427734375">
        <ele>136</ele>
        <time>2022-06-01T07:14:28.000Z</time>
      </trkpt>
      <trkpt lat="41.55031501315534114837646484375" lon="2.11994969286024570465087890625">
        <ele>136</ele>
        <time>2022-06-01T07:14:31.000Z</time>
      </trkpt>
      <trkpt lat="41.5502847544848918914794921875" lon="2.11993125267326831817626953125">
        <ele>136.1999969482421875</ele>
        <time>2022-06-01T07:14:33.000Z</time>
      </trkpt>
      <trkpt lat="41.55019666068255901336669921875" lon="2.11985212750732898712158203125">
        <ele>136.1999969482421875</ele>
        <time>2022-06-01T07:14:38.000Z</time>
      </trkpt>
      <trkpt lat="41.55026505701243877410888671875" lon="2.1198320947587490081787109375">
        <ele>136.1999969482421875</ele>
        <time>2022-06-01T07:14:41.000Z</time>
      </trkpt>
      <trkpt lat="41.55031601898372173309326171875" lon="2.11986604146659374237060546875">
        <ele>136</ele>
        <time>2022-06-01T07:14:43.000Z</time>
      </trkpt>
      <trkpt lat="41.55042909085750579833984375" lon="2.11992345750331878662109375">
        <ele>135.600006103515625</ele>
        <time>2022-06-01T07:14:47.000Z</time>
      </trkpt>
      <trkpt lat="41.55062480829656124114990234375" lon="2.1199732460081577301025390625">
        <ele>135.600006103515625</ele>
        <time>2022-06-01T07:14:54.000Z</time>
      </trkpt>
      <trkpt lat="41.550816334784030914306640625" lon="2.1200631000101566314697265625">
        <ele>135.8000030517578125</ele>
        <time>2022-06-01T07:15:01.000Z</time>
      </trkpt>
      <trkpt lat="41.55108983628451824188232421875" lon="2.1201968751847743988037109375">
        <ele>136.1999969482421875</ele>
        <time>2022-06-01T07:15:11.000Z</time>
      </trkpt>
      <trkpt lat="41.55128597281873226165771484375" lon="2.12026954628527164459228515625">
        <ele>136.8000030517578125</ele>
        <time>2022-06-01T07:15:18.000Z</time>
      </trkpt>
      <trkpt lat="41.5513140521943569183349609375" lon="2.12027708999812602996826171875">
        <ele>137</ele>
        <time>2022-06-01T07:15:19.000Z</time>
      </trkpt>
      <trkpt lat="41.55146853066980838775634765625" lon="2.1203145571053028106689453125">
        <ele>137.1999969482421875</ele>
        <time>2022-06-01T07:15:25.000Z</time>
      </trkpt>
      <trkpt lat="41.551596857607364654541015625" lon="2.120316065847873687744140625">
        <ele>137.600006103515625</ele>
        <time>2022-06-01T07:15:31.000Z</time>
      </trkpt>
      <trkpt lat="41.5517106838524341583251953125" lon="2.12034917436540126800537109375">
        <ele>137.8000030517578125</ele>
        <time>2022-06-01T07:15:36.000Z</time>
      </trkpt>
      <trkpt lat="41.55174228362739086151123046875" lon="2.120364345610141754150390625">
        <ele>138</ele>
        <time>2022-06-01T07:15:37.000Z</time>
      </trkpt>
      <trkpt lat="41.551926434040069580078125" lon="2.1203953586518764495849609375">
        <ele>138</ele>
        <time>2022-06-01T07:15:42.000Z</time>
      </trkpt>
      <trkpt lat="41.55225827358663082122802734375" lon="2.120398543775081634521484375">
        <ele>138.600006103515625</ele>
        <time>2022-06-01T07:15:51.000Z</time>
      </trkpt>
      <trkpt lat="41.552527584135532379150390625" lon="2.1203705482184886932373046875">
        <ele>138.600006103515625</ele>
        <time>2022-06-01T07:15:59.000Z</time>
      </trkpt>
      <trkpt lat="41.552832014858722686767578125" lon="2.120309360325336456298828125">
        <ele>138.8000030517578125</ele>
        <time>2022-06-01T07:16:08.000Z</time>
      </trkpt>
      <trkpt lat="41.5528657101094722747802734375" lon="2.12030299007892608642578125">
        <ele>139</ele>
        <time>2022-06-01T07:16:09.000Z</time>
      </trkpt>
      <trkpt lat="41.55307953245937824249267578125" lon="2.1202438138425350189208984375">
        <ele>139.1999969482421875</ele>
        <time>2022-06-01T07:16:15.000Z</time>
      </trkpt>
      <trkpt lat="41.5533448196947574615478515625" lon="2.12013727985322475433349609375">
        <ele>139.600006103515625</ele>
        <time>2022-06-01T07:16:23.000Z</time>
      </trkpt>
      <trkpt lat="41.55355520546436309814453125" lon="2.1200379543006420135498046875">
        <ele>139.8000030517578125</ele>
        <time>2022-06-01T07:16:30.000Z</time>
      </trkpt>
      <trkpt lat="41.55373952351510524749755859375" lon="2.1199434064328670501708984375">
        <ele>139.8000030517578125</ele>
        <time>2022-06-01T07:16:36.000Z</time>
      </trkpt>
      <trkpt lat="41.5537987835705280303955078125" lon="2.119911722838878631591796875">
        <ele>140</ele>
        <time>2022-06-01T07:16:38.000Z</time>
      </trkpt>
      <trkpt lat="41.5539483167231082916259765625" lon="2.11981709115207195281982421875">
        <ele>140.399993896484375</ele>
        <time>2022-06-01T07:16:43.000Z</time>
      </trkpt>
      <trkpt lat="41.55419415794312953948974609375" lon="2.11965062655508518218994140625">
        <ele>140.8000030517578125</ele>
        <time>2022-06-01T07:16:51.000Z</time>
      </trkpt>
      <trkpt lat="41.55436456203460693359375" lon="2.1195125766098499298095703125">
        <ele>141</ele>
        <time>2022-06-01T07:16:57.000Z</time>
      </trkpt>
      <trkpt lat="41.554448045790195465087890625" lon="2.11944912560284137725830078125">
        <ele>141.1999969482421875</ele>
        <time>2022-06-01T07:17:00.000Z</time>
      </trkpt>
      <trkpt lat="41.554636470973491668701171875" lon="2.11925818584859371185302734375">
        <ele>141.399993896484375</ele>
        <time>2022-06-01T07:17:07.000Z</time>
      </trkpt>
      <trkpt lat="41.5548723377287387847900390625" lon="2.11900119669735431671142578125">
        <ele>141.8000030517578125</ele>
        <time>2022-06-01T07:17:16.000Z</time>
      </trkpt>
      <trkpt lat="41.55501826666295528411865234375" lon="2.118823416531085968017578125">
        <ele>142</ele>
        <time>2022-06-01T07:17:22.000Z</time>
      </trkpt>
      <trkpt lat="41.55513963662087917327880859375" lon="2.11867480538785457611083984375">
        <ele>142.1999969482421875</ele>
        <time>2022-06-01T07:17:27.000Z</time>
      </trkpt>
      <trkpt lat="41.55532286502420902252197265625" lon="2.11845134384930133819580078125">
        <ele>142.600006103515625</ele>
        <time>2022-06-01T07:17:34.000Z</time>
      </trkpt>
      <trkpt lat="41.55551950447261333465576171875" lon="2.1181808598339557647705078125">
        <ele>142.600006103515625</ele>
        <time>2022-06-01T07:17:42.000Z</time>
      </trkpt>
      <trkpt lat="41.55570155940949916839599609375" lon="2.117869555950164794921875">
        <ele>142.8000030517578125</ele>
        <time>2022-06-01T07:17:50.000Z</time>
      </trkpt>
      <trkpt lat="41.55587187968194484710693359375" lon="2.11756822653114795684814453125">
        <ele>142.8000030517578125</ele>
        <time>2022-06-01T07:17:58.000Z</time>
      </trkpt>
      <trkpt lat="41.556013785302639007568359375" lon="2.1172937192022800445556640625">
        <ele>142.8000030517578125</ele>
        <time>2022-06-01T07:18:06.000Z</time>
      </trkpt>
      <trkpt lat="41.55613138340413570404052734375" lon="2.11705156601965427398681640625">
        <ele>143.1999969482421875</ele>
        <time>2022-06-01T07:18:12.000Z</time>
      </trkpt>
      <trkpt lat="41.55617094598710536956787109375" lon="2.1169768832623958587646484375">
        <ele>143.1999969482421875</ele>
        <time>2022-06-01T07:18:14.000Z</time>
      </trkpt>
      <trkpt lat="41.55626515857875347137451171875" lon="2.11677479557693004608154296875">
        <ele>143.8000030517578125</ele>
        <time>2022-06-01T07:18:20.000Z</time>
      </trkpt>
      <trkpt lat="41.55634914524853229522705078125" lon="2.1166124381124973297119140625">
        <ele>144.1999969482421875</ele>
        <time>2022-06-01T07:18:26.000Z</time>
      </trkpt>
      <trkpt lat="41.55636222101747989654541015625" lon="2.1165882982313632965087890625">
        <ele>144.399993896484375</ele>
        <time>2022-06-01T07:18:27.000Z</time>
      </trkpt>
      <trkpt lat="41.55647881329059600830078125" lon="2.116445638239383697509765625">
        <ele>144.600006103515625</ele>
        <time>2022-06-01T07:18:31.000Z</time>
      </trkpt>
      <trkpt lat="41.556512676179409027099609375" lon="2.11640498600900173187255859375">
        <ele>144.600006103515625</ele>
        <time>2022-06-01T07:18:32.000Z</time>
      </trkpt>
      <trkpt lat="41.5566337108612060546875" lon="2.11621656082570552825927734375">
        <ele>144.600006103515625</ele>
        <time>2022-06-01T07:18:36.000Z</time>
      </trkpt>
      <trkpt lat="41.5568105690181255340576171875" lon="2.1159482561051845550537109375">
        <ele>144</ele>
        <time>2022-06-01T07:18:41.000Z</time>
      </trkpt>
      <trkpt lat="41.5568388998508453369140625" lon="2.115895114839076995849609375">
        <ele>143.8000030517578125</ele>
        <time>2022-06-01T07:18:42.000Z</time>
      </trkpt>
      <trkpt lat="41.55697426758706569671630859375" lon="2.1158060990273952484130859375">
        <ele>143.600006103515625</ele>
        <time>2022-06-01T07:18:46.000Z</time>
      </trkpt>
      <trkpt lat="41.55704744160175323486328125" lon="2.11586234159767627716064453125">
        <ele>143</ele>
        <time>2022-06-01T07:18:48.000Z</time>
      </trkpt>
      <trkpt lat="41.55707987956702709197998046875" lon="2.11588673293590545654296875">
        <ele>142.600006103515625</ele>
        <time>2022-06-01T07:18:49.000Z</time>
      </trkpt>
      <trkpt lat="41.5571354515850543975830078125" lon="2.1159264631569385528564453125">
        <ele>142.1999969482421875</ele>
        <time>2022-06-01T07:18:51.000Z</time>
      </trkpt>
      <trkpt lat="41.5572900138795375823974609375" lon="2.11601757444441318511962890625">
        <ele>142</ele>
        <time>2022-06-01T07:18:57.000Z</time>
      </trkpt>
      <trkpt lat="41.557312645018100738525390625" lon="2.1159987151622772216796875">
        <ele>142</ele>
        <time>2022-06-01T07:18:58.000Z</time>
      </trkpt>
      <trkpt lat="41.55737643130123615264892578125" lon="2.115809619426727294921875">
        <ele>142.399993896484375</ele>
        <time>2022-06-01T07:19:03.000Z</time>
      </trkpt>
      <trkpt lat="41.5574583224952220916748046875" lon="2.11560778319835662841796875">
        <ele>143.8000030517578125</ele>
        <time>2022-06-01T07:19:10.000Z</time>
      </trkpt>
      <trkpt lat="41.55748237855732440948486328125" lon="2.1155472658574581146240234375">
        <ele>144.1999969482421875</ele>
        <time>2022-06-01T07:19:12.000Z</time>
      </trkpt>
      <trkpt lat="41.5575270541012287139892578125" lon="2.11543587036430835723876953125">
        <ele>145</ele>
        <time>2022-06-01T07:19:16.000Z</time>
      </trkpt>
      <trkpt lat="41.557558067142963409423828125" lon="2.1153829805552959442138671875">
        <ele>145.1999969482421875</ele>
        <time>2022-06-01T07:19:18.000Z</time>
      </trkpt>
      <trkpt lat="41.55763995833694934844970703125" lon="2.1152076311409473419189453125">
        <ele>145.600006103515625</ele>
        <time>2022-06-01T07:19:24.000Z</time>
      </trkpt>
      <trkpt lat="41.55774657614529132843017578125" lon="2.11505734361708164215087890625">
        <ele>145.600006103515625</ele>
        <time>2022-06-01T07:19:30.000Z</time>
      </trkpt>
      <trkpt lat="41.5578995458781719207763671875" lon="2.11484913714230060577392578125">
        <ele>145.8000030517578125</ele>
        <time>2022-06-01T07:19:38.000Z</time>
      </trkpt>
      <trkpt lat="41.55801731161773204803466796875" lon="2.11471435613930225372314453125">
        <ele>145.8000030517578125</ele>
        <time>2022-06-01T07:19:44.000Z</time>
      </trkpt>
      <trkpt lat="41.55813968740403652191162109375" lon="2.1145937405526638031005859375">
        <ele>146</ele>
        <time>2022-06-01T07:19:49.000Z</time>
      </trkpt>
      <trkpt lat="41.55831889249384403228759765625" lon="2.11440741084516048431396484375">
        <ele>146.399993896484375</ele>
        <time>2022-06-01T07:19:56.000Z</time>
      </trkpt>
      <trkpt lat="41.55849306844174861907958984375" lon="2.11421881802380084991455078125">
        <ele>146.600006103515625</ele>
        <time>2022-06-01T07:20:03.000Z</time>
      </trkpt>
      <trkpt lat="41.5586408413946628570556640625" lon="2.1141139604151248931884765625">
        <ele>146.8000030517578125</ele>
        <time>2022-06-01T07:20:08.000Z</time>
      </trkpt>
      <trkpt lat="41.558669507503509521484375" lon="2.1140961907804012298583984375">
        <ele>146.8000030517578125</ele>
        <time>2022-06-01T07:20:09.000Z</time>
      </trkpt>
      <trkpt lat="41.5588778816163539886474609375" lon="2.1139951050281524658203125">
        <ele>147</ele>
        <time>2022-06-01T07:20:16.000Z</time>
      </trkpt>
      <trkpt lat="41.559136547148227691650390625" lon="2.11389225907623767852783203125">
        <ele>147.399993896484375</ele>
        <time>2022-06-01T07:20:23.000Z</time>
      </trkpt>
      <trkpt lat="41.559377945959568023681640625" lon="2.11375446058809757232666015625">
        <ele>147.600006103515625</ele>
        <time>2022-06-01T07:20:30.000Z</time>
      </trkpt>
      <trkpt lat="41.559605933725833892822265625" lon="2.11362437345087528228759765625">
        <ele>147.8000030517578125</ele>
        <time>2022-06-01T07:20:37.000Z</time>
      </trkpt>
      <trkpt lat="41.5597998909652233123779296875" lon="2.1134896762669086456298828125">
        <ele>148</ele>
        <time>2022-06-01T07:20:43.000Z</time>
      </trkpt>
      <trkpt lat="41.560023687779903411865234375" lon="2.1132735908031463623046875">
        <ele>148.1999969482421875</ele>
        <time>2022-06-01T07:20:50.000Z</time>
      </trkpt>
      <trkpt lat="41.5601448900997638702392578125" lon="2.11306773126125335693359375">
        <ele>148.1999969482421875</ele>
        <time>2022-06-01T07:20:55.000Z</time>
      </trkpt>
      <trkpt lat="41.56016492284834384918212890625" lon="2.11302506737411022186279296875">
        <ele>148.1999969482421875</ele>
        <time>2022-06-01T07:20:56.000Z</time>
      </trkpt>
      <trkpt lat="41.56028210185468196868896484375" lon="2.112676799297332763671875">
        <ele>148.600006103515625</ele>
        <time>2022-06-01T07:21:04.000Z</time>
      </trkpt>
      <trkpt lat="41.56031361781060695648193359375" lon="2.1123353205621242523193359375">
        <ele>148.8000030517578125</ele>
        <time>2022-06-01T07:21:11.000Z</time>
      </trkpt>
      <trkpt lat="41.5602699480950832366943359375" lon="2.11205109022557735443115234375">
        <ele>149.1999969482421875</ele>
        <time>2022-06-01T07:21:17.000Z</time>
      </trkpt>
      <trkpt lat="41.56024438329041004180908203125" lon="2.111928127706050872802734375">
        <ele>149.399993896484375</ele>
        <time>2022-06-01T07:21:20.000Z</time>
      </trkpt>
      <trkpt lat="41.5601804293692111968994140625" lon="2.111743055284023284912109375">
        <ele>149.600006103515625</ele>
        <time>2022-06-01T07:21:26.000Z</time>
      </trkpt>
      <trkpt lat="41.56008177436888217926025390625" lon="2.11156326346099376678466796875">
        <ele>149.8000030517578125</ele>
        <time>2022-06-01T07:21:32.000Z</time>
      </trkpt>
      <trkpt lat="41.55998370610177516937255859375" lon="2.11136612109839916229248046875">
        <ele>150.1999969482421875</ele>
        <time>2022-06-01T07:21:38.000Z</time>
      </trkpt>
      <trkpt lat="41.55990801751613616943359375" lon="2.11119948886334896087646484375">
        <ele>150.399993896484375</ele>
        <time>2022-06-01T07:21:43.000Z</time>
      </trkpt>
      <trkpt lat="41.55977231450378894805908203125" lon="2.11095012724399566650390625">
        <ele>150.8000030517578125</ele>
        <time>2022-06-01T07:21:50.000Z</time>
      </trkpt>
      <trkpt lat="41.5596480108797550201416015625" lon="2.1107243187725543975830078125">
        <ele>151.1999969482421875</ele>
        <time>2022-06-01T07:21:56.000Z</time>
      </trkpt>
      <trkpt lat="41.55957500450313091278076171875" lon="2.1105362288653850555419921875">
        <ele>151.399993896484375</ele>
        <time>2022-06-01T07:22:01.000Z</time>
      </trkpt>
      <trkpt lat="41.5595511160790920257568359375" lon="2.1104617975652217864990234375">
        <ele>151.600006103515625</ele>
        <time>2022-06-01T07:22:03.000Z</time>
      </trkpt>
      <trkpt lat="41.55952085740864276885986328125" lon="2.110351659357547760009765625">
        <ele>151.600006103515625</ele>
        <time>2022-06-01T07:22:06.000Z</time>
      </trkpt>
      <trkpt lat="41.55944759957492351531982421875" lon="2.11008268408477306365966796875">
        <ele>151.8000030517578125</ele>
        <time>2022-06-01T07:22:13.000Z</time>
      </trkpt>
      <trkpt lat="41.55941591598093509674072265625" lon="2.109825611114501953125">
        <ele>152.1999969482421875</ele>
        <time>2022-06-01T07:22:18.000Z</time>
      </trkpt>
      <trkpt lat="41.55944759957492351531982421875" lon="2.1095560491085052490234375">
        <ele>152.399993896484375</ele>
        <time>2022-06-01T07:22:24.000Z</time>
      </trkpt>
      <trkpt lat="41.55951817519962787628173828125" lon="2.10933501832187175750732421875">
        <ele>152.399993896484375</ele>
        <time>2022-06-01T07:22:29.000Z</time>
      </trkpt>
      <trkpt lat="41.55958657152950763702392578125" lon="2.10919219069182872772216796875">
        <ele>152.600006103515625</ele>
        <time>2022-06-01T07:22:33.000Z</time>
      </trkpt>
      <trkpt lat="41.55966402031481266021728515625" lon="2.10904081352055072784423828125">
        <ele>152.8000030517578125</ele>
        <time>2022-06-01T07:22:37.000Z</time>
      </trkpt>
      <trkpt lat="41.5597824566066265106201171875" lon="2.10892329923808574676513671875">
        <ele>153</ele>
        <time>2022-06-01T07:22:42.000Z</time>
      </trkpt>
      <trkpt lat="41.55993374995887279510498046875" lon="2.1088541485369205474853515625">
        <ele>153.1999969482421875</ele>
        <time>2022-06-01T07:22:47.000Z</time>
      </trkpt>
      <trkpt lat="41.5601648390293121337890625" lon="2.10882690735161304473876953125">
        <ele>153.399993896484375</ele>
        <time>2022-06-01T07:22:54.000Z</time>
      </trkpt>
      <trkpt lat="41.56047203578054904937744140625" lon="2.1088464371860027313232421875">
        <ele>153.399993896484375</ele>
        <time>2022-06-01T07:23:02.000Z</time>
      </trkpt>
      <trkpt lat="41.56066297553479671478271484375" lon="2.1088913641870021820068359375">
        <ele>153.600006103515625</ele>
        <time>2022-06-01T07:23:07.000Z</time>
      </trkpt>
      <trkpt lat="41.560740172863006591796875" lon="2.10892179049551486968994140625">
        <ele>153.600006103515625</ele>
        <time>2022-06-01T07:23:09.000Z</time>
      </trkpt>
      <trkpt lat="41.5608637221157550811767578125" lon="2.108970321714878082275390625">
        <ele>153.8000030517578125</ele>
        <time>2022-06-01T07:23:12.000Z</time>
      </trkpt>
      <trkpt lat="41.56094796024262905120849609375" lon="2.10899890400469303131103515625">
        <ele>153.8000030517578125</ele>
        <time>2022-06-01T07:23:14.000Z</time>
      </trkpt>
      <trkpt lat="41.56120846979320049285888671875" lon="2.10909864865243434906005859375">
        <ele>153.600006103515625</ele>
        <time>2022-06-01T07:23:21.000Z</time>
      </trkpt>
      <trkpt lat="41.561354063451290130615234375" lon="2.109119184315204620361328125">
        <ele>153.600006103515625</ele>
        <time>2022-06-01T07:23:25.000Z</time>
      </trkpt>
      <trkpt lat="41.5613857470452785491943359375" lon="2.10909060202538967132568359375">
        <ele>153.600006103515625</ele>
        <time>2022-06-01T07:23:26.000Z</time>
      </trkpt>
      <trkpt lat="41.5614491142332553863525390625" lon="2.1089483611285686492919921875">
        <ele>153.399993896484375</ele>
        <time>2022-06-01T07:23:29.000Z</time>
      </trkpt>
      <trkpt lat="41.56157811172306537628173828125" lon="2.10857930593192577362060546875">
        <ele>153.1999969482421875</ele>
        <time>2022-06-01T07:23:35.000Z</time>
      </trkpt>
      <trkpt lat="41.5616707317531108856201171875" lon="2.10829733870923519134521484375">
        <ele>152.600006103515625</ele>
        <time>2022-06-01T07:23:41.000Z</time>
      </trkpt>
      <trkpt lat="41.5617210231721401214599609375" lon="2.1081715263426303863525390625">
        <ele>152.600006103515625</ele>
        <time>2022-06-01T07:23:45.000Z</time>
      </trkpt>
      <trkpt lat="41.56181783415377140045166015625" lon="2.1081262640655040740966796875">
        <ele>153.399993896484375</ele>
        <time>2022-06-01T07:23:50.000Z</time>
      </trkpt>
      <trkpt lat="41.56191456131637096405029296875" lon="2.1081715263426303863525390625">
        <ele>154.600006103515625</ele>
        <time>2022-06-01T07:23:55.000Z</time>
      </trkpt>
      <trkpt lat="41.5619319118559360504150390625" lon="2.108187116682529449462890625">
        <ele>154.8000030517578125</ele>
        <time>2022-06-01T07:23:56.000Z</time>
      </trkpt>
      <trkpt lat="41.5620244480669498443603515625" lon="2.10827386938035488128662109375">
        <ele>156</ele>
        <time>2022-06-01T07:24:01.000Z</time>
      </trkpt>
      <trkpt lat="41.56204573810100555419921875" lon="2.108290381729602813720703125">
        <ele>156.1999969482421875</ele>
        <time>2022-06-01T07:24:02.000Z</time>
      </trkpt>
      <trkpt lat="41.5622118674218654632568359375" lon="2.1083800680935382843017578125">
        <ele>156.8000030517578125</ele>
        <time>2022-06-01T07:24:08.000Z</time>
      </trkpt>
      <trkpt lat="41.56243222765624523162841796875" lon="2.10848676972091197967529296875">
        <ele>157</ele>
        <time>2022-06-01T07:24:15.000Z</time>
      </trkpt>
      <trkpt lat="41.56261780299246311187744140625" lon="2.108599506318569183349609375">
        <ele>157</ele>
        <time>2022-06-01T07:24:21.000Z</time>
      </trkpt>
      <trkpt lat="41.56281544826924800872802734375" lon="2.10872414521872997283935546875">
        <ele>157.1999969482421875</ele>
        <time>2022-06-01T07:24:28.000Z</time>
      </trkpt>
      <trkpt lat="41.5629736147820949554443359375" lon="2.10875482298433780670166015625">
        <ele>157.399993896484375</ele>
        <time>2022-06-01T07:24:33.000Z</time>
      </trkpt>
      <trkpt lat="41.5631677396595478057861328125" lon="2.1088417433202266693115234375">
        <ele>157.600006103515625</ele>
        <time>2022-06-01T07:24:39.000Z</time>
      </trkpt>
      <trkpt lat="41.56352908350527286529541015625" lon="2.10897736251354217529296875">
        <ele>157.8000030517578125</ele>
        <time>2022-06-01T07:24:49.000Z</time>
      </trkpt>
      <trkpt lat="41.56363955698907375335693359375" lon="2.10902187041938304901123046875">
        <ele>158</ele>
        <time>2022-06-01T07:24:52.000Z</time>
      </trkpt>
      <trkpt lat="41.56378573738038539886474609375" lon="2.10909001529216766357421875">
        <ele>158.1999969482421875</ele>
        <time>2022-06-01T07:24:56.000Z</time>
      </trkpt>
      <trkpt lat="41.56411665491759777069091796875" lon="2.109241895377635955810546875">
        <ele>158.1999969482421875</ele>
        <time>2022-06-01T07:25:05.000Z</time>
      </trkpt>
      <trkpt lat="41.5643257834017276763916015625" lon="2.10937474854290485382080078125">
        <ele>158.399993896484375</ele>
        <time>2022-06-01T07:25:11.000Z</time>
      </trkpt>
      <trkpt lat="41.564519740641117095947265625" lon="2.109455130994319915771484375">
        <ele>159</ele>
        <time>2022-06-01T07:25:17.000Z</time>
      </trkpt>
      <trkpt lat="41.56455368734896183013916015625" lon="2.10946342907845973968505859375">
        <ele>159.1999969482421875</ele>
        <time>2022-06-01T07:25:18.000Z</time>
      </trkpt>
      <trkpt lat="41.56465561129152774810791015625" lon="2.10947759449481964111328125">
        <ele>160.1999969482421875</ele>
        <time>2022-06-01T07:25:21.000Z</time>
      </trkpt>
      <trkpt lat="41.56475476920604705810546875" lon="2.1094831265509128570556640625">
        <ele>160.8000030517578125</ele>
        <time>2022-06-01T07:25:24.000Z</time>
      </trkpt>
      <trkpt lat="41.56487102620303630828857421875" lon="2.1094579808413982391357421875">
        <ele>161.1999969482421875</ele>
        <time>2022-06-01T07:25:28.000Z</time>
      </trkpt>
      <trkpt lat="41.56491779722273349761962890625" lon="2.109437026083469390869140625">
        <ele>161.399993896484375</ele>
        <time>2022-06-01T07:25:30.000Z</time>
      </trkpt>
      <trkpt lat="41.5650841780006885528564453125" lon="2.1093500219285488128662109375">
        <ele>162.1999969482421875</ele>
        <time>2022-06-01T07:25:37.000Z</time>
      </trkpt>
      <trkpt lat="41.56521803699433803558349609375" lon="2.1092715673148632049560546875">
        <ele>162.8000030517578125</ele>
        <time>2022-06-01T07:25:42.000Z</time>
      </trkpt>
      <trkpt lat="41.565436385571956634521484375" lon="2.109230495989322662353515625">
        <ele>162.8000030517578125</ele>
        <time>2022-06-01T07:25:49.000Z</time>
      </trkpt>
      <trkpt lat="41.565680466592311859130859375" lon="2.1092610061168670654296875">
        <ele>162.8000030517578125</ele>
        <time>2022-06-01T07:25:56.000Z</time>
      </trkpt>
      <trkpt lat="41.56588741578161716461181640625" lon="2.10938598029315471649169921875">
        <ele>162.8000030517578125</ele>
        <time>2022-06-01T07:26:03.000Z</time>
      </trkpt>
      <trkpt lat="41.56592111103236675262451171875" lon="2.10932613350450992584228515625">
        <ele>162.600006103515625</ele>
        <time>2022-06-01T07:26:06.000Z</time>
      </trkpt>
      <trkpt lat="41.5659880824387073516845703125" lon="2.1091518737375736236572265625">
        <ele>162.399993896484375</ele>
        <time>2022-06-01T07:26:11.000Z</time>
      </trkpt>
      <trkpt lat="41.5661255456507205963134765625" lon="2.10888708941638469696044921875">
        <ele>162.1999969482421875</ele>
        <time>2022-06-01T07:26:17.000Z</time>
      </trkpt>
      <trkpt lat="41.56627214513719081878662109375" lon="2.10859271697700023651123046875">
        <ele>161.399993896484375</ele>
        <time>2022-06-01T07:26:24.000Z</time>
      </trkpt>
      <trkpt lat="41.566413380205631256103515625" lon="2.10832692682743072509765625">
        <ele>161.399993896484375</ele>
        <time>2022-06-01T07:26:31.000Z</time>
      </trkpt>
      <trkpt lat="41.56656735576689243316650390625" lon="2.1080320514738559722900390625">
        <ele>161.8000030517578125</ele>
        <time>2022-06-01T07:26:39.000Z</time>
      </trkpt>
      <trkpt lat="41.5666824392974376678466796875" lon="2.10782208479940891265869140625">
        <ele>162</ele>
        <time>2022-06-01T07:26:45.000Z</time>
      </trkpt>
      <trkpt lat="41.56680263578891754150390625" lon="2.10758655332028865814208984375">
        <ele>162.1999969482421875</ele>
        <time>2022-06-01T07:26:52.000Z</time>
      </trkpt>
      <trkpt lat="41.566906236112117767333984375" lon="2.1074218489229679107666015625">
        <ele>162.8000030517578125</ele>
        <time>2022-06-01T07:26:57.000Z</time>
      </trkpt>
      <trkpt lat="41.56702919863164424896240234375" lon="2.10722780786454677581787109375">
        <ele>162.8000030517578125</ele>
        <time>2022-06-01T07:27:03.000Z</time>
      </trkpt>
      <trkpt lat="41.5671895444393157958984375" lon="2.10703141987323760986328125">
        <ele>163.1999969482421875</ele>
        <time>2022-06-01T07:27:10.000Z</time>
      </trkpt>
      <trkpt lat="41.5672115050256252288818359375" lon="2.10700803436338901519775390625">
        <ele>163.399993896484375</ele>
        <time>2022-06-01T07:27:11.000Z</time>
      </trkpt>
      <trkpt lat="41.5672996826469898223876953125" lon="2.10691650398075580596923828125">
        <ele>163.399993896484375</ele>
        <time>2022-06-01T07:27:15.000Z</time>
      </trkpt>
      <trkpt lat="41.5673880279064178466796875" lon="2.1068183518946170806884765625">
        <ele>163.600006103515625</ele>
        <time>2022-06-01T07:27:19.000Z</time>
      </trkpt>
      <trkpt lat="41.567527838051319122314453125" lon="2.10666806437075138092041015625">
        <ele>163.600006103515625</ele>
        <time>2022-06-01T07:27:25.000Z</time>
      </trkpt>
      <trkpt lat="41.56773797236382961273193359375" lon="2.10647494532167911529541015625">
        <ele>163.8000030517578125</ele>
        <time>2022-06-01T07:27:32.000Z</time>
      </trkpt>
      <trkpt lat="41.56794668175280094146728515625" lon="2.1063094027340412139892578125">
        <ele>164.1999969482421875</ele>
        <time>2022-06-01T07:27:39.000Z</time>
      </trkpt>
      <trkpt lat="41.5680319257080554962158203125" lon="2.1062413416802883148193359375">
        <ele>164.399993896484375</ele>
        <time>2022-06-01T07:27:42.000Z</time>
      </trkpt>
      <trkpt lat="41.56819202005863189697265625" lon="2.10611988790333271026611328125">
        <ele>165</ele>
        <time>2022-06-01T07:27:47.000Z</time>
      </trkpt>
      <trkpt lat="41.5683729015290737152099609375" lon="2.105978988111019134521484375">
        <ele>165.1999969482421875</ele>
        <time>2022-06-01T07:27:53.000Z</time>
      </trkpt>
      <trkpt lat="41.56855269335210323333740234375" lon="2.1058054827153682708740234375">
        <ele>165.399993896484375</ele>
        <time>2022-06-01T07:27:59.000Z</time>
      </trkpt>
      <trkpt lat="41.56861471943557262420654296875" lon="2.1057401038706302642822265625">
        <ele>165.600006103515625</ele>
        <time>2022-06-01T07:28:01.000Z</time>
      </trkpt>
      <trkpt lat="41.56876894645392894744873046875" lon="2.1055756509304046630859375">
        <ele>165.600006103515625</ele>
        <time>2022-06-01T07:28:06.000Z</time>
      </trkpt>
      <trkpt lat="41.56898519955575466156005859375" lon="2.10537389852106571197509765625">
        <ele>166</ele>
        <time>2022-06-01T07:28:13.000Z</time>
      </trkpt>
      <trkpt lat="41.56925174407660961151123046875" lon="2.10514591075479984283447265625">
        <ele>165.8000030517578125</ele>
        <time>2022-06-01T07:28:21.000Z</time>
      </trkpt>
      <trkpt lat="41.56950269825756549835205078125" lon="2.10496234707534313201904296875">
        <ele>165.8000030517578125</ele>
        <time>2022-06-01T07:28:28.000Z</time>
      </trkpt>
      <trkpt lat="41.569615267217159271240234375" lon="2.10490484721958637237548828125">
        <ele>165.8000030517578125</ele>
        <time>2022-06-01T07:28:31.000Z</time>
      </trkpt>
      <trkpt lat="41.5697381459176540374755859375" lon="2.10481859743595123291015625">
        <ele>165.8000030517578125</ele>
        <time>2022-06-01T07:28:34.000Z</time>
      </trkpt>
      <trkpt lat="41.56996454112231731414794921875" lon="2.10463352501392364501953125">
        <ele>165.1999969482421875</ele>
        <time>2022-06-01T07:28:40.000Z</time>
      </trkpt>
      <trkpt lat="41.5700662136077880859375" lon="2.10441299714148044586181640625">
        <ele>165</ele>
        <time>2022-06-01T07:28:45.000Z</time>
      </trkpt>
      <trkpt lat="41.5701793693006038665771484375" lon="2.104169167578220367431640625">
        <ele>165.399993896484375</ele>
        <time>2022-06-01T07:28:51.000Z</time>
      </trkpt>
      <trkpt lat="41.5702776052057743072509765625" lon="2.10404017008841037750244140625">
        <ele>166.399993896484375</ele>
        <time>2022-06-01T07:28:55.000Z</time>
      </trkpt>
      <trkpt lat="41.57029897905886173248291015625" lon="2.1040053851902484893798828125">
        <ele>166.600006103515625</ele>
        <time>2022-06-01T07:28:56.000Z</time>
      </trkpt>
      <trkpt lat="41.5704620070755481719970703125" lon="2.10372693836688995361328125">
        <ele>167.1999969482421875</ele>
        <time>2022-06-01T07:29:04.000Z</time>
      </trkpt>
      <trkpt lat="41.5706340037286281585693359375" lon="2.103396691381931304931640625">
        <ele>167.399993896484375</ele>
        <time>2022-06-01T07:29:13.000Z</time>
      </trkpt>
      <trkpt lat="41.57066677697002887725830078125" lon="2.10332301445305347442626953125">
        <ele>167.600006103515625</ele>
        <time>2022-06-01T07:29:15.000Z</time>
      </trkpt>
      <trkpt lat="41.57080449163913726806640625" lon="2.10302914492785930633544921875">
        <ele>168</ele>
        <time>2022-06-01T07:29:23.000Z</time>
      </trkpt>
      <trkpt lat="41.57090775668621063232421875" lon="2.10277684964239597320556640625">
        <ele>168.399993896484375</ele>
        <time>2022-06-01T07:29:30.000Z</time>
      </trkpt>
      <trkpt lat="41.5709488280117511749267578125" lon="2.10267676971852779388427734375">
        <ele>168.600006103515625</ele>
        <time>2022-06-01T07:29:33.000Z</time>
      </trkpt>
      <trkpt lat="41.571001969277858734130859375" lon="2.102535702288150787353515625">
        <ele>169.1999969482421875</ele>
        <time>2022-06-01T07:29:37.000Z</time>
      </trkpt>
      <trkpt lat="41.57114571891725063323974609375" lon="2.10217620246112346649169921875">
        <ele>169.600006103515625</ele>
        <time>2022-06-01T07:29:47.000Z</time>
      </trkpt>
      <trkpt lat="41.57117639668285846710205078125" lon="2.10210730321705341339111328125">
        <ele>169.8000030517578125</ele>
        <time>2022-06-01T07:29:49.000Z</time>
      </trkpt>
      <trkpt lat="41.57126055099070072174072265625" lon="2.1019474603235721588134765625">
        <ele>170.1999969482421875</ele>
        <time>2022-06-01T07:29:54.000Z</time>
      </trkpt>
      <trkpt lat="41.57142315991222858428955078125" lon="2.10169851779937744140625">
        <ele>170.8000030517578125</ele>
        <time>2022-06-01T07:30:02.000Z</time>
      </trkpt>
      <trkpt lat="41.57143975608050823211669921875" lon="2.10166742093861103057861328125">
        <ele>170.8000030517578125</ele>
        <time>2022-06-01T07:30:03.000Z</time>
      </trkpt>
      <trkpt lat="41.5715402550995349884033203125" lon="2.10147262550890445709228515625">
        <ele>171.1999969482421875</ele>
        <time>2022-06-01T07:30:09.000Z</time>
      </trkpt>
      <trkpt lat="41.5716073103249073028564453125" lon="2.10123692639172077178955078125">
        <ele>171.600006103515625</ele>
        <time>2022-06-01T07:30:15.000Z</time>
      </trkpt>
      <trkpt lat="41.57164427451789379119873046875" lon="2.1010442264378070831298828125">
        <ele>172</ele>
        <time>2022-06-01T07:30:20.000Z</time>
      </trkpt>
      <trkpt lat="41.57166103832423686981201171875" lon="2.10097557865083217620849609375">
        <ele>172</ele>
        <time>2022-06-01T07:30:22.000Z</time>
      </trkpt>
      <trkpt lat="41.57178056426346302032470703125" lon="2.10077122785151004791259765625">
        <ele>172.399993896484375</ele>
        <time>2022-06-01T07:30:29.000Z</time>
      </trkpt>
      <trkpt lat="41.57187561504542827606201171875" lon="2.100583054125308990478515625">
        <ele>172.399993896484375</ele>
        <time>2022-06-01T07:30:35.000Z</time>
      </trkpt>
      <trkpt lat="41.57199581153690814971923828125" lon="2.1003766916692256927490234375">
        <ele>173</ele>
        <time>2022-06-01T07:30:42.000Z</time>
      </trkpt>
      <trkpt lat="41.57201550900936126708984375" lon="2.10034668445587158203125">
        <ele>172.8000030517578125</ele>
        <time>2022-06-01T07:30:43.000Z</time>
      </trkpt>
      <trkpt lat="41.57212640158832073211669921875" lon="2.10016286931931972503662109375">
        <ele>173.1999969482421875</ele>
        <time>2022-06-01T07:30:49.000Z</time>
      </trkpt>
      <trkpt lat="41.57225933857262134552001953125" lon="2.09996254183351993560791015625">
        <ele>173.8000030517578125</ele>
        <time>2022-06-01T07:30:56.000Z</time>
      </trkpt>
      <trkpt lat="41.5722991526126861572265625" lon="2.09989682771265506744384765625">
        <ele>173.8000030517578125</ele>
        <time>2022-06-01T07:30:58.000Z</time>
      </trkpt>
      <trkpt lat="41.5723814629018306732177734375" lon="2.09974545054137706756591796875">
        <ele>174</ele>
        <time>2022-06-01T07:31:02.000Z</time>
      </trkpt>
      <trkpt lat="41.5725038386881351470947265625" lon="2.09951855242252349853515625">
        <ele>174</ele>
        <time>2022-06-01T07:31:08.000Z</time>
      </trkpt>
      <trkpt lat="41.5726671181619167327880859375" lon="2.09926835261285305023193359375">
        <ele>174.1999969482421875</ele>
        <time>2022-06-01T07:31:15.000Z</time>
      </trkpt>
      <trkpt lat="41.5727992169559001922607421875" lon="2.09903969429433345794677734375">
        <ele>174.1999969482421875</ele>
        <time>2022-06-01T07:31:21.000Z</time>
      </trkpt>
      <trkpt lat="41.57295637764036655426025390625" lon="2.0987381972372531890869140625">
        <ele>174.8000030517578125</ele>
        <time>2022-06-01T07:31:29.000Z</time>
      </trkpt>
      <trkpt lat="41.5729738958179950714111328125" lon="2.098699472844600677490234375">
        <ele>175</ele>
        <time>2022-06-01T07:31:30.000Z</time>
      </trkpt>
      <trkpt lat="41.573090068995952606201171875" lon="2.09841909818351268768310546875">
        <ele>175.1999969482421875</ele>
        <time>2022-06-01T07:31:37.000Z</time>
      </trkpt>
      <trkpt lat="41.57321873120963573455810546875" lon="2.09821608848869800567626953125">
        <ele>175.399993896484375</ele>
        <time>2022-06-01T07:31:43.000Z</time>
      </trkpt>
      <trkpt lat="41.57334177754819393157958984375" lon="2.09803068079054355621337890625">
        <ele>175.8000030517578125</ele>
        <time>2022-06-01T07:31:49.000Z</time>
      </trkpt>
      <trkpt lat="41.57339542172849178314208984375" lon="2.0979412458837032318115234375">
        <ele>176</ele>
        <time>2022-06-01T07:31:52.000Z</time>
      </trkpt>
      <trkpt lat="41.5734503231942653656005859375" lon="2.09783772937953472137451171875">
        <ele>176</ele>
        <time>2022-06-01T07:31:55.000Z</time>
      </trkpt>
      <trkpt lat="41.573573537170886993408203125" lon="2.09754017181694507598876953125">
        <ele>176.600006103515625</ele>
        <time>2022-06-01T07:32:03.000Z</time>
      </trkpt>
      <trkpt lat="41.57370940782129764556884765625" lon="2.0972750522196292877197265625">
        <ele>176.8000030517578125</ele>
        <time>2022-06-01T07:32:10.000Z</time>
      </trkpt>
      <trkpt lat="41.57380529679358005523681640625" lon="2.09704597480595111846923828125">
        <ele>176.8000030517578125</ele>
        <time>2022-06-01T07:32:16.000Z</time>
      </trkpt>
      <trkpt lat="41.57388031482696533203125" lon="2.09690096788108348846435546875">
        <ele>177</ele>
        <time>2022-06-01T07:32:20.000Z</time>
      </trkpt>
      <trkpt lat="41.5739123336970806121826171875" lon="2.09682301618158817291259765625">
        <ele>177</ele>
        <time>2022-06-01T07:32:22.000Z</time>
      </trkpt>
      <trkpt lat="41.574017107486724853515625" lon="2.0966313220560550689697265625">
        <ele>177.1999969482421875</ele>
        <time>2022-06-01T07:32:28.000Z</time>
      </trkpt>
      <trkpt lat="41.5741208754479885101318359375" lon="2.0964398793876171112060546875">
        <ele>177.600006103515625</ele>
        <time>2022-06-01T07:32:34.000Z</time>
      </trkpt>
      <trkpt lat="41.57423277385532855987548828125" lon="2.09624080918729305267333984375">
        <ele>177.8000030517578125</ele>
        <time>2022-06-01T07:32:40.000Z</time>
      </trkpt>
      <trkpt lat="41.57432313077151775360107421875" lon="2.0961149968206882476806640625">
        <ele>178</ele>
        <time>2022-06-01T07:32:44.000Z</time>
      </trkpt>
      <trkpt lat="41.57440208829939365386962890625" lon="2.0959813892841339111328125">
        <ele>178</ele>
        <time>2022-06-01T07:32:48.000Z</time>
      </trkpt>
      <trkpt lat="41.5745540522038936614990234375" lon="2.095715515315532684326171875">
        <ele>178.399993896484375</ele>
        <time>2022-06-01T07:32:56.000Z</time>
      </trkpt>
      <trkpt lat="41.57471708022058010101318359375" lon="2.09545634686946868896484375">
        <ele>178.600006103515625</ele>
        <time>2022-06-01T07:33:04.000Z</time>
      </trkpt>
      <trkpt lat="41.57478765584528446197509765625" lon="2.0952714420855045318603515625">
        <ele>178.8000030517578125</ele>
        <time>2022-06-01T07:33:10.000Z</time>
      </trkpt>
      <trkpt lat="41.5748420543968677520751953125" lon="2.0951410196721553802490234375">
        <ele>179.1999969482421875</ele>
        <time>2022-06-01T07:33:15.000Z</time>
      </trkpt>
      <trkpt lat="41.574855633080005645751953125" lon="2.09511478431522846221923828125">
        <ele>179.399993896484375</ele>
        <time>2022-06-01T07:33:16.000Z</time>
      </trkpt>
      <trkpt lat="41.57497239299118518829345703125" lon="2.09496173076331615447998046875">
        <ele>180.1999969482421875</ele>
        <time>2022-06-01T07:33:22.000Z</time>
      </trkpt>
      <trkpt lat="41.574993766844272613525390625" lon="2.09493021480739116668701171875">
        <ele>180.399993896484375</ele>
        <time>2022-06-01T07:33:23.000Z</time>
      </trkpt>
      <trkpt lat="41.57515679486095905303955078125" lon="2.0946806855499744415283203125">
        <ele>180.399993896484375</ele>
        <time>2022-06-01T07:33:31.000Z</time>
      </trkpt>
      <trkpt lat="41.575265340507030487060546875" lon="2.0946052484214305877685546875">
        <ele>180.1999969482421875</ele>
        <time>2022-06-01T07:33:36.000Z</time>
      </trkpt>
      <trkpt lat="41.57543222419917583465576171875" lon="2.0946692861616611480712890625">
        <ele>180.399993896484375</ele>
        <time>2022-06-01T07:33:43.000Z</time>
      </trkpt>
      <trkpt lat="41.57556415535509586334228515625" lon="2.0947148837149143218994140625">
        <ele>180.600006103515625</ele>
        <time>2022-06-01T07:33:50.000Z</time>
      </trkpt>
      <trkpt lat="41.57564613036811351776123046875" lon="2.09473910741508007049560546875">
        <ele>181.399993896484375</ele>
        <time>2022-06-01T07:33:55.000Z</time>
      </trkpt>
      <trkpt lat="41.57570212148129940032958984375" lon="2.094739191234111785888671875">
        <ele>181.8000030517578125</ele>
        <time>2022-06-01T07:33:58.000Z</time>
      </trkpt>
      <trkpt lat="41.5757643990218639373779296875" lon="2.09474061615765094757080078125">
        <ele>182.399993896484375</ele>
        <time>2022-06-01T07:34:02.000Z</time>
      </trkpt>
      <trkpt lat="41.57581829465925693511962890625" lon="2.0947534404695034027099609375">
        <ele>182.8000030517578125</ele>
        <time>2022-06-01T07:34:05.000Z</time>
      </trkpt>
      <trkpt lat="41.5758664906024932861328125" lon="2.09476827643811702728271484375">
        <ele>183.600006103515625</ele>
        <time>2022-06-01T07:34:08.000Z</time>
      </trkpt>
      <trkpt lat="41.5759367309510707855224609375" lon="2.09481873549520969390869140625">
        <ele>184</ele>
        <time>2022-06-01T07:34:13.000Z</time>
      </trkpt>
      <trkpt lat="41.576002947986125946044921875" lon="2.094863243401050567626953125">
        <ele>184.600006103515625</ele>
        <time>2022-06-01T07:34:18.000Z</time>
      </trkpt>
      <trkpt lat="41.57604108564555644989013671875" lon="2.094885371625423431396484375">
        <ele>184.8000030517578125</ele>
        <time>2022-06-01T07:34:21.000Z</time>
      </trkpt>
      <trkpt lat="41.57613337039947509765625" lon="2.09493239410221576690673828125">
        <ele>185.600006103515625</ele>
        <time>2022-06-01T07:34:28.000Z</time>
      </trkpt>
      <trkpt lat="41.5761734358966350555419921875" lon="2.0949447154998779296875">
        <ele>185.8000030517578125</ele>
        <time>2022-06-01T07:34:31.000Z</time>
      </trkpt>
      <trkpt lat="41.5761868469417095184326171875" lon="2.0949489064514636993408203125">
        <ele>186</ele>
        <time>2022-06-01T07:34:32.000Z</time>
      </trkpt>
      <trkpt lat="41.57623596489429473876953125" lon="2.0949864573776721954345703125">
        <ele>186.399993896484375</ele>
        <time>2022-06-01T07:34:36.000Z</time>
      </trkpt>
      <trkpt lat="41.57625985331833362579345703125" lon="2.09500079043209552764892578125">
        <ele>186.399993896484375</ele>
        <time>2022-06-01T07:34:38.000Z</time>
      </trkpt>
      <trkpt lat="41.576282568275928497314453125" lon="2.09501705132424831390380859375">
        <ele>186.600006103515625</ele>
        <time>2022-06-01T07:34:40.000Z</time>
      </trkpt>
      <trkpt lat="41.5763273276388645172119140625" lon="2.0950404368340969085693359375">
        <ele>187</ele>
        <time>2022-06-01T07:34:44.000Z</time>
      </trkpt>
      <trkpt lat="41.576372422277927398681640625" lon="2.09507170133292675018310546875">
        <ele>187.600006103515625</ele>
        <time>2022-06-01T07:34:48.000Z</time>
      </trkpt>
      <trkpt lat="41.576462276279926300048828125" lon="2.09512182511389255523681640625">
        <ele>188.399993896484375</ele>
        <time>2022-06-01T07:34:55.000Z</time>
      </trkpt>
      <trkpt lat="41.5764902718365192413330078125" lon="2.0951326377689838409423828125">
        <ele>188.8000030517578125</ele>
        <time>2022-06-01T07:34:57.000Z</time>
      </trkpt>
      <trkpt lat="41.57655456103384494781494140625" lon="2.09517882205545902252197265625">
        <ele>189.1999969482421875</ele>
        <time>2022-06-01T07:35:03.000Z</time>
      </trkpt>
      <trkpt lat="41.5765603445470333099365234375" lon="2.0951953344047069549560546875">
        <ele>189.399993896484375</ele>
        <time>2022-06-01T07:35:04.000Z</time>
      </trkpt>
      <trkpt lat="41.5765891782939434051513671875" lon="2.0952499844133853912353515625">
        <ele>189.8000030517578125</ele>
        <time>2022-06-01T07:35:08.000Z</time>
      </trkpt>
      <trkpt lat="41.57659881748259067535400390625" lon="2.0952600426971912384033203125">
        <ele>190</ele>
        <time>2022-06-01T07:35:09.000Z</time>
      </trkpt>
      <trkpt lat="41.57661616802215576171875" lon="2.09529482759535312652587890625">
        <ele>190.1999969482421875</ele>
        <time>2022-06-01T07:35:12.000Z</time>
      </trkpt>
      <trkpt lat="41.5766455046832561492919921875" lon="2.09532969631254673004150390625">
        <ele>190.600006103515625</ele>
        <time>2022-06-01T07:35:17.000Z</time>
      </trkpt>
      <trkpt lat="41.57666352577507495880126953125" lon="2.0953438617289066314697265625">
        <ele>190.8000030517578125</ele>
        <time>2022-06-01T07:35:19.000Z</time>
      </trkpt>
      <trkpt lat="41.5766786970198154449462890625" lon="2.09536490030586719512939453125">
        <ele>191</ele>
        <time>2022-06-01T07:35:21.000Z</time>
      </trkpt>
      <trkpt lat="41.57672119326889514923095703125" lon="2.09543748758733272552490234375">
        <ele>191.8000030517578125</ele>
        <time>2022-06-01T07:35:29.000Z</time>
      </trkpt>
      <trkpt lat="41.5767383761703968048095703125" lon="2.09547420032322406768798828125">
        <ele>192</ele>
        <time>2022-06-01T07:35:33.000Z</time>
      </trkpt>
      <trkpt lat="41.576755307614803314208984375" lon="2.095478475093841552734375">
        <ele>192.399993896484375</ele>
        <time>2022-06-01T07:35:38.000Z</time>
      </trkpt>
      <trkpt lat="41.57674198038876056671142578125" lon="2.09546229802072048187255859375">
        <ele>192.399993896484375</ele>
        <time>2022-06-01T07:35:40.000Z</time>
      </trkpt>
      <trkpt lat="41.5767060220241546630859375" lon="2.09541636519134044647216796875">
        <ele>192.399993896484375</ele>
        <time>2022-06-01T07:35:44.000Z</time>
      </trkpt>
      <trkpt lat="41.57668096013367176055908203125" lon="2.09538149647414684295654296875">
        <ele>192.399993896484375</ele>
        <time>2022-06-01T07:35:47.000Z</time>
      </trkpt>
      <trkpt lat="41.57666645944118499755859375" lon="2.0953586138784885406494140625">
        <ele>192.399993896484375</ele>
        <time>2022-06-01T07:35:49.000Z</time>
      </trkpt>
      <trkpt lat="41.57665128819644451141357421875" lon="2.09528602659702301025390625">
        <ele>192</ele>
        <time>2022-06-01T07:35:52.000Z</time>
      </trkpt>
      <trkpt lat="41.5766465105116367340087890625" lon="2.0952536724507808685302734375">
        <ele>192</ele>
        <time>2022-06-01T07:35:53.000Z</time>
      </trkpt>
      <trkpt lat="41.57656864263117313385009765625" lon="2.09516658447682857513427734375">
        <ele>191.600006103515625</ele>
        <time>2022-06-01T07:35:56.000Z</time>
      </trkpt>
      <trkpt lat="41.576527319848537445068359375" lon="2.0951463840901851654052734375">
        <ele>191.399993896484375</ele>
        <time>2022-06-01T07:35:57.000Z</time>
      </trkpt>
      <trkpt lat="41.576452553272247314453125" lon="2.095106653869152069091796875">
        <ele>191</ele>
        <time>2022-06-01T07:35:59.000Z</time>
      </trkpt>
      <trkpt lat="41.57639815472066402435302734375" lon="2.09506516344845294952392578125">
        <ele>190.8000030517578125</ele>
        <time>2022-06-01T07:36:01.000Z</time>
      </trkpt>
      <trkpt lat="41.5762683190405368804931640625" lon="2.0950132794678211212158203125">
        <ele>189.8000030517578125</ele>
        <time>2022-06-01T07:36:05.000Z</time>
      </trkpt>
      <trkpt lat="41.57623194158077239990234375" lon="2.0949881337583065032958984375">
        <ele>189.600006103515625</ele>
        <time>2022-06-01T07:36:06.000Z</time>
      </trkpt>
      <trkpt lat="41.576069332659244537353515625" lon="2.09486550651490688323974609375">
        <ele>188.8000030517578125</ele>
        <time>2022-06-01T07:36:10.000Z</time>
      </trkpt>
      <trkpt lat="41.57598651945590972900390625" lon="2.0948107726871967315673828125">
        <ele>188</ele>
        <time>2022-06-01T07:36:12.000Z</time>
      </trkpt>
      <trkpt lat="41.5759105794131755828857421875" lon="2.0947765745222568511962890625">
        <ele>187.600006103515625</ele>
        <time>2022-06-01T07:36:14.000Z</time>
      </trkpt>
      <trkpt lat="41.5758032910525798797607421875" lon="2.09476022981107234954833984375">
        <ele>186.8000030517578125</ele>
        <time>2022-06-01T07:36:17.000Z</time>
      </trkpt>
      <trkpt lat="41.575765572488307952880859375" lon="2.094759643077850341796875">
        <ele>186</ele>
        <time>2022-06-01T07:36:18.000Z</time>
      </trkpt>
      <trkpt lat="41.575681753456592559814453125" lon="2.094759978353977203369140625">
        <ele>185.600006103515625</ele>
        <time>2022-06-01T07:36:20.000Z</time>
      </trkpt>
      <trkpt lat="41.57563892193138599395751953125" lon="2.09475318901240825653076171875">
        <ele>185.1999969482421875</ele>
        <time>2022-06-01T07:36:21.000Z</time>
      </trkpt>
      <trkpt lat="41.57559969462454319000244140625" lon="2.09474162198603153228759765625">
        <ele>185</ele>
        <time>2022-06-01T07:36:22.000Z</time>
      </trkpt>
      <trkpt lat="41.57546172849833965301513671875" lon="2.09469032473862171173095703125">
        <ele>183.8000030517578125</ele>
        <time>2022-06-01T07:36:26.000Z</time>
      </trkpt>
      <trkpt lat="41.57531194388866424560546875" lon="2.09462477825582027435302734375">
        <ele>182.600006103515625</ele>
        <time>2022-06-01T07:36:30.000Z</time>
      </trkpt>
      <trkpt lat="41.57524622976779937744140625" lon="2.0946344174444675445556640625">
        <ele>181.8000030517578125</ele>
        <time>2022-06-01T07:36:32.000Z</time>
      </trkpt>
      <trkpt lat="41.575219072401523590087890625" lon="2.09465847350656986236572265625">
        <ele>181.600006103515625</ele>
        <time>2022-06-01T07:36:33.000Z</time>
      </trkpt>
      <trkpt lat="41.57513986341655254364013671875" lon="2.09477213211357593536376953125">
        <ele>181.1999969482421875</ele>
        <time>2022-06-01T07:36:36.000Z</time>
      </trkpt>
      <trkpt lat="41.5751139633357524871826171875" lon="2.0948090963065624237060546875">
        <ele>181</ele>
        <time>2022-06-01T07:36:37.000Z</time>
      </trkpt>
      <trkpt lat="41.5749858878552913665771484375" lon="2.0949623174965381622314453125">
        <ele>180.600006103515625</ele>
        <time>2022-06-01T07:36:42.000Z</time>
      </trkpt>
      <trkpt lat="41.5749201737344264984130859375" lon="2.09503079764544963836669921875">
        <ele>180.399993896484375</ele>
        <time>2022-06-01T07:36:45.000Z</time>
      </trkpt>
      <trkpt lat="41.57483895309269428253173828125" lon="2.09495879709720611572265625">
        <ele>180.399993896484375</ele>
        <time>2022-06-01T07:36:49.000Z</time>
      </trkpt>
      <trkpt lat="41.57463275827467441558837890625" lon="2.09472569637000560760498046875">
        <ele>180.399993896484375</ele>
        <time>2022-06-01T07:36:58.000Z</time>
      </trkpt>
      <trkpt lat="41.57454156316816806793212890625" lon="2.09459560923278331756591796875">
        <ele>180.600006103515625</ele>
        <time>2022-06-01T07:37:04.000Z</time>
      </trkpt>
      <trkpt lat="41.57458615489304065704345703125" lon="2.0945046655833721160888671875">
        <ele>180.399993896484375</ele>
        <time>2022-06-01T07:37:08.000Z</time>
      </trkpt>
      <trkpt lat="41.574600823223590850830078125" lon="2.09448211826384067535400390625">
        <ele>180.600006103515625</ele>
        <time>2022-06-01T07:37:09.000Z</time>
      </trkpt>
      <trkpt lat="41.57468925230205059051513671875" lon="2.09434616379439830780029296875">
        <ele>180.600006103515625</ele>
        <time>2022-06-01T07:37:15.000Z</time>
      </trkpt>
      <trkpt lat="41.57480173744261264801025390625" lon="2.094159834086894989013671875">
        <ele>180.600006103515625</ele>
        <time>2022-06-01T07:37:22.000Z</time>
      </trkpt>
      <trkpt lat="41.57492126338183879852294921875" lon="2.0939776115119457244873046875">
        <ele>180.8000030517578125</ele>
        <time>2022-06-01T07:37:29.000Z</time>
      </trkpt>
      <trkpt lat="41.5750475786626338958740234375" lon="2.09385263733565807342529296875">
        <ele>180.8000030517578125</ele>
        <time>2022-06-01T07:37:35.000Z</time>
      </trkpt>
      <trkpt lat="41.57519526779651641845703125" lon="2.09368902258574962615966796875">
        <ele>181.1999969482421875</ele>
        <time>2022-06-01T07:37:41.000Z</time>
      </trkpt>
      <trkpt lat="41.575394757091999053955078125" lon="2.093455083668231964111328125">
        <ele>181.1999969482421875</ele>
        <time>2022-06-01T07:37:49.000Z</time>
      </trkpt>
      <trkpt lat="41.5755669213831424713134765625" lon="2.093301527202129364013671875">
        <ele>181.399993896484375</ele>
        <time>2022-06-01T07:37:55.000Z</time>
      </trkpt>
      <trkpt lat="41.57565593719482421875" lon="2.093217708170413970947265625">
        <ele>181.600006103515625</ele>
        <time>2022-06-01T07:37:58.000Z</time>
      </trkpt>
      <trkpt lat="41.575849056243896484375" lon="2.0930405147373676300048828125">
        <ele>181.600006103515625</ele>
        <time>2022-06-01T07:38:05.000Z</time>
      </trkpt>
      <trkpt lat="41.57606388442218303680419921875" lon="2.09285787306725978851318359375">
        <ele>181.8000030517578125</ele>
        <time>2022-06-01T07:38:13.000Z</time>
      </trkpt>
      <trkpt lat="41.57629229128360748291015625" lon="2.09263726137578487396240234375">
        <ele>181.8000030517578125</ele>
        <time>2022-06-01T07:38:22.000Z</time>
      </trkpt>
      <trkpt lat="41.57648147083818912506103515625" lon="2.0924799330532550811767578125">
        <ele>182</ele>
        <time>2022-06-01T07:38:29.000Z</time>
      </trkpt>
      <trkpt lat="41.57666637562215328216552734375" lon="2.0923112891614437103271484375">
        <ele>182.1999969482421875</ele>
        <time>2022-06-01T07:38:36.000Z</time>
      </trkpt>
      <trkpt lat="41.5768617577850818634033203125" lon="2.09213669411838054656982421875">
        <ele>182.600006103515625</ele>
        <time>2022-06-01T07:38:43.000Z</time>
      </trkpt>
      <trkpt lat="41.57694197259843349456787109375" lon="2.09206025116145610809326171875">
        <ele>182.8000030517578125</ele>
        <time>2022-06-01T07:38:46.000Z</time>
      </trkpt>
      <trkpt lat="41.577197201550006866455078125" lon="2.0917906053364276885986328125">
        <ele>183</ele>
        <time>2022-06-01T07:38:56.000Z</time>
      </trkpt>
      <trkpt lat="41.57742862589657306671142578125" lon="2.0914779603481292724609375">
        <ele>183.1999969482421875</ele>
        <time>2022-06-01T07:39:06.000Z</time>
      </trkpt>
      <trkpt lat="41.57760095782577991485595703125" lon="2.09117109887301921844482421875">
        <ele>183.399993896484375</ele>
        <time>2022-06-01T07:39:15.000Z</time>
      </trkpt>
      <trkpt lat="41.5777036361396312713623046875" lon="2.09093548357486724853515625">
        <ele>183.600006103515625</ele>
        <time>2022-06-01T07:39:22.000Z</time>
      </trkpt>
      <trkpt lat="41.57771729864180088043212890625" lon="2.0909165404736995697021484375">
        <ele>183.600006103515625</ele>
        <time>2022-06-01T07:39:23.000Z</time>
      </trkpt>
      <trkpt lat="41.57773188315331935882568359375" lon="2.09090304560959339141845703125">
        <ele>183.600006103515625</ele>
        <time>2022-06-01T07:39:24.000Z</time>
      </trkpt>
      <trkpt lat="41.57776256091892719268798828125" lon="2.0908655785024166107177734375">
        <ele>183.600006103515625</ele>
        <time>2022-06-01T07:39:27.000Z</time>
      </trkpt>
      <trkpt lat="41.5778357349336147308349609375" lon="2.09073968231678009033203125">
        <ele>183.600006103515625</ele>
        <time>2022-06-01T07:39:32.000Z</time>
      </trkpt>
      <trkpt lat="41.57786163501441478729248046875" lon="2.09072400815784931182861328125">
        <ele>183.600006103515625</ele>
        <time>2022-06-01T07:39:33.000Z</time>
      </trkpt>
      <trkpt lat="41.5779276005923748016357421875" lon="2.0907418616116046905517578125">
        <ele>183.600006103515625</ele>
        <time>2022-06-01T07:39:35.000Z</time>
      </trkpt>
      <trkpt lat="41.578151397407054901123046875" lon="2.0908825099468231201171875">
        <ele>182.8000030517578125</ele>
        <time>2022-06-01T07:39:41.000Z</time>
      </trkpt>
      <trkpt lat="41.5782119147479534149169921875" lon="2.09091804921627044677734375">
        <ele>182.399993896484375</ele>
        <time>2022-06-01T07:39:43.000Z</time>
      </trkpt>
      <trkpt lat="41.57830771990120410919189453125" lon="2.090983428061008453369140625">
        <ele>181.8000030517578125</ele>
        <time>2022-06-01T07:39:47.000Z</time>
      </trkpt>
      <trkpt lat="41.57832984812557697296142578125" lon="2.0909924805164337158203125">
        <ele>181.8000030517578125</ele>
        <time>2022-06-01T07:39:48.000Z</time>
      </trkpt>
      <trkpt lat="41.578365303575992584228515625" lon="2.0909654907882213592529296875">
        <ele>181.8000030517578125</ele>
        <time>2022-06-01T07:39:50.000Z</time>
      </trkpt>
      <trkpt lat="41.57846244983375072479248046875" lon="2.09079039283096790313720703125">
        <ele>182.1999969482421875</ele>
        <time>2022-06-01T07:39:58.000Z</time>
      </trkpt>
      <trkpt lat="41.5785237215459346771240234375" lon="2.0906142890453338623046875">
        <ele>183.399993896484375</ele>
        <time>2022-06-01T07:40:05.000Z</time>
      </trkpt>
      <trkpt lat="41.5785756893455982208251953125" lon="2.0903831161558628082275390625">
        <ele>184.399993896484375</ele>
        <time>2022-06-01T07:40:13.000Z</time>
      </trkpt>
      <trkpt lat="41.57858247868716716766357421875" lon="2.09035352803766727447509765625">
        <ele>184.600006103515625</ele>
        <time>2022-06-01T07:40:14.000Z</time>
      </trkpt>
      <trkpt lat="41.5786407329142093658447265625" lon="2.09014515392482280731201171875">
        <ele>185</ele>
        <time>2022-06-01T07:40:21.000Z</time>
      </trkpt>
      <trkpt lat="41.5787014178931713104248046875" lon="2.08992588333785533905029296875">
        <ele>185.399993896484375</ele>
        <time>2022-06-01T07:40:28.000Z</time>
      </trkpt>
      <trkpt lat="41.578753888607025146484375" lon="2.089746929705142974853515625">
        <ele>185.1999969482421875</ele>
        <time>2022-06-01T07:40:33.000Z</time>
      </trkpt>
      <trkpt lat="41.57880359329283237457275390625" lon="2.08960619755089282989501953125">
        <ele>185.600006103515625</ele>
        <time>2022-06-01T07:40:37.000Z</time>
      </trkpt>
      <trkpt lat="41.5789448283612728118896484375" lon="2.08923890255391597747802734375">
        <ele>185.600006103515625</ele>
        <time>2022-06-01T07:40:47.000Z</time>
      </trkpt>
      <trkpt lat="41.57907910645008087158203125" lon="2.088966406881809234619140625">
        <ele>185.600006103515625</ele>
        <time>2022-06-01T07:40:55.000Z</time>
      </trkpt>
      <trkpt lat="41.57921380363404750823974609375" lon="2.0886956714093685150146484375">
        <ele>186</ele>
        <time>2022-06-01T07:41:03.000Z</time>
      </trkpt>
      <trkpt lat="41.579346321523189544677734375" lon="2.08836617879569530487060546875">
        <ele>186.1999969482421875</ele>
        <time>2022-06-01T07:41:12.000Z</time>
      </trkpt>
      <trkpt lat="41.57936266623437404632568359375" lon="2.08833147771656513214111328125">
        <ele>186.600006103515625</ele>
        <time>2022-06-01T07:41:13.000Z</time>
      </trkpt>
      <trkpt lat="41.57950432039797306060791015625" lon="2.08796921186149120330810546875">
        <ele>186.8000030517578125</ele>
        <time>2022-06-01T07:41:23.000Z</time>
      </trkpt>
      <trkpt lat="41.57960624434053897857666015625" lon="2.08771272562444210052490234375">
        <ele>187.399993896484375</ele>
        <time>2022-06-01T07:41:30.000Z</time>
      </trkpt>
      <trkpt lat="41.5797162987291812896728515625" lon="2.08754324354231357574462890625">
        <ele>187.1999969482421875</ele>
        <time>2022-06-01T07:41:36.000Z</time>
      </trkpt>
      <trkpt lat="41.5797354094684123992919921875" lon="2.0875332690775394439697265625">
        <ele>187.600006103515625</ele>
        <time>2022-06-01T07:41:37.000Z</time>
      </trkpt>
      <trkpt lat="41.579768098890781402587890625" lon="2.08751508034765720367431640625">
        <ele>187.399993896484375</ele>
        <time>2022-06-01T07:41:39.000Z</time>
      </trkpt>
      <trkpt lat="41.57978452742099761962890625" lon="2.08745623938739299774169921875">
        <ele>187.600006103515625</ele>
        <time>2022-06-01T07:41:42.000Z</time>
      </trkpt>
      <trkpt lat="41.57980841584503650665283203125" lon="2.087392620742321014404296875">
        <ele>187.8000030517578125</ele>
        <time>2022-06-01T07:41:45.000Z</time>
      </trkpt>
      <trkpt lat="41.579832471907138824462890625" lon="2.08734006620943546295166015625">
        <ele>187.8000030517578125</ele>
        <time>2022-06-01T07:41:47.000Z</time>
      </trkpt>
      <trkpt lat="41.579966247081756591796875" lon="2.08712381310760974884033203125">
        <ele>187.8000030517578125</ele>
        <time>2022-06-01T07:41:55.000Z</time>
      </trkpt>
      <trkpt lat="41.5799982659518718719482421875" lon="2.08707712590694427490234375">
        <ele>188.1999969482421875</ele>
        <time>2022-06-01T07:41:59.000Z</time>
      </trkpt>
      <trkpt lat="41.57997957430779933929443359375" lon="2.08709263242781162261962890625">
        <ele>187.8000030517578125</ele>
        <time>2022-06-01T07:42:04.000Z</time>
      </trkpt>
      <trkpt lat="41.5799582004547119140625" lon="2.08711442537605762481689453125">
        <ele>187.8000030517578125</ele>
        <time>2022-06-01T07:42:12.000Z</time>
      </trkpt>
      <trkpt lat="41.5799519978463649749755859375" lon="2.08712398074567317962646484375">
        <ele>188</ele>
        <time>2022-06-01T07:42:22.000Z</time>
      </trkpt>
      <trkpt lat="41.57994487322866916656494140625" lon="2.0871354639530181884765625">
        <ele>188</ele>
        <time>2022-06-01T07:42:23.000Z</time>
      </trkpt>
      <trkpt lat="41.57992961816489696502685546875" lon="2.08715834654867649078369140625">
        <ele>188</ele>
        <time>2022-06-01T07:42:25.000Z</time>
      </trkpt>
      <trkpt lat="41.57988972030580043792724609375" lon="2.08721785806119441986083984375">
        <ele>187.8000030517578125</ele>
        <time>2022-06-01T07:42:30.000Z</time>
      </trkpt>
      <trkpt lat="41.579786203801631927490234375" lon="2.0873683132231235504150390625">
        <ele>187.8000030517578125</ele>
        <time>2022-06-01T07:42:36.000Z</time>
      </trkpt>
      <trkpt lat="41.57969743944704532623291015625" lon="2.08751273341476917266845703125">
        <ele>187.8000030517578125</ele>
        <time>2022-06-01T07:42:41.000Z</time>
      </trkpt>
      <trkpt lat="41.57958730123937129974365234375" lon="2.087694704532623291015625">
        <ele>187.8000030517578125</ele>
        <time>2022-06-01T07:42:47.000Z</time>
      </trkpt>
      <trkpt lat="41.57946526072919368743896484375" lon="2.08795177750289440155029296875">
        <ele>187.600006103515625</ele>
        <time>2022-06-01T07:42:54.000Z</time>
      </trkpt>
      <trkpt lat="41.5793116204440593719482421875" lon="2.08834388293325901031494140625">
        <ele>187.1999969482421875</ele>
        <time>2022-06-01T07:43:03.000Z</time>
      </trkpt>
      <trkpt lat="41.5792112052440643310546875" lon="2.0885997824370861053466796875">
        <ele>187.399993896484375</ele>
        <time>2022-06-01T07:43:09.000Z</time>
      </trkpt>
      <trkpt lat="41.57908438704907894134521484375" lon="2.0888710208237171173095703125">
        <ele>187</ele>
        <time>2022-06-01T07:43:16.000Z</time>
      </trkpt>
      <trkpt lat="41.578937955200672149658203125" lon="2.089169584214687347412109375">
        <ele>186.8000030517578125</ele>
        <time>2022-06-01T07:43:23.000Z</time>
      </trkpt>
      <trkpt lat="41.57885723747313022613525390625" lon="2.08940486423671245574951171875">
        <ele>186.600006103515625</ele>
        <time>2022-06-01T07:43:28.000Z</time>
      </trkpt>
      <trkpt lat="41.57884038984775543212890625" lon="2.08945012651383876800537109375">
        <ele>186.399993896484375</ele>
        <time>2022-06-01T07:43:29.000Z</time>
      </trkpt>
      <trkpt lat="41.57874517142772674560546875" lon="2.0896766893565654754638671875">
        <ele>186</ele>
        <time>2022-06-01T07:43:34.000Z</time>
      </trkpt>
      <trkpt lat="41.57868482172489166259765625" lon="2.08991532213985919952392578125">
        <ele>185.8000030517578125</ele>
        <time>2022-06-01T07:43:39.000Z</time>
      </trkpt>
      <trkpt lat="41.57864450477063655853271484375" lon="2.09005647338926792144775390625">
        <ele>185.600006103515625</ele>
        <time>2022-06-01T07:43:42.000Z</time>
      </trkpt>
      <trkpt lat="41.5785652957856655120849609375" lon="2.09033441729843616485595703125">
        <ele>185.600006103515625</ele>
        <time>2022-06-01T07:43:48.000Z</time>
      </trkpt>
      <trkpt lat="41.57852682285010814666748046875" lon="2.0905470661818981170654296875">
        <ele>185.600006103515625</ele>
        <time>2022-06-01T07:43:53.000Z</time>
      </trkpt>
      <trkpt lat="41.57848658971488475799560546875" lon="2.0906989462673664093017578125">
        <ele>185.399993896484375</ele>
        <time>2022-06-01T07:43:57.000Z</time>
      </trkpt>
      <trkpt lat="41.5784734301269054412841796875" lon="2.09074429236352443695068359375">
        <ele>185.399993896484375</ele>
        <time>2022-06-01T07:43:58.000Z</time>
      </trkpt>
      <trkpt lat="41.57836605794727802276611328125" lon="2.0909550972282886505126953125">
        <ele>185</ele>
        <time>2022-06-01T07:44:03.000Z</time>
      </trkpt>
      <trkpt lat="41.5782451070845127105712890625" lon="2.090951912105083465576171875">
        <ele>184.600006103515625</ele>
        <time>2022-06-01T07:44:06.000Z</time>
      </trkpt>
      <trkpt lat="41.5782048739492893218994140625" lon="2.090927101671695709228515625">
        <ele>184.399993896484375</ele>
        <time>2022-06-01T07:44:07.000Z</time>
      </trkpt>
      <trkpt lat="41.57816254533827304840087890625" lon="2.0908986032009124755859375">
        <ele>184.1999969482421875</ele>
        <time>2022-06-01T07:44:08.000Z</time>
      </trkpt>
      <trkpt lat="41.578021310269832611083984375" lon="2.09082827903330326080322265625">
        <ele>183.600006103515625</ele>
        <time>2022-06-01T07:44:11.000Z</time>
      </trkpt>
      <trkpt lat="41.57797847874462604522705078125" lon="2.09080531261861324310302734375">
        <ele>183.399993896484375</ele>
        <time>2022-06-01T07:44:12.000Z</time>
      </trkpt>
      <trkpt lat="41.57787169329822063446044921875" lon="2.0907390117645263671875">
        <ele>182.600006103515625</ele>
        <time>2022-06-01T07:44:15.000Z</time>
      </trkpt>
      <trkpt lat="41.577811427414417266845703125" lon="2.09078729152679443359375">
        <ele>182.399993896484375</ele>
        <time>2022-06-01T07:44:18.000Z</time>
      </trkpt>
      <trkpt lat="41.57778494060039520263671875" lon="2.090863399207592010498046875">
        <ele>182.1999969482421875</ele>
        <time>2022-06-01T07:44:21.000Z</time>
      </trkpt>
      <trkpt lat="41.5777649916708469390869140625" lon="2.09090472199022769927978515625">
        <ele>182.1999969482421875</ele>
        <time>2022-06-01T07:44:23.000Z</time>
      </trkpt>
      <trkpt lat="41.5777509100735187530517578125" lon="2.0909105055034160614013671875">
        <ele>182.399993896484375</ele>
        <time>2022-06-01T07:44:24.000Z</time>
      </trkpt>
      <trkpt lat="41.577734984457492828369140625" lon="2.09085376001894474029541015625">
        <ele>183</ele>
        <time>2022-06-01T07:44:27.000Z</time>
      </trkpt>
      <trkpt lat="41.57779692672193050384521484375" lon="2.0907157100737094879150390625">
        <ele>183.8000030517578125</ele>
        <time>2022-06-01T07:44:32.000Z</time>
      </trkpt>
      <trkpt lat="41.577879823744297027587890625" lon="2.090471126139163970947265625">
        <ele>184.399993896484375</ele>
        <time>2022-06-01T07:44:39.000Z</time>
      </trkpt>
      <trkpt lat="41.57790488563477993011474609375" lon="2.09039610810577869415283203125">
        <ele>184.399993896484375</ele>
        <time>2022-06-01T07:44:41.000Z</time>
      </trkpt>
      <trkpt lat="41.57798166386783123016357421875" lon="2.09017650224268436431884765625">
        <ele>184.600006103515625</ele>
        <time>2022-06-01T07:44:47.000Z</time>
      </trkpt>
      <trkpt lat="41.578097082674503326416015625" lon="2.08984541706740856170654296875">
        <ele>184.8000030517578125</ele>
        <time>2022-06-01T07:44:56.000Z</time>
      </trkpt>
      <trkpt lat="41.5781973302364349365234375" lon="2.08956462331116199493408203125">
        <ele>185</ele>
        <time>2022-06-01T07:45:04.000Z</time>
      </trkpt>
      <trkpt lat="41.57831727527081966400146484375" lon="2.08926857449114322662353515625">
        <ele>185</ele>
        <time>2022-06-01T07:45:12.000Z</time>
      </trkpt>
      <trkpt lat="41.5784409083425998687744140625" lon="2.0889727771282196044921875">
        <ele>185.399993896484375</ele>
        <time>2022-06-01T07:45:20.000Z</time>
      </trkpt>
      <trkpt lat="41.57853855751454830169677734375" lon="2.08874235861003398895263671875">
        <ele>185.600006103515625</ele>
        <time>2022-06-01T07:45:26.000Z</time>
      </trkpt>
      <trkpt lat="41.57863277010619640350341796875" lon="2.08856382407248020172119140625">
        <ele>185.600006103515625</ele>
        <time>2022-06-01T07:45:32.000Z</time>
      </trkpt>
      <trkpt lat="41.57871541567146778106689453125" lon="2.0883258618414402008056640625">
        <ele>185.600006103515625</ele>
        <time>2022-06-01T07:45:38.000Z</time>
      </trkpt>
      <trkpt lat="41.57882035709917545318603515625" lon="2.088054455816745758056640625">
        <ele>186</ele>
        <time>2022-06-01T07:45:45.000Z</time>
      </trkpt>
      <trkpt lat="41.57896268181502819061279296875" lon="2.08780274726450443267822265625">
        <ele>186.1999969482421875</ele>
        <time>2022-06-01T07:45:52.000Z</time>
      </trkpt>
      <trkpt lat="41.57909830100834369659423828125" lon="2.08760627545416355133056640625">
        <ele>186.1999969482421875</ele>
        <time>2022-06-01T07:45:58.000Z</time>
      </trkpt>
      <trkpt lat="41.579132080078125" lon="2.08752832375466823577880859375">
        <ele>186.1999969482421875</ele>
        <time>2022-06-01T07:46:00.000Z</time>
      </trkpt>
      <trkpt lat="41.5791879035532474517822265625" lon="2.08741114474833011627197265625">
        <ele>186.399993896484375</ele>
        <time>2022-06-01T07:46:03.000Z</time>
      </trkpt>
      <trkpt lat="41.57928471453487873077392578125" lon="2.087228335440158843994140625">
        <ele>186.8000030517578125</ele>
        <time>2022-06-01T07:46:08.000Z</time>
      </trkpt>
      <trkpt lat="41.57943659462034702301025390625" lon="2.08693404681980609893798828125">
        <ele>187.399993896484375</ele>
        <time>2022-06-01T07:46:15.000Z</time>
      </trkpt>
      <trkpt lat="41.57945930957794189453125" lon="2.08689230494201183319091796875">
        <ele>187.399993896484375</ele>
        <time>2022-06-01T07:46:16.000Z</time>
      </trkpt>
      <trkpt lat="41.5795992873609066009521484375" lon="2.08666004240512847900390625">
        <ele>188</ele>
        <time>2022-06-01T07:46:22.000Z</time>
      </trkpt>
      <trkpt lat="41.57975242473185062408447265625" lon="2.08639450371265411376953125">
        <ele>188.1999969482421875</ele>
        <time>2022-06-01T07:46:29.000Z</time>
      </trkpt>
      <trkpt lat="41.5798924863338470458984375" lon="2.08618453703820705413818359375">
        <ele>188.600006103515625</ele>
        <time>2022-06-01T07:46:35.000Z</time>
      </trkpt>
      <trkpt lat="41.58006942830979824066162109375" lon="2.08590776659548282623291015625">
        <ele>189.1999969482421875</ele>
        <time>2022-06-01T07:46:43.000Z</time>
      </trkpt>
      <trkpt lat="41.58020236529409885406494140625" lon="2.085744403302669525146484375">
        <ele>189.600006103515625</ele>
        <time>2022-06-01T07:46:48.000Z</time>
      </trkpt>
      <trkpt lat="41.58025852404534816741943359375" lon="2.08568103611469268798828125">
        <ele>189.8000030517578125</ele>
        <time>2022-06-01T07:46:50.000Z</time>
      </trkpt>
      <trkpt lat="41.58047829754650592803955078125" lon="2.0854671299457550048828125">
        <ele>190</ele>
        <time>2022-06-01T07:46:58.000Z</time>
      </trkpt>
      <trkpt lat="41.580671332776546478271484375" lon="2.0852768607437610626220703125">
        <ele>190.1999969482421875</ele>
        <time>2022-06-01T07:47:06.000Z</time>
      </trkpt>
      <trkpt lat="41.5808793716132640838623046875" lon="2.08512171171605587005615234375">
        <ele>190.600006103515625</ele>
        <time>2022-06-01T07:47:13.000Z</time>
      </trkpt>
      <trkpt lat="41.580937206745147705078125" lon="2.0850686542689800262451171875">
        <ele>190.600006103515625</ele>
        <time>2022-06-01T07:47:15.000Z</time>
      </trkpt>
      <trkpt lat="41.58108850009739398956298828125" lon="2.0849402435123920440673828125">
        <ele>190.8000030517578125</ele>
        <time>2022-06-01T07:47:20.000Z</time>
      </trkpt>
      <trkpt lat="41.5814164839684963226318359375" lon="2.08466045558452606201171875">
        <ele>191</ele>
        <time>2022-06-01T07:47:31.000Z</time>
      </trkpt>
      <trkpt lat="41.58161940984427928924560546875" lon="2.08449340425431728363037109375">
        <ele>190.8000030517578125</ele>
        <time>2022-06-01T07:47:38.000Z</time>
      </trkpt>
      <trkpt lat="41.58190858550369739532470703125" lon="2.08425946533679962158203125">
        <ele>191</ele>
        <time>2022-06-01T07:47:48.000Z</time>
      </trkpt>
      <trkpt lat="41.58219658769667148590087890625" lon="2.08402569405734539031982421875">
        <ele>191.399993896484375</ele>
        <time>2022-06-01T07:47:58.000Z</time>
      </trkpt>
      <trkpt lat="41.58236925490200519561767578125" lon="2.0838740654289722442626953125">
        <ele>191.600006103515625</ele>
        <time>2022-06-01T07:48:04.000Z</time>
      </trkpt>
      <trkpt lat="41.58242474310100078582763671875" lon="2.08381145261228084564208984375">
        <ele>191.8000030517578125</ele>
        <time>2022-06-01T07:48:06.000Z</time>
      </trkpt>
      <trkpt lat="41.58255751244723796844482421875" lon="2.0835914276540279388427734375">
        <ele>192.1999969482421875</ele>
        <time>2022-06-01T07:48:12.000Z</time>
      </trkpt>
      <trkpt lat="41.5826345421373844146728515625" lon="2.08330929279327392578125">
        <ele>192.399993896484375</ele>
        <time>2022-06-01T07:48:19.000Z</time>
      </trkpt>
      <trkpt lat="41.582648791372776031494140625" lon="2.0831408165395259857177734375">
        <ele>192.8000030517578125</ele>
        <time>2022-06-01T07:48:23.000Z</time>
      </trkpt>
      <trkpt lat="41.58266630955040454864501953125" lon="2.08297980017960071563720703125">
        <ele>193</ele>
        <time>2022-06-01T07:48:27.000Z</time>
      </trkpt>
      <trkpt lat="41.5826476179063320159912109375" lon="2.082655839622020721435546875">
        <ele>193.399993896484375</ele>
        <time>2022-06-01T07:48:35.000Z</time>
      </trkpt>
      <trkpt lat="41.58263429068028926849365234375" lon="2.08257596008479595184326171875">
        <ele>193.8000030517578125</ele>
        <time>2022-06-01T07:48:37.000Z</time>
      </trkpt>
      <trkpt lat="41.58261551521718502044677734375" lon="2.0824605412781238555908203125">
        <ele>194.1999969482421875</ele>
        <time>2022-06-01T07:48:40.000Z</time>
      </trkpt>
      <trkpt lat="41.58260084688663482666015625" lon="2.082229368388652801513671875">
        <ele>194.600006103515625</ele>
        <time>2022-06-01T07:48:47.000Z</time>
      </trkpt>
      <trkpt lat="41.58261300064623355865478515625" lon="2.0821239240467548370361328125">
        <ele>194.8000030517578125</ele>
        <time>2022-06-01T07:48:50.000Z</time>
      </trkpt>
      <trkpt lat="41.58261719159781932830810546875" lon="2.0819904841482639312744140625">
        <ele>195.1999969482421875</ele>
        <time>2022-06-01T07:48:54.000Z</time>
      </trkpt>
      <trkpt lat="41.5826409123837947845458984375" lon="2.0818620733916759490966796875">
        <ele>196</ele>
        <time>2022-06-01T07:48:59.000Z</time>
      </trkpt>
      <trkpt lat="41.5826462768018245697021484375" lon="2.081834413111209869384765625">
        <ele>196</ele>
        <time>2022-06-01T07:49:00.000Z</time>
      </trkpt>
      <trkpt lat="41.58267167396843433380126953125" lon="2.081722430884838104248046875">
        <ele>197</ele>
        <time>2022-06-01T07:49:04.000Z</time>
      </trkpt>
      <trkpt lat="41.58269899897277355194091796875" lon="2.0815837942063808441162109375">
        <ele>197.600006103515625</ele>
        <time>2022-06-01T07:49:09.000Z</time>
      </trkpt>
      <trkpt lat="41.58270277082920074462890625" lon="2.081507854163646697998046875">
        <ele>198.1999969482421875</ele>
        <time>2022-06-01T07:49:12.000Z</time>
      </trkpt>
      <trkpt lat="41.5827146731317043304443359375" lon="2.08141238428652286529541015625">
        <ele>198.600006103515625</ele>
        <time>2022-06-01T07:49:16.000Z</time>
      </trkpt>
      <trkpt lat="41.58272825181484222412109375" lon="2.08129051141440868377685546875">
        <ele>199.1999969482421875</ele>
        <time>2022-06-01T07:49:21.000Z</time>
      </trkpt>
      <trkpt lat="41.58273235894739627838134765625" lon="2.08119009621441364288330078125">
        <ele>199.399993896484375</ele>
        <time>2022-06-01T07:49:25.000Z</time>
      </trkpt>
      <trkpt lat="41.5827304311096668243408203125" lon="2.08100032992660999298095703125">
        <ele>200.1999969482421875</ele>
        <time>2022-06-01T07:49:33.000Z</time>
      </trkpt>
      <trkpt lat="41.5827347896993160247802734375" lon="2.08098289556801319122314453125">
        <ele>200.399993896484375</ele>
        <time>2022-06-01T07:49:34.000Z</time>
      </trkpt>
      <trkpt lat="41.58276404254138469696044921875" lon="2.080837972462177276611328125">
        <ele>201.1999969482421875</ele>
        <time>2022-06-01T07:49:42.000Z</time>
      </trkpt>
      <trkpt lat="41.5827673114836215972900390625" lon="2.080817855894565582275390625">
        <ele>201.399993896484375</ele>
        <time>2022-06-01T07:49:43.000Z</time>
      </trkpt>
      <trkpt lat="41.58277242444455623626708984375" lon="2.080688774585723876953125">
        <ele>202.1999969482421875</ele>
        <time>2022-06-01T07:49:49.000Z</time>
      </trkpt>
      <trkpt lat="41.58276706002652645111083984375" lon="2.0806456916034221649169921875">
        <ele>202.399993896484375</ele>
        <time>2022-06-01T07:49:51.000Z</time>
      </trkpt>
      <trkpt lat="41.58276286907494068145751953125" lon="2.080559022724628448486328125">
        <ele>203</ele>
        <time>2022-06-01T07:49:55.000Z</time>
      </trkpt>
      <trkpt lat="41.58275834284722805023193359375" lon="2.0805115811526775360107421875">
        <ele>203.399993896484375</ele>
        <time>2022-06-01T07:49:57.000Z</time>
      </trkpt>
      <trkpt lat="41.58274660818278789520263671875" lon="2.0804130099713802337646484375">
        <ele>204</ele>
        <time>2022-06-01T07:50:01.000Z</time>
      </trkpt>
      <trkpt lat="41.58274426124989986419677734375" lon="2.080329358577728271484375">
        <ele>204.399993896484375</ele>
        <time>2022-06-01T07:50:04.000Z</time>
      </trkpt>
      <trkpt lat="41.58274157904088497161865234375" lon="2.08022005856037139892578125">
        <ele>205</ele>
        <time>2022-06-01T07:50:08.000Z</time>
      </trkpt>
      <trkpt lat="41.5827569179236888885498046875" lon="2.0800696872174739837646484375">
        <ele>205.600006103515625</ele>
        <time>2022-06-01T07:50:14.000Z</time>
      </trkpt>
      <trkpt lat="41.582755744457244873046875" lon="2.080039680004119873046875">
        <ele>205.600006103515625</ele>
        <time>2022-06-01T07:50:15.000Z</time>
      </trkpt>
      <trkpt lat="41.582782901823520660400390625" lon="2.0798232592642307281494140625">
        <ele>206.600006103515625</ele>
        <time>2022-06-01T07:50:23.000Z</time>
      </trkpt>
      <trkpt lat="41.5828335285186767578125" lon="2.07960356958210468292236328125">
        <ele>207</ele>
        <time>2022-06-01T07:50:31.000Z</time>
      </trkpt>
      <trkpt lat="41.58288306556642055511474609375" lon="2.07943257875740528106689453125">
        <ele>207.600006103515625</ele>
        <time>2022-06-01T07:50:37.000Z</time>
      </trkpt>
      <trkpt lat="41.58289966173470020294189453125" lon="2.07937206141650676727294921875">
        <ele>207.8000030517578125</ele>
        <time>2022-06-01T07:50:39.000Z</time>
      </trkpt>
      <trkpt lat="41.5829758532345294952392578125" lon="2.0791436545550823211669921875">
        <ele>208.1999969482421875</ele>
        <time>2022-06-01T07:50:47.000Z</time>
      </trkpt>
      <trkpt lat="41.5830583311617374420166015625" lon="2.07899160683155059814453125">
        <ele>208.600006103515625</ele>
        <time>2022-06-01T07:50:53.000Z</time>
      </trkpt>
      <trkpt lat="41.58316251821815967559814453125" lon="2.07877166569232940673828125">
        <ele>208.600006103515625</ele>
        <time>2022-06-01T07:50:58.000Z</time>
      </trkpt>
      <trkpt lat="41.58318581990897655487060546875" lon="2.07872070372104644775390625">
        <ele>208.600006103515625</ele>
        <time>2022-06-01T07:50:59.000Z</time>
      </trkpt>
      <trkpt lat="41.5832863189280033111572265625" lon="2.07847519777715206146240234375">
        <ele>208.399993896484375</ele>
        <time>2022-06-01T07:51:03.000Z</time>
      </trkpt>
      <trkpt lat="41.58338296227157115936279296875" lon="2.0782860182225704193115234375">
        <ele>208</ele>
        <time>2022-06-01T07:51:06.000Z</time>
      </trkpt>
      <trkpt lat="41.5835005603730678558349609375" lon="2.07811762578785419464111328125">
        <ele>207.399993896484375</ele>
        <time>2022-06-01T07:51:09.000Z</time>
      </trkpt>
      <trkpt lat="41.58363659866154193878173828125" lon="2.07798686809837818145751953125">
        <ele>206.600006103515625</ele>
        <time>2022-06-01T07:51:12.000Z</time>
      </trkpt>
      <trkpt lat="41.58372829668223857879638671875" lon="2.07793238572776317596435546875">
        <ele>206.1999969482421875</ele>
        <time>2022-06-01T07:51:14.000Z</time>
      </trkpt>
      <trkpt lat="41.58381245099008083343505859375" lon="2.07789282314479351043701171875">
        <ele>205.600006103515625</ele>
        <time>2022-06-01T07:51:16.000Z</time>
      </trkpt>
      <trkpt lat="41.58400833606719970703125" lon="2.07784722559154033660888671875">
        <ele>204.8000030517578125</ele>
        <time>2022-06-01T07:51:20.000Z</time>
      </trkpt>
      <trkpt lat="41.5840886346995830535888671875" lon="2.07784554921090602874755859375">
        <ele>204.399993896484375</ele>
        <time>2022-06-01T07:51:22.000Z</time>
      </trkpt>
      <trkpt lat="41.5842267684638500213623046875" lon="2.077869437634944915771484375">
        <ele>203.8000030517578125</ele>
        <time>2022-06-01T07:51:25.000Z</time>
      </trkpt>
      <trkpt lat="41.584344618022441864013671875" lon="2.07790724001824855804443359375">
        <ele>203.1999969482421875</ele>
        <time>2022-06-01T07:51:27.000Z</time>
      </trkpt>
      <trkpt lat="41.58460252918303012847900390625" lon="2.07799650728702545166015625">
        <ele>202.600006103515625</ele>
        <time>2022-06-01T07:51:31.000Z</time>
      </trkpt>
      <trkpt lat="41.58475399017333984375" lon="2.07810555584728717803955078125">
        <ele>202.1999969482421875</ele>
        <time>2022-06-01T07:51:34.000Z</time>
      </trkpt>
      <trkpt lat="41.5848346240818500518798828125" lon="2.07817026413977146148681640625">
        <ele>201.8000030517578125</ele>
        <time>2022-06-01T07:51:36.000Z</time>
      </trkpt>
      <trkpt lat="41.5850471891462802886962890625" lon="2.07833890803158283233642578125">
        <ele>201.399993896484375</ele>
        <time>2022-06-01T07:51:42.000Z</time>
      </trkpt>
      <trkpt lat="41.58512748777866363525390625" lon="2.078399844467639923095703125">
        <ele>201.399993896484375</ele>
        <time>2022-06-01T07:51:44.000Z</time>
      </trkpt>
      <trkpt lat="41.585226394236087799072265625" lon="2.07851794548332691192626953125">
        <ele>201.399993896484375</ele>
        <time>2022-06-01T07:51:47.000Z</time>
      </trkpt>
      <trkpt lat="41.5854025818407535552978515625" lon="2.0787587575614452362060546875">
        <ele>201.399993896484375</ele>
        <time>2022-06-01T07:51:53.000Z</time>
      </trkpt>
      <trkpt lat="41.5855251252651214599609375" lon="2.07890988327562808990478515625">
        <ele>201.399993896484375</ele>
        <time>2022-06-01T07:51:57.000Z</time>
      </trkpt>
      <trkpt lat="41.5856211818754673004150390625" lon="2.0790296606719493865966796875">
        <ele>201.399993896484375</ele>
        <time>2022-06-01T07:52:00.000Z</time>
      </trkpt>
      <trkpt lat="41.58585897646844387054443359375" lon="2.07934205420315265655517578125">
        <ele>201.600006103515625</ele>
        <time>2022-06-01T07:52:08.000Z</time>
      </trkpt>
      <trkpt lat="41.58608914352953433990478515625" lon="2.07961513660848140716552734375">
        <ele>201.399993896484375</ele>
        <time>2022-06-01T07:52:15.000Z</time>
      </trkpt>
      <trkpt lat="41.58612166531383991241455078125" lon="2.07965285517275333404541015625">
        <ele>201.399993896484375</ele>
        <time>2022-06-01T07:52:16.000Z</time>
      </trkpt>
      <trkpt lat="41.5863440372049808502197265625" lon="2.07991923205554485321044921875">
        <ele>201.399993896484375</ele>
        <time>2022-06-01T07:52:23.000Z</time>
      </trkpt>
      <trkpt lat="41.5863795764744281768798828125" lon="2.07994756288826465606689453125">
        <ele>201.399993896484375</ele>
        <time>2022-06-01T07:52:24.000Z</time>
      </trkpt>
      <trkpt lat="41.58649633638560771942138671875" lon="2.08009131252765655517578125">
        <ele>201.399993896484375</ele>
        <time>2022-06-01T07:52:28.000Z</time>
      </trkpt>
      <trkpt lat="41.58652282319962978363037109375" lon="2.08013682626187801361083984375">
        <ele>201.399993896484375</ele>
        <time>2022-06-01T07:52:29.000Z</time>
      </trkpt>
      <trkpt lat="41.58661016263067722320556640625" lon="2.08026238717138767242431640625">
        <ele>201.399993896484375</ele>
        <time>2022-06-01T07:52:32.000Z</time>
      </trkpt>
      <trkpt lat="41.5866779722273349761962890625" lon="2.0803278498351573944091796875">
        <ele>201.600006103515625</ele>
        <time>2022-06-01T07:52:34.000Z</time>
      </trkpt>
      <trkpt lat="41.58674360252916812896728515625" lon="2.0803955756127834320068359375">
        <ele>201.600006103515625</ele>
        <time>2022-06-01T07:52:36.000Z</time>
      </trkpt>
      <trkpt lat="41.5868509747087955474853515625" lon="2.0805622078478336334228515625">
        <ele>201.8000030517578125</ele>
        <time>2022-06-01T07:52:40.000Z</time>
      </trkpt>
      <trkpt lat="41.58702808432281017303466796875" lon="2.080829255282878875732421875">
        <ele>202</ele>
        <time>2022-06-01T07:52:47.000Z</time>
      </trkpt>
      <trkpt lat="41.58719806931912899017333984375" lon="2.08105330355465412139892578125">
        <ele>202.600006103515625</ele>
        <time>2022-06-01T07:52:54.000Z</time>
      </trkpt>
      <trkpt lat="41.58727551810443401336669921875" lon="2.08119328133761882781982421875">
        <ele>203</ele>
        <time>2022-06-01T07:52:58.000Z</time>
      </trkpt>
      <trkpt lat="41.58732597716152667999267578125" lon="2.0812609232962131500244140625">
        <ele>203.1999969482421875</ele>
        <time>2022-06-01T07:53:00.000Z</time>
      </trkpt>
      <trkpt lat="41.587487161159515380859375" lon="2.08140819333493709564208984375">
        <ele>203.600006103515625</ele>
        <time>2022-06-01T07:53:06.000Z</time>
      </trkpt>
      <trkpt lat="41.58759118057787418365478515625" lon="2.0815341733396053314208984375">
        <ele>203.8000030517578125</ele>
        <time>2022-06-01T07:53:11.000Z</time>
      </trkpt>
      <trkpt lat="41.5876717306673526763916015625" lon="2.08163031376898288726806640625">
        <ele>204</ele>
        <time>2022-06-01T07:53:14.000Z</time>
      </trkpt>
      <trkpt lat="41.58775144256651401519775390625" lon="2.08170474506914615631103515625">
        <ele>204</ele>
        <time>2022-06-01T07:53:17.000Z</time>
      </trkpt>
      <trkpt lat="41.58790784887969493865966796875" lon="2.0818595588207244873046875">
        <ele>204.1999969482421875</ele>
        <time>2022-06-01T07:53:23.000Z</time>
      </trkpt>
      <trkpt lat="41.58817338757216930389404296875" lon="2.082004062831401824951171875">
        <ele>204.399993896484375</ele>
        <time>2022-06-01T07:53:31.000Z</time>
      </trkpt>
      <trkpt lat="41.58843121491372585296630859375" lon="2.08202828653156757354736328125">
        <ele>204.8000030517578125</ele>
        <time>2022-06-01T07:53:38.000Z</time>
      </trkpt>
      <trkpt lat="41.58853531815111637115478515625" lon="2.08201806060969829559326171875">
        <ele>205</ele>
        <time>2022-06-01T07:53:41.000Z</time>
      </trkpt>
      <trkpt lat="41.58870278857648372650146484375" lon="2.08199090324342250823974609375">
        <ele>205.1999969482421875</ele>
        <time>2022-06-01T07:53:46.000Z</time>
      </trkpt>
      <trkpt lat="41.58895541913807392120361328125" lon="2.08198486827313899993896484375">
        <ele>205.399993896484375</ele>
        <time>2022-06-01T07:53:53.000Z</time>
      </trkpt>
      <trkpt lat="41.58925532363355159759521484375" lon="2.08195972256362438201904296875">
        <ele>205.600006103515625</ele>
        <time>2022-06-01T07:54:02.000Z</time>
      </trkpt>
      <trkpt lat="41.589487753808498382568359375" lon="2.082008756697177886962890625">
        <ele>206</ele>
        <time>2022-06-01T07:54:09.000Z</time>
      </trkpt>
      <trkpt lat="41.58971616066992282867431640625" lon="2.08208846859633922576904296875">
        <ele>206.399993896484375</ele>
        <time>2022-06-01T07:54:16.000Z</time>
      </trkpt>
      <trkpt lat="41.58994331024587154388427734375" lon="2.08213507197797298431396484375">
        <ele>207</ele>
        <time>2022-06-01T07:54:23.000Z</time>
      </trkpt>
      <trkpt lat="41.5900759957730770111083984375" lon="2.08212266676127910614013671875">
        <ele>207</ele>
        <time>2022-06-01T07:54:27.000Z</time>
      </trkpt>
      <trkpt lat="41.59014062024652957916259765625" lon="2.08209517411887645721435546875">
        <ele>207</ele>
        <time>2022-06-01T07:54:29.000Z</time>
      </trkpt>
      <trkpt lat="41.59032694995403289794921875" lon="2.082058377563953399658203125">
        <ele>207.399993896484375</ele>
        <time>2022-06-01T07:54:35.000Z</time>
      </trkpt>
      <trkpt lat="41.590513028204441070556640625" lon="2.08210137672722339630126953125">
        <ele>208</ele>
        <time>2022-06-01T07:54:41.000Z</time>
      </trkpt>
      <trkpt lat="41.590545885264873504638671875" lon="2.08210892044007778167724609375">
        <ele>208</ele>
        <time>2022-06-01T07:54:42.000Z</time>
      </trkpt>
      <trkpt lat="41.5905785746872425079345703125" lon="2.08211830817162990570068359375">
        <ele>208</ele>
        <time>2022-06-01T07:54:43.000Z</time>
      </trkpt>
      <trkpt lat="41.5907656587660312652587890625" lon="2.0822050608694553375244140625">
        <ele>208.399993896484375</ele>
        <time>2022-06-01T07:54:49.000Z</time>
      </trkpt>
      <trkpt lat="41.59093044698238372802734375" lon="2.08224839530885219573974609375">
        <ele>208.600006103515625</ele>
        <time>2022-06-01T07:54:54.000Z</time>
      </trkpt>
      <trkpt lat="41.5911800600588321685791015625" lon="2.08235375583171844482421875">
        <ele>208.8000030517578125</ele>
        <time>2022-06-01T07:55:01.000Z</time>
      </trkpt>
      <trkpt lat="41.5913825668394565582275390625" lon="2.0824692584574222564697265625">
        <ele>208.8000030517578125</ele>
        <time>2022-06-01T07:55:07.000Z</time>
      </trkpt>
      <trkpt lat="41.5915788710117340087890625" lon="2.082565985620021820068359375">
        <ele>209</ele>
        <time>2022-06-01T07:55:13.000Z</time>
      </trkpt>
      <trkpt lat="41.59181532450020313262939453125" lon="2.08258350379765033721923828125">
        <ele>208.8000030517578125</ele>
        <time>2022-06-01T07:55:20.000Z</time>
      </trkpt>
      <trkpt lat="41.592001654207706451416015625" lon="2.08256623707711696624755859375">
        <ele>209.1999969482421875</ele>
        <time>2022-06-01T07:55:26.000Z</time>
      </trkpt>
      <trkpt lat="41.59221178852021694183349609375" lon="2.0825463719666004180908203125">
        <ele>209.1999969482421875</ele>
        <time>2022-06-01T07:55:33.000Z</time>
      </trkpt>
      <trkpt lat="41.5924705378711223602294921875" lon="2.08252231590449810028076171875">
        <ele>209.600006103515625</ele>
        <time>2022-06-01T07:55:41.000Z</time>
      </trkpt>
      <trkpt lat="41.59277890808880329132080078125" lon="2.08250823430716991424560546875">
        <ele>209.8000030517578125</ele>
        <time>2022-06-01T07:55:50.000Z</time>
      </trkpt>
      <trkpt lat="41.59303958527743816375732421875" lon="2.08248225040733814239501953125">
        <ele>209.8000030517578125</ele>
        <time>2022-06-01T07:55:58.000Z</time>
      </trkpt>
      <trkpt lat="41.59310664050281047821044921875" lon="2.08247856236994266510009765625">
        <ele>210</ele>
        <time>2022-06-01T07:56:00.000Z</time>
      </trkpt>
      <trkpt lat="41.59331652335822582244873046875" lon="2.08247504197061061859130859375">
        <ele>210.399993896484375</ele>
        <time>2022-06-01T07:56:06.000Z</time>
      </trkpt>
      <trkpt lat="41.593481563031673431396484375" lon="2.08249390125274658203125">
        <ele>210.600006103515625</ele>
        <time>2022-06-01T07:56:11.000Z</time>
      </trkpt>
      <trkpt lat="41.59364157356321811676025390625" lon="2.08254176191985607147216796875">
        <ele>210.600006103515625</ele>
        <time>2022-06-01T07:56:16.000Z</time>
      </trkpt>
      <trkpt lat="41.59385413862764835357666015625" lon="2.0825435221195220947265625">
        <ele>210.8000030517578125</ele>
        <time>2022-06-01T07:56:22.000Z</time>
      </trkpt>
      <trkpt lat="41.5939853154122829437255859375" lon="2.082524411380290985107421875">
        <ele>211</ele>
        <time>2022-06-01T07:56:26.000Z</time>
      </trkpt>
      <trkpt lat="41.5940500237047672271728515625" lon="2.082491219043731689453125">
        <ele>211</ele>
        <time>2022-06-01T07:56:28.000Z</time>
      </trkpt>
      <trkpt lat="41.59426971338689327239990234375" lon="2.0823535881936550140380859375">
        <ele>211.399993896484375</ele>
        <time>2022-06-01T07:56:35.000Z</time>
      </trkpt>
      <trkpt lat="41.59438923932611942291259765625" lon="2.0822833478450775146484375">
        <ele>211.600006103515625</ele>
        <time>2022-06-01T07:56:38.000Z</time>
      </trkpt>
      <trkpt lat="41.59446559846401214599609375" lon="2.0822637341916561126708984375">
        <ele>211.600006103515625</ele>
        <time>2022-06-01T07:56:40.000Z</time>
      </trkpt>
      <trkpt lat="41.5945814363658428192138671875" lon="2.0822167955338954925537109375">
        <ele>211.600006103515625</ele>
        <time>2022-06-01T07:56:44.000Z</time>
      </trkpt>
      <trkpt lat="41.5946012176573276519775390625" lon="2.0821641571819782257080078125">
        <ele>211.399993896484375</ele>
        <time>2022-06-01T07:56:46.000Z</time>
      </trkpt>
      <trkpt lat="41.594589650630950927734375" lon="2.08209282718598842620849609375">
        <ele>211</ele>
        <time>2022-06-01T07:56:48.000Z</time>
      </trkpt>
      <trkpt lat="41.59452737309038639068603515625" lon="2.08187908865511417388916015625">
        <ele>209.8000030517578125</ele>
        <time>2022-06-01T07:56:54.000Z</time>
      </trkpt>
      <trkpt lat="41.59450717270374298095703125" lon="2.08174112252891063690185546875">
        <ele>208.8000030517578125</ele>
        <time>2022-06-01T07:56:58.000Z</time>
      </trkpt>
      <trkpt lat="41.59451790153980255126953125" lon="2.08171270787715911865234375">
        <ele>208.600006103515625</ele>
        <time>2022-06-01T07:56:59.000Z</time>
      </trkpt>
      <trkpt lat="41.59460616298019886016845703125" lon="2.08164707757532596588134765625">
        <ele>207.399993896484375</ele>
        <time>2022-06-01T07:57:04.000Z</time>
      </trkpt>
      <trkpt lat="41.5947091765701770782470703125" lon="2.08158069290220737457275390625">
        <ele>206.8000030517578125</ele>
        <time>2022-06-01T07:57:10.000Z</time>
      </trkpt>
      <trkpt lat="41.59471998922526836395263671875" lon="2.08155873231589794158935546875">
        <ele>206.8000030517578125</ele>
        <time>2022-06-01T07:57:11.000Z</time>
      </trkpt>
      <trkpt lat="41.59478218294680118560791015625" lon="2.08139562048017978668212890625">
        <ele>206.8000030517578125</ele>
        <time>2022-06-01T07:57:18.000Z</time>
      </trkpt>
      <trkpt lat="41.59482476301491260528564453125" lon="2.08119177259504795074462890625">
        <ele>207.1999969482421875</ele>
        <time>2022-06-01T07:57:25.000Z</time>
      </trkpt>
      <trkpt lat="41.59482828341424465179443359375" lon="2.0809824764728546142578125">
        <ele>208</ele>
        <time>2022-06-01T07:57:33.000Z</time>
      </trkpt>
      <trkpt lat="41.594846807420253753662109375" lon="2.0809457637369632720947265625">
        <ele>208.399993896484375</ele>
        <time>2022-06-01T07:57:35.000Z</time>
      </trkpt>
      <trkpt lat="41.59490489400923252105712890625" lon="2.0808720029890537261962890625">
        <ele>209.1999969482421875</ele>
        <time>2022-06-01T07:57:39.000Z</time>
      </trkpt>
      <trkpt lat="41.59491889178752899169921875" lon="2.08085297606885433197021484375">
        <ele>209.399993896484375</ele>
        <time>2022-06-01T07:57:40.000Z</time>
      </trkpt>
      <trkpt lat="41.59501436166465282440185546875" lon="2.0807382278144359588623046875">
        <ele>210.1999969482421875</ele>
        <time>2022-06-01T07:57:47.000Z</time>
      </trkpt>
      <trkpt lat="41.59507052041590213775634765625" lon="2.0806691609323024749755859375">
        <ele>210.600006103515625</ele>
        <time>2022-06-01T07:57:51.000Z</time>
      </trkpt>
      <trkpt lat="41.5951363183557987213134765625" lon="2.08059984259307384490966796875">
        <ele>210.8000030517578125</ele>
        <time>2022-06-01T07:57:55.000Z</time>
      </trkpt>
      <trkpt lat="41.595245115458965301513671875" lon="2.08049087785184383392333984375">
        <ele>211.1999969482421875</ele>
        <time>2022-06-01T07:58:01.000Z</time>
      </trkpt>
      <trkpt lat="41.595328934490680694580078125" lon="2.08042516373097896575927734375">
        <ele>211.600006103515625</ele>
        <time>2022-06-01T07:58:05.000Z</time>
      </trkpt>
      <trkpt lat="41.5954179503023624420166015625" lon="2.08037168718874454498291015625">
        <ele>211.8000030517578125</ele>
        <time>2022-06-01T07:58:09.000Z</time>
      </trkpt>
      <trkpt lat="41.59554124809801578521728515625" lon="2.08026188425719738006591796875">
        <ele>212.1999969482421875</ele>
        <time>2022-06-01T07:58:15.000Z</time>
      </trkpt>
      <trkpt lat="41.5956694073975086212158203125" lon="2.08018879406154155731201171875">
        <ele>212.600006103515625</ele>
        <time>2022-06-01T07:58:21.000Z</time>
      </trkpt>
      <trkpt lat="41.5956918708980083465576171875" lon="2.0801803283393383026123046875">
        <ele>212.8000030517578125</ele>
        <time>2022-06-01T07:58:22.000Z</time>
      </trkpt>
      <trkpt lat="41.59584618173539638519287109375" lon="2.08009407855570316314697265625">
        <ele>213</ele>
        <time>2022-06-01T07:58:29.000Z</time>
      </trkpt>
      <trkpt lat="41.5960125625133514404296875" lon="2.08003758452832698822021484375">
        <ele>213.1999969482421875</ele>
        <time>2022-06-01T07:58:36.000Z</time>
      </trkpt>
      <trkpt lat="41.596105434000492095947265625" lon="2.0799887180328369140625">
        <ele>213.399993896484375</ele>
        <time>2022-06-01T07:58:40.000Z</time>
      </trkpt>
      <trkpt lat="41.59615270793437957763671875" lon="2.07996533252298831939697265625">
        <ele>213.600006103515625</ele>
        <time>2022-06-01T07:58:42.000Z</time>
      </trkpt>
      <trkpt lat="41.59635119140148162841796875" lon="2.0798557810485363006591796875">
        <ele>214.399993896484375</ele>
        <time>2022-06-01T07:58:51.000Z</time>
      </trkpt>
      <trkpt lat="41.59639419056475162506103515625" lon="2.07983314990997314453125">
        <ele>214.600006103515625</ele>
        <time>2022-06-01T07:58:53.000Z</time>
      </trkpt>
      <trkpt lat="41.59653081558644771575927734375" lon="2.0797619037330150604248046875">
        <ele>214.600006103515625</ele>
        <time>2022-06-01T07:58:59.000Z</time>
      </trkpt>
      <trkpt lat="41.59672074951231479644775390625" lon="2.07972116768360137939453125">
        <ele>215</ele>
        <time>2022-06-01T07:59:07.000Z</time>
      </trkpt>
      <trkpt lat="41.596908085048198699951171875" lon="2.0796827785670757293701171875">
        <ele>215.1999969482421875</ele>
        <time>2022-06-01T07:59:15.000Z</time>
      </trkpt>
      <trkpt lat="41.5969726257026195526123046875" lon="2.07966878078877925872802734375">
        <ele>215.600006103515625</ele>
        <time>2022-06-01T07:59:18.000Z</time>
      </trkpt>
      <trkpt lat="41.5970934927463531494140625" lon="2.07965369336307048797607421875">
        <ele>216.1999969482421875</ele>
        <time>2022-06-01T07:59:24.000Z</time>
      </trkpt>
      <trkpt lat="41.59717538394033908843994140625" lon="2.079645060002803802490234375">
        <ele>216.600006103515625</ele>
        <time>2022-06-01T07:59:28.000Z</time>
      </trkpt>
      <trkpt lat="41.5971945784986019134521484375" lon="2.07964078523218631744384765625">
        <ele>216.8000030517578125</ele>
        <time>2022-06-01T07:59:29.000Z</time>
      </trkpt>
      <trkpt lat="41.59723305143415927886962890625" lon="2.07963424734771251678466796875">
        <ele>217.1999969482421875</ele>
        <time>2022-06-01T07:59:31.000Z</time>
      </trkpt>
      <trkpt lat="41.5973732806742191314697265625" lon="2.079614214599132537841796875">
        <ele>217.600006103515625</ele>
        <time>2022-06-01T07:59:39.000Z</time>
      </trkpt>
      <trkpt lat="41.5974453650414943695068359375" lon="2.07960541360080242156982421875">
        <ele>217.8000030517578125</ele>
        <time>2022-06-01T07:59:43.000Z</time>
      </trkpt>
      <trkpt lat="41.59747512079775333404541015625" lon="2.07959510385990142822265625">
        <ele>218</ele>
        <time>2022-06-01T07:59:45.000Z</time>
      </trkpt>
      <trkpt lat="41.59760470502078533172607421875" lon="2.07956149242818355560302734375">
        <ele>219</ele>
        <time>2022-06-01T07:59:53.000Z</time>
      </trkpt>
      <trkpt lat="41.59772506915032863616943359375" lon="2.079523019492626190185546875">
        <ele>219.600006103515625</ele>
        <time>2022-06-01T08:00:00.000Z</time>
      </trkpt>
      <trkpt lat="41.5978145040571689605712890625" lon="2.0795171521604061126708984375">
        <ele>220</ele>
        <time>2022-06-01T08:00:05.000Z</time>
      </trkpt>
      <trkpt lat="41.59784995950758457183837890625" lon="2.07951824180781841278076171875">
        <ele>220.399993896484375</ele>
        <time>2022-06-01T08:00:07.000Z</time>
      </trkpt>
      <trkpt lat="41.59791181795299053192138671875" lon="2.0795282162725925445556640625">
        <ele>221</ele>
        <time>2022-06-01T08:00:11.000Z</time>
      </trkpt>
      <trkpt lat="41.59798691980540752410888671875" lon="2.07954640500247478485107421875">
        <ele>221.600006103515625</ele>
        <time>2022-06-01T08:00:15.000Z</time>
      </trkpt>
      <trkpt lat="41.59807023592293262481689453125" lon="2.07957272417843341827392578125">
        <ele>222.1999969482421875</ele>
        <time>2022-06-01T08:00:19.000Z</time>
      </trkpt>
      <trkpt lat="41.59816193394362926483154296875" lon="2.0796080119907855987548828125">
        <ele>223</ele>
        <time>2022-06-01T08:00:23.000Z</time>
      </trkpt>
      <trkpt lat="41.5982503630220890045166015625" lon="2.07963676191866397857666015625">
        <ele>223.600006103515625</ele>
        <time>2022-06-01T08:00:27.000Z</time>
      </trkpt>
      <trkpt lat="41.59834197722375392913818359375" lon="2.07969610579311847686767578125">
        <ele>224</ele>
        <time>2022-06-01T08:00:32.000Z</time>
      </trkpt>
      <trkpt lat="41.59839880652725696563720703125" lon="2.07975042052567005157470703125">
        <ele>224.600006103515625</ele>
        <time>2022-06-01T08:00:36.000Z</time>
      </trkpt>
      <trkpt lat="41.598449684679508209228515625" lon="2.07977212965488433837890625">
        <ele>225.1999969482421875</ele>
        <time>2022-06-01T08:00:39.000Z</time>
      </trkpt>
      <trkpt lat="41.59849352203309535980224609375" lon="2.07981546409428119659423828125">
        <ele>225.600006103515625</ele>
        <time>2022-06-01T08:00:43.000Z</time>
      </trkpt>
      <trkpt lat="41.5985142253339290618896484375" lon="2.079839520156383514404296875">
        <ele>226</ele>
        <time>2022-06-01T08:00:45.000Z</time>
      </trkpt>
      <trkpt lat="41.59856510348618030548095703125" lon="2.0798718743026256561279296875">
        <ele>226.8000030517578125</ele>
        <time>2022-06-01T08:00:49.000Z</time>
      </trkpt>
      <trkpt lat="41.59859955310821533203125" lon="2.07990221679210662841796875">
        <ele>227.1999969482421875</ele>
        <time>2022-06-01T08:00:53.000Z</time>
      </trkpt>
      <trkpt lat="41.5986262075603008270263671875" lon="2.07995829172432422637939453125">
        <ele>227.600006103515625</ele>
        <time>2022-06-01T08:00:56.000Z</time>
      </trkpt>
      <trkpt lat="41.59862142987549304962158203125" lon="2.07998293451964855194091796875">
        <ele>227.600006103515625</ele>
        <time>2022-06-01T08:00:57.000Z</time>
      </trkpt>
      <trkpt lat="41.59855286590754985809326171875" lon="2.0800857804715633392333984375">
        <ele>228.399993896484375</ele>
        <time>2022-06-01T08:01:02.000Z</time>
      </trkpt>
      <trkpt lat="41.59852512180805206298828125" lon="2.08015090785920619964599609375">
        <ele>228.600006103515625</ele>
        <time>2022-06-01T08:01:05.000Z</time>
      </trkpt>
      <trkpt lat="41.5985075198113918304443359375" lon="2.0802225731313228607177734375">
        <ele>228.600006103515625</ele>
        <time>2022-06-01T08:01:08.000Z</time>
      </trkpt>
      <trkpt lat="41.59846552647650241851806640625" lon="2.0804126746952533721923828125">
        <ele>228.8000030517578125</ele>
        <time>2022-06-01T08:01:16.000Z</time>
      </trkpt>
      <trkpt lat="41.5985138900578022003173828125" lon="2.08049238659441471099853515625">
        <ele>229</ele>
        <time>2022-06-01T08:01:21.000Z</time>
      </trkpt>
      <trkpt lat="41.59858136437833309173583984375" lon="2.08047914318740367889404296875">
        <ele>229.1999969482421875</ele>
        <time>2022-06-01T08:01:26.000Z</time>
      </trkpt>
      <trkpt lat="41.59862394444644451141357421875" lon="2.0804757066071033477783203125">
        <ele>229.399993896484375</ele>
        <time>2022-06-01T08:01:29.000Z</time>
      </trkpt>
      <trkpt lat="41.5986369363963603973388671875" lon="2.08047260530292987823486328125">
        <ele>229.600006103515625</ele>
        <time>2022-06-01T08:01:30.000Z</time>
      </trkpt>
      <trkpt lat="41.5986637584865093231201171875" lon="2.0804673247039318084716796875">
        <ele>229.8000030517578125</ele>
        <time>2022-06-01T08:01:32.000Z</time>
      </trkpt>
      <trkpt lat="41.59876492805778980255126953125" lon="2.0804542489349842071533203125">
        <ele>230.8000030517578125</ele>
        <time>2022-06-01T08:01:39.000Z</time>
      </trkpt>
      <trkpt lat="41.59877582453191280364990234375" lon="2.08045500330626964569091796875">
        <ele>231</ele>
        <time>2022-06-01T08:01:40.000Z</time>
      </trkpt>
      <trkpt lat="41.59882326610386371612548828125" lon="2.0804545842111110687255859375">
        <ele>231.8000030517578125</ele>
        <time>2022-06-01T08:01:44.000Z</time>
      </trkpt>
      <trkpt lat="41.5988863818347454071044921875" lon="2.0804431848227977752685546875">
        <ele>232.399993896484375</ele>
        <time>2022-06-01T08:01:49.000Z</time>
      </trkpt>
      <trkpt lat="41.59891345538198947906494140625" lon="2.08043924532830715179443359375">
        <ele>233</ele>
        <time>2022-06-01T08:01:51.000Z</time>
      </trkpt>
      <trkpt lat="41.599004901945590972900390625" lon="2.080421559512615203857421875">
        <ele>234</ele>
        <time>2022-06-01T08:01:58.000Z</time>
      </trkpt>
      <trkpt lat="41.59908595494925975799560546875" lon="2.08042516373097896575927734375">
        <ele>235</ele>
        <time>2022-06-01T08:02:05.000Z</time>
      </trkpt>
      <trkpt lat="41.599098779261112213134765625" lon="2.0804240740835666656494140625">
        <ele>235.1999969482421875</ele>
        <time>2022-06-01T08:02:06.000Z</time>
      </trkpt>
      <trkpt lat="41.599185951054096221923828125" lon="2.080424912273883819580078125">
        <ele>236</ele>
        <time>2022-06-01T08:02:14.000Z</time>
      </trkpt>
      <trkpt lat="41.599210090935230255126953125" lon="2.08042281679809093475341796875">
        <ele>236.399993896484375</ele>
        <time>2022-06-01T08:02:16.000Z</time>
      </trkpt>
      <trkpt lat="41.59927840344607830047607421875" lon="2.08042616955935955047607421875">
        <ele>237</ele>
        <time>2022-06-01T08:02:22.000Z</time>
      </trkpt>
      <trkpt lat="41.59931343980133533477783203125" lon="2.0804223977029323577880859375">
        <ele>237.399993896484375</ele>
        <time>2022-06-01T08:02:25.000Z</time>
      </trkpt>
      <trkpt lat="41.59937764517962932586669921875" lon="2.08041359670460224151611328125">
        <ele>238.1999969482421875</ele>
        <time>2022-06-01T08:02:31.000Z</time>
      </trkpt>
      <trkpt lat="41.59938971512019634246826171875" lon="2.0804120041429996490478515625">
        <ele>238.399993896484375</ele>
        <time>2022-06-01T08:02:32.000Z</time>
      </trkpt>
      <trkpt lat="41.59947252832353115081787109375" lon="2.0804086513817310333251953125">
        <ele>239.1999969482421875</ele>
        <time>2022-06-01T08:02:40.000Z</time>
      </trkpt>
      <trkpt lat="41.5994828380644321441650390625" lon="2.08041108213365077972412109375">
        <ele>239.399993896484375</ele>
        <time>2022-06-01T08:02:41.000Z</time>
      </trkpt>
      <trkpt lat="41.59956053830683231353759765625" lon="2.08041024394333362579345703125">
        <ele>240.399993896484375</ele>
        <time>2022-06-01T08:02:48.000Z</time>
      </trkpt>
      <trkpt lat="41.59961870871484279632568359375" lon="2.080414183437824249267578125">
        <ele>241</ele>
        <time>2022-06-01T08:02:53.000Z</time>
      </trkpt>
      <trkpt lat="41.59966615028679370880126953125" lon="2.08041074685752391815185546875">
        <ele>241.399993896484375</ele>
        <time>2022-06-01T08:02:57.000Z</time>
      </trkpt>
      <trkpt lat="41.5997138433158397674560546875" lon="2.080408148467540740966796875">
        <ele>242</ele>
        <time>2022-06-01T08:03:01.000Z</time>
      </trkpt>
      <trkpt lat="41.5997661463916301727294921875" lon="2.0804002694785594940185546875">
        <ele>242.600006103515625</ele>
        <time>2022-06-01T08:03:06.000Z</time>
      </trkpt>
      <trkpt lat="41.5998137556016445159912109375" lon="2.0803935639560222625732421875">
        <ele>243</ele>
        <time>2022-06-01T08:03:10.000Z</time>
      </trkpt>
      <trkpt lat="41.59989313222467899322509765625" lon="2.0803855173289775848388671875">
        <ele>243.600006103515625</ele>
        <time>2022-06-01T08:03:16.000Z</time>
      </trkpt>
      <trkpt lat="41.59992179833352565765380859375" lon="2.0803831703960895538330078125">
        <ele>244</ele>
        <time>2022-06-01T08:03:18.000Z</time>
      </trkpt>
      <trkpt lat="41.5999854169785976409912109375" lon="2.080384008586406707763671875">
        <ele>244.8000030517578125</ele>
        <time>2022-06-01T08:03:22.000Z</time>
      </trkpt>
      <trkpt lat="41.60003914497792720794677734375" lon="2.08037964999675750732421875">
        <ele>245.399993896484375</ele>
        <time>2022-06-01T08:03:26.000Z</time>
      </trkpt>
      <trkpt lat="41.6000836528837680816650390625" lon="2.08037923090159893035888671875">
        <ele>245.8000030517578125</ele>
        <time>2022-06-01T08:03:30.000Z</time>
      </trkpt>
      <trkpt lat="41.60015330649912357330322265625" lon="2.08040387369692325592041015625">
        <ele>246.8000030517578125</ele>
        <time>2022-06-01T08:03:36.000Z</time>
      </trkpt>
      <trkpt lat="41.600177027285099029541015625" lon="2.08041443489491939544677734375">
        <ele>247</ele>
        <time>2022-06-01T08:03:38.000Z</time>
      </trkpt>
      <trkpt lat="41.6002519614994525909423828125" lon="2.08043840713798999786376953125">
        <ele>248</ele>
        <time>2022-06-01T08:03:44.000Z</time>
      </trkpt>
      <trkpt lat="41.6002653725445270538330078125" lon="2.0804438553750514984130859375">
        <ele>248.1999969482421875</ele>
        <time>2022-06-01T08:03:45.000Z</time>
      </trkpt>
      <trkpt lat="41.60034843720495700836181640625" lon="2.080503366887569427490234375">
        <ele>249.1999969482421875</ele>
        <time>2022-06-01T08:03:52.000Z</time>
      </trkpt>
      <trkpt lat="41.600361764430999755859375" lon="2.08051434718072414398193359375">
        <ele>249.1999969482421875</ele>
        <time>2022-06-01T08:03:53.000Z</time>
      </trkpt>
      <trkpt lat="41.60045228898525238037109375" lon="2.08058257587254047393798828125">
        <ele>250.1999969482421875</ele>
        <time>2022-06-01T08:04:01.000Z</time>
      </trkpt>
      <trkpt lat="41.60046360455453395843505859375" lon="2.0805927179753780364990234375">
        <ele>250.1999969482421875</ele>
        <time>2022-06-01T08:04:02.000Z</time>
      </trkpt>
      <trkpt lat="41.60055597312748432159423828125" lon="2.0806654728949069976806640625">
        <ele>251</ele>
        <time>2022-06-01T08:04:10.000Z</time>
      </trkpt>
      <trkpt lat="41.60057843662798404693603515625" lon="2.080683745443820953369140625">
        <ele>251.600006103515625</ele>
        <time>2022-06-01T08:04:12.000Z</time>
      </trkpt>
      <trkpt lat="41.6006351821124553680419921875" lon="2.0807258225977420806884765625">
        <ele>252</ele>
        <time>2022-06-01T08:04:17.000Z</time>
      </trkpt>
      <trkpt lat="41.60070165060460567474365234375" lon="2.08077728748321533203125">
        <ele>252.8000030517578125</ele>
        <time>2022-06-01T08:04:23.000Z</time>
      </trkpt>
      <trkpt lat="41.60072495229542255401611328125" lon="2.08079296164214611053466796875">
        <ele>253.1999969482421875</ele>
        <time>2022-06-01T08:04:25.000Z</time>
      </trkpt>
      <trkpt lat="41.600810699164867401123046875" lon="2.08086404018104076385498046875">
        <ele>254.1999969482421875</ele>
        <time>2022-06-01T08:04:33.000Z</time>
      </trkpt>
      <trkpt lat="41.6008217632770538330078125" lon="2.0808720029890537261962890625">
        <ele>254.1999969482421875</ele>
        <time>2022-06-01T08:04:34.000Z</time>
      </trkpt>
      <trkpt lat="41.6009040735661983489990234375" lon="2.08092455752193927764892578125">
        <ele>255.399993896484375</ele>
        <time>2022-06-01T08:04:41.000Z</time>
      </trkpt>
      <trkpt lat="41.60091589204967021942138671875" lon="2.08093059249222278594970703125">
        <ele>255.399993896484375</ele>
        <time>2022-06-01T08:04:42.000Z</time>
      </trkpt>
      <trkpt lat="41.60103390924632549285888671875" lon="2.0809883438050746917724609375">
        <ele>256.399993896484375</ele>
        <time>2022-06-01T08:04:52.000Z</time>
      </trkpt>
      <trkpt lat="41.60116701386868953704833984375" lon="2.08104207180440425872802734375">
        <ele>257.399993896484375</ele>
        <time>2022-06-01T08:05:02.000Z</time>
      </trkpt>
      <trkpt lat="41.6011806763708591461181640625" lon="2.0810483582317829132080078125">
        <ele>257.600006103515625</ele>
        <time>2022-06-01T08:05:03.000Z</time>
      </trkpt>
      <trkpt lat="41.6013211570680141448974609375" lon="2.08110275678336620330810546875">
        <ele>258.600006103515625</ele>
        <time>2022-06-01T08:05:13.000Z</time>
      </trkpt>
      <trkpt lat="41.60133616067469120025634765625" lon="2.08110761828720569610595703125">
        <ele>258.600006103515625</ele>
        <time>2022-06-01T08:05:14.000Z</time>
      </trkpt>
      <trkpt lat="41.6014663316309452056884765625" lon="2.0811657048761844635009765625">
        <ele>259.600006103515625</ele>
        <time>2022-06-01T08:05:23.000Z</time>
      </trkpt>
      <trkpt lat="41.60151201300323009490966796875" lon="2.0811791159212589263916015625">
        <ele>259.79998779296875</ele>
        <time>2022-06-01T08:05:26.000Z</time>
      </trkpt>
      <trkpt lat="41.60161477513611316680908203125" lon="2.08121892996132373809814453125">
        <ele>260.600006103515625</ele>
        <time>2022-06-01T08:05:33.000Z</time>
      </trkpt>
      <trkpt lat="41.60162935964763164520263671875" lon="2.08122412674129009246826171875">
        <ele>260.79998779296875</ele>
        <time>2022-06-01T08:05:34.000Z</time>
      </trkpt>
      <trkpt lat="41.60172424279153347015380859375" lon="2.08127073012292385101318359375">
        <ele>261.399993896484375</ele>
        <time>2022-06-01T08:05:41.000Z</time>
      </trkpt>
      <trkpt lat="41.6017546691000461578369140625" lon="2.08128447644412517547607421875">
        <ele>261.600006103515625</ele>
        <time>2022-06-01T08:05:43.000Z</time>
      </trkpt>
      <trkpt lat="41.601879559457302093505859375" lon="2.08134348504245281219482421875">
        <ele>262.600006103515625</ele>
        <time>2022-06-01T08:05:52.000Z</time>
      </trkpt>
      <trkpt lat="41.6019578464329242706298828125" lon="2.08139562048017978668212890625">
        <ele>263.600006103515625</ele>
        <time>2022-06-01T08:05:59.000Z</time>
      </trkpt>
      <trkpt lat="41.6019712574779987335205078125" lon="2.08140031434595584869384765625">
        <ele>263.79998779296875</ele>
        <time>2022-06-01T08:06:00.000Z</time>
      </trkpt>
      <trkpt lat="41.60209388472139835357666015625" lon="2.08143300376832485198974609375">
        <ele>264.399993896484375</ele>
        <time>2022-06-01T08:06:08.000Z</time>
      </trkpt>
      <trkpt lat="41.6021516360342502593994140625" lon="2.081446163356304168701171875">
        <ele>264.79998779296875</ele>
        <time>2022-06-01T08:06:12.000Z</time>
      </trkpt>
      <trkpt lat="41.60222120583057403564453125" lon="2.081453539431095123291015625">
        <ele>265.399993896484375</ele>
        <time>2022-06-01T08:06:17.000Z</time>
      </trkpt>
      <trkpt lat="41.602286584675312042236328125" lon="2.081451527774333953857421875">
        <ele>265.79998779296875</ele>
        <time>2022-06-01T08:06:22.000Z</time>
      </trkpt>
      <trkpt lat="41.602321453392505645751953125" lon="2.0814545452594757080078125">
        <ele>266.20001220703125</ele>
        <time>2022-06-01T08:06:25.000Z</time>
      </trkpt>
      <trkpt lat="41.60239697434008121490478515625" lon="2.08146150223910808563232421875">
        <ele>266.79998779296875</ele>
        <time>2022-06-01T08:06:31.000Z</time>
      </trkpt>
      <trkpt lat="41.6024101339280605316162109375" lon="2.08146200515329837799072265625">
        <ele>266.79998779296875</ele>
        <time>2022-06-01T08:06:32.000Z</time>
      </trkpt>
      <trkpt lat="41.6025056876242160797119140625" lon="2.081466950476169586181640625">
        <ele>267.79998779296875</ele>
        <time>2022-06-01T08:06:40.000Z</time>
      </trkpt>
      <trkpt lat="41.60251901485025882720947265625" lon="2.0814651064574718475341796875">
        <ele>268</ele>
        <time>2022-06-01T08:06:41.000Z</time>
      </trkpt>
      <trkpt lat="41.60262445919215679168701171875" lon="2.08145278505980968475341796875">
        <ele>268.79998779296875</ele>
        <time>2022-06-01T08:06:49.000Z</time>
      </trkpt>
      <trkpt lat="41.602654047310352325439453125" lon="2.08145228214561939239501953125">
        <ele>269</ele>
        <time>2022-06-01T08:06:51.000Z</time>
      </trkpt>
      <trkpt lat="41.602762676775455474853515625" lon="2.08146435208618640899658203125">
        <ele>270</ele>
        <time>2022-06-01T08:06:58.000Z</time>
      </trkpt>
      <trkpt lat="41.6027789376676082611083984375" lon="2.08146837539970874786376953125">
        <ele>270</ele>
        <time>2022-06-01T08:06:59.000Z</time>
      </trkpt>
      <trkpt lat="41.60288278944790363311767578125" lon="2.08149285055696964263916015625">
        <ele>271</ele>
        <time>2022-06-01T08:07:06.000Z</time>
      </trkpt>
      <trkpt lat="41.60291363485157489776611328125" lon="2.08150777034461498260498046875">
        <ele>271.399993896484375</ele>
        <time>2022-06-01T08:07:08.000Z</time>
      </trkpt>
      <trkpt lat="41.60297951661050319671630859375" lon="2.0815606601536273956298828125">
        <ele>272</ele>
        <time>2022-06-01T08:07:13.000Z</time>
      </trkpt>
      <trkpt lat="41.60301505587995052337646484375" lon="2.08159527741372585296630859375">
        <ele>272.399993896484375</ele>
        <time>2022-06-01T08:07:16.000Z</time>
      </trkpt>
      <trkpt lat="41.6030659340322017669677734375" lon="2.08169116638600826263427734375">
        <ele>273</ele>
        <time>2022-06-01T08:07:22.000Z</time>
      </trkpt>
      <trkpt lat="41.60308630205690860748291015625" lon="2.08174288272857666015625">
        <ele>273.20001220703125</ele>
        <time>2022-06-01T08:07:25.000Z</time>
      </trkpt>
      <trkpt lat="41.60309870727360248565673828125" lon="2.081830389797687530517578125">
        <ele>273.600006103515625</ele>
        <time>2022-06-01T08:07:30.000Z</time>
      </trkpt>
      <trkpt lat="41.60309962928295135498046875" lon="2.0819177292287349700927734375">
        <ele>274.399993896484375</ele>
        <time>2022-06-01T08:07:35.000Z</time>
      </trkpt>
      <trkpt lat="41.60309250466525554656982421875" lon="2.08202459849417209625244140625">
        <ele>275</ele>
        <time>2022-06-01T08:07:41.000Z</time>
      </trkpt>
      <trkpt lat="41.603073142468929290771484375" lon="2.082113362848758697509765625">
        <ele>275.399993896484375</ele>
        <time>2022-06-01T08:07:46.000Z</time>
      </trkpt>
      <trkpt lat="41.60306517966091632843017578125" lon="2.082145549356937408447265625">
        <ele>275.79998779296875</ele>
        <time>2022-06-01T08:07:48.000Z</time>
      </trkpt>
      <trkpt lat="41.60305679775774478912353515625" lon="2.0821758918464183807373046875">
        <ele>276.20001220703125</ele>
        <time>2022-06-01T08:07:50.000Z</time>
      </trkpt>
      <trkpt lat="41.60304321907460689544677734375" lon="2.08220631815493106842041015625">
        <ele>276.399993896484375</ele>
        <time>2022-06-01T08:07:52.000Z</time>
      </trkpt>
      <trkpt lat="41.6029822826385498046875" lon="2.0823529176414012908935546875">
        <ele>277.399993896484375</ele>
        <time>2022-06-01T08:08:01.000Z</time>
      </trkpt>
      <trkpt lat="41.60293710418045520782470703125" lon="2.08251158706843852996826171875">
        <ele>278.399993896484375</ele>
        <time>2022-06-01T08:08:10.000Z</time>
      </trkpt>
      <trkpt lat="41.602934338152408599853515625" lon="2.0825301110744476318359375">
        <ele>278.399993896484375</ele>
        <time>2022-06-01T08:08:11.000Z</time>
      </trkpt>
      <trkpt lat="41.60293224267661571502685546875" lon="2.0826643891632556915283203125">
        <ele>279</ele>
        <time>2022-06-01T08:08:18.000Z</time>
      </trkpt>
      <trkpt lat="41.60294850356876850128173828125" lon="2.0827996730804443359375">
        <ele>279.600006103515625</ele>
        <time>2022-06-01T08:08:24.000Z</time>
      </trkpt>
      <trkpt lat="41.60295621491968631744384765625" lon="2.0828412473201751708984375">
        <ele>279.79998779296875</ele>
        <time>2022-06-01T08:08:26.000Z</time>
      </trkpt>
      <trkpt lat="41.60299913026392459869384765625" lon="2.0829487033188343048095703125">
        <ele>280.399993896484375</ele>
        <time>2022-06-01T08:08:32.000Z</time>
      </trkpt>
      <trkpt lat="41.6030102781951427459716796875" lon="2.082963623106479644775390625">
        <ele>280.600006103515625</ele>
        <time>2022-06-01T08:08:33.000Z</time>
      </trkpt>
      <trkpt lat="41.6030954383313655853271484375" lon="2.0830958895385265350341796875">
        <ele>281.399993896484375</ele>
        <time>2022-06-01T08:08:41.000Z</time>
      </trkpt>
      <trkpt lat="41.60310608334839344024658203125" lon="2.08311022259294986724853515625">
        <ele>281.399993896484375</ele>
        <time>2022-06-01T08:08:42.000Z</time>
      </trkpt>
      <trkpt lat="41.6031983681023120880126953125" lon="2.0831763558089733123779296875">
        <ele>282.399993896484375</ele>
        <time>2022-06-01T08:08:49.000Z</time>
      </trkpt>
      <trkpt lat="41.60321387462317943572998046875" lon="2.08318297751247882843017578125">
        <ele>282.600006103515625</ele>
        <time>2022-06-01T08:08:50.000Z</time>
      </trkpt>
      <trkpt lat="41.60335217602550983428955078125" lon="2.0832263119518756866455078125">
        <ele>283.399993896484375</ele>
        <time>2022-06-01T08:08:59.000Z</time>
      </trkpt>
      <trkpt lat="41.60338134504854679107666015625" lon="2.08323947153985500335693359375">
        <ele>283.600006103515625</ele>
        <time>2022-06-01T08:09:01.000Z</time>
      </trkpt>
      <trkpt lat="41.60343348048627376556396484375" lon="2.0832757651805877685546875">
        <ele>284</ele>
        <time>2022-06-01T08:09:05.000Z</time>
      </trkpt>
      <trkpt lat="41.60342945717275142669677734375" lon="2.08338506519794464111328125">
        <ele>284.20001220703125</ele>
        <time>2022-06-01T08:09:10.000Z</time>
      </trkpt>
      <trkpt lat="41.60341478884220123291015625" lon="2.08347952924668788909912109375">
        <ele>284.600006103515625</ele>
        <time>2022-06-01T08:09:14.000Z</time>
      </trkpt>
      <trkpt lat="41.6034047305583953857421875" lon="2.08357675932347774505615234375">
        <ele>285</ele>
        <time>2022-06-01T08:09:18.000Z</time>
      </trkpt>
      <trkpt lat="41.60338419489562511444091796875" lon="2.083762250840663909912109375">
        <ele>285.399993896484375</ele>
        <time>2022-06-01T08:09:26.000Z</time>
      </trkpt>
      <trkpt lat="41.603386290371417999267578125" lon="2.0838095247745513916015625">
        <ele>285.399993896484375</ele>
        <time>2022-06-01T08:09:28.000Z</time>
      </trkpt>
      <trkpt lat="41.603397019207477569580078125" lon="2.08385336212813854217529296875">
        <ele>285.600006103515625</ele>
        <time>2022-06-01T08:09:30.000Z</time>
      </trkpt>
      <trkpt lat="41.603400707244873046875" lon="2.08389778621494770050048828125">
        <ele>285.79998779296875</ele>
        <time>2022-06-01T08:09:32.000Z</time>
      </trkpt>
      <trkpt lat="41.6034052334725856781005859375" lon="2.0840115286409854888916015625">
        <ele>286</ele>
        <time>2022-06-01T08:09:37.000Z</time>
      </trkpt>
      <trkpt lat="41.60341369919478893280029296875" lon="2.08410599268972873687744140625">
        <ele>286.20001220703125</ele>
        <time>2022-06-01T08:09:41.000Z</time>
      </trkpt>
      <trkpt lat="41.60347287543118000030517578125" lon="2.08425636403262615203857421875">
        <ele>286.600006103515625</ele>
        <time>2022-06-01T08:09:47.000Z</time>
      </trkpt>
      <trkpt lat="41.60348092205822467803955078125" lon="2.08428653888404369354248046875">
        <ele>286.600006103515625</ele>
        <time>2022-06-01T08:09:48.000Z</time>
      </trkpt>
      <trkpt lat="41.6035187244415283203125" lon="2.084491811692714691162109375">
        <ele>286.79998779296875</ele>
        <time>2022-06-01T08:09:55.000Z</time>
      </trkpt>
      <trkpt lat="41.603555940091609954833984375" lon="2.08473631180822849273681640625">
        <ele>287.20001220703125</ele>
        <time>2022-06-01T08:10:03.000Z</time>
      </trkpt>
      <trkpt lat="41.60359223373234272003173828125" lon="2.0849239826202392578125">
        <ele>287.20001220703125</ele>
        <time>2022-06-01T08:10:09.000Z</time>
      </trkpt>
      <trkpt lat="41.60361922346055507659912109375" lon="2.08516060374677181243896484375">
        <ele>287.399993896484375</ele>
        <time>2022-06-01T08:10:17.000Z</time>
      </trkpt>
      <trkpt lat="41.603626348078250885009765625" lon="2.085220701992511749267578125">
        <ele>287.399993896484375</ele>
        <time>2022-06-01T08:10:19.000Z</time>
      </trkpt>
      <trkpt lat="41.60363313741981983184814453125" lon="2.08533913828432559967041015625">
        <ele>287.399993896484375</ele>
        <time>2022-06-01T08:10:23.000Z</time>
      </trkpt>
      <trkpt lat="41.6036090813577175140380859375" lon="2.08538959734141826629638671875">
        <ele>287.600006103515625</ele>
        <time>2022-06-01T08:10:25.000Z</time>
      </trkpt>
      <trkpt lat="41.60356759093701839447021484375" lon="2.085423879325389862060546875">
        <ele>287.600006103515625</ele>
        <time>2022-06-01T08:10:27.000Z</time>
      </trkpt>
      <trkpt lat="41.60355300642549991607666015625" lon="2.08545145578682422637939453125">
        <ele>287.399993896484375</ele>
        <time>2022-06-01T08:10:28.000Z</time>
      </trkpt>
      <trkpt lat="41.60354554653167724609375" lon="2.08548414520919322967529296875">
        <ele>287.399993896484375</ele>
        <time>2022-06-01T08:10:29.000Z</time>
      </trkpt>
      <trkpt lat="41.60349232144653797149658203125" lon="2.08553762175142765045166015625">
        <ele>287.399993896484375</ele>
        <time>2022-06-01T08:10:33.000Z</time>
      </trkpt>
      <trkpt lat="41.60347807221114635467529296875" lon="2.0855390466749668121337890625">
        <ele>287.399993896484375</ele>
        <time>2022-06-01T08:10:34.000Z</time>
      </trkpt>
      <trkpt lat="41.60344772972166538238525390625" lon="2.08555120043456554412841796875">
        <ele>287.600006103515625</ele>
        <time>2022-06-01T08:10:37.000Z</time>
      </trkpt>
      <trkpt lat="41.60345661453902721405029296875" lon="2.0855819620192050933837890625">
        <ele>287.600006103515625</ele>
        <time>2022-06-01T08:10:39.000Z</time>
      </trkpt>
      <trkpt lat="41.60352534614503383636474609375" lon="2.08559428341686725616455078125">
        <ele>287.600006103515625</ele>
        <time>2022-06-01T08:10:44.000Z</time>
      </trkpt>
      <trkpt lat="41.6035239212214946746826171875" lon="2.08559143356978893280029296875">
        <ele>287.79998779296875</ele>
        <time>2022-06-01T08:10:51.000Z</time>
      </trkpt>
      <trkpt lat="41.603536494076251983642578125" lon="2.08558271639049053192138671875">
        <ele>287.79998779296875</ele>
        <time>2022-06-01T08:10:53.000Z</time>
      </trkpt>
      <trkpt lat="41.60352434031665325164794921875" lon="2.0855615101754665374755859375">
        <ele>287.79998779296875</ele>
        <time>2022-06-01T08:10:55.000Z</time>
      </trkpt>
      <trkpt lat="41.6034944169223308563232421875" lon="2.08563141524791717529296875">
        <ele>287.79998779296875</ele>
        <time>2022-06-01T08:10:58.000Z</time>
      </trkpt>
      <trkpt lat="41.60353825427591800689697265625" lon="2.08575882017612457275390625">
        <ele>287.79998779296875</ele>
        <time>2022-06-01T08:11:02.000Z</time>
      </trkpt>
      <trkpt lat="41.6035654954612255096435546875" lon="2.0857754163444042205810546875">
        <ele>287.79998779296875</ele>
        <time>2022-06-01T08:11:03.000Z</time>
      </trkpt>
      <trkpt lat="41.603617966175079345703125" lon="2.085806429386138916015625">
        <ele>287.600006103515625</ele>
        <time>2022-06-01T08:11:05.000Z</time>
      </trkpt>
      <trkpt lat="41.6037120111286640167236328125" lon="2.08587558008730411529541015625">
        <ele>287.600006103515625</ele>
        <time>2022-06-01T08:11:09.000Z</time>
      </trkpt>
      <trkpt lat="41.60387068055570125579833984375" lon="2.0859762467443943023681640625">
        <ele>287.79998779296875</ele>
        <time>2022-06-01T08:11:16.000Z</time>
      </trkpt>
      <trkpt lat="41.60398467443883419036865234375" lon="2.0860815234482288360595703125">
        <ele>287.79998779296875</ele>
        <time>2022-06-01T08:11:22.000Z</time>
      </trkpt>
      <trkpt lat="41.60408458672463893890380859375" lon="2.08620917983353137969970703125">
        <ele>288</ele>
        <time>2022-06-01T08:11:29.000Z</time>
      </trkpt>
      <trkpt lat="41.6041317768394947052001953125" lon="2.086253352463245391845703125">
        <ele>288.399993896484375</ele>
        <time>2022-06-01T08:11:32.000Z</time>
      </trkpt>
      <trkpt lat="41.60416320897638797760009765625" lon="2.086299620568752288818359375">
        <ele>288.399993896484375</ele>
        <time>2022-06-01T08:11:35.000Z</time>
      </trkpt>
      <trkpt lat="41.60426236689090728759765625" lon="2.08642208017408847808837890625">
        <ele>289.399993896484375</ele>
        <time>2022-06-01T08:11:43.000Z</time>
      </trkpt>
      <trkpt lat="41.60427535884082317352294921875" lon="2.08643884398043155670166015625">
        <ele>289.399993896484375</ele>
        <time>2022-06-01T08:11:44.000Z</time>
      </trkpt>
      <trkpt lat="41.6043989919126033782958984375" lon="2.08660237491130828857421875">
        <ele>290.399993896484375</ele>
        <time>2022-06-01T08:11:53.000Z</time>
      </trkpt>
      <trkpt lat="41.60448499023914337158203125" lon="2.08674050867557525634765625">
        <ele>291.20001220703125</ele>
        <time>2022-06-01T08:12:01.000Z</time>
      </trkpt>
      <trkpt lat="41.604510135948657989501953125" lon="2.08677135407924652099609375">
        <ele>291.399993896484375</ele>
        <time>2022-06-01T08:12:03.000Z</time>
      </trkpt>
      <trkpt lat="41.6045917756855487823486328125" lon="2.08690202794969081878662109375">
        <ele>292.20001220703125</ele>
        <time>2022-06-01T08:12:10.000Z</time>
      </trkpt>
      <trkpt lat="41.60461817868053913116455078125" lon="2.0869415067136287689208984375">
        <ele>292.399993896484375</ele>
        <time>2022-06-01T08:12:12.000Z</time>
      </trkpt>
      <trkpt lat="41.6046829707920551300048828125" lon="2.08701786585152149200439453125">
        <ele>293</ele>
        <time>2022-06-01T08:12:16.000Z</time>
      </trkpt>
      <trkpt lat="41.60473183728754520416259765625" lon="2.0870984159409999847412109375">
        <ele>293.399993896484375</ele>
        <time>2022-06-01T08:12:20.000Z</time>
      </trkpt>
      <trkpt lat="41.604789085686206817626953125" lon="2.087198831140995025634765625">
        <ele>294.20001220703125</ele>
        <time>2022-06-01T08:12:25.000Z</time>
      </trkpt>
      <trkpt lat="41.60484164021909236907958984375" lon="2.08730586804449558258056640625">
        <ele>294.600006103515625</ele>
        <time>2022-06-01T08:12:30.000Z</time>
      </trkpt>
      <trkpt lat="41.60488422028720378875732421875" lon="2.0873907767236232757568359375">
        <ele>295</ele>
        <time>2022-06-01T08:12:34.000Z</time>
      </trkpt>
      <trkpt lat="41.60494641400873661041259765625" lon="2.0875225402414798736572265625">
        <ele>295.600006103515625</ele>
        <time>2022-06-01T08:12:40.000Z</time>
      </trkpt>
      <trkpt lat="41.60497474484145641326904296875" lon="2.0875909365713596343994140625">
        <ele>295.79998779296875</ele>
        <time>2022-06-01T08:12:43.000Z</time>
      </trkpt>
      <trkpt lat="41.60502788610756397247314453125" lon="2.08770602010190486907958984375">
        <ele>296.20001220703125</ele>
        <time>2022-06-01T08:12:48.000Z</time>
      </trkpt>
      <trkpt lat="41.60507298074662685394287109375" lon="2.0878212712705135345458984375">
        <ele>296.600006103515625</ele>
        <time>2022-06-01T08:12:53.000Z</time>
      </trkpt>
      <trkpt lat="41.6051151417195796966552734375" lon="2.0879302360117435455322265625">
        <ele>297</ele>
        <time>2022-06-01T08:12:58.000Z</time>
      </trkpt>
      <trkpt lat="41.60513618029654026031494140625" lon="2.0881029032170772552490234375">
        <ele>297.399993896484375</ele>
        <time>2022-06-01T08:13:05.000Z</time>
      </trkpt>
      <trkpt lat="41.60516182892024517059326171875" lon="2.08825436420738697052001953125">
        <ele>297.600006103515625</ele>
        <time>2022-06-01T08:13:10.000Z</time>
      </trkpt>
      <trkpt lat="41.60524715669453144073486328125" lon="2.0883558690547943115234375">
        <ele>297.79998779296875</ele>
        <time>2022-06-01T08:13:15.000Z</time>
      </trkpt>
      <trkpt lat="41.6052891500294208526611328125" lon="2.0885572023689746856689453125">
        <ele>298.20001220703125</ele>
        <time>2022-06-01T08:13:22.000Z</time>
      </trkpt>
      <trkpt lat="41.60535511560738086700439453125" lon="2.08885719068348407745361328125">
        <ele>298.399993896484375</ele>
        <time>2022-06-01T08:13:30.000Z</time>
      </trkpt>
      <trkpt lat="41.6053625755012035369873046875" lon="2.08905517123639583587646484375">
        <ele>298.399993896484375</ele>
        <time>2022-06-01T08:13:35.000Z</time>
      </trkpt>
      <trkpt lat="41.60542116500437259674072265625" lon="2.089223898947238922119140625">
        <ele>298.399993896484375</ele>
        <time>2022-06-01T08:13:39.000Z</time>
      </trkpt>
      <trkpt lat="41.60545720718801021575927734375" lon="2.08954785950481891632080078125">
        <ele>298.20001220703125</ele>
        <time>2022-06-01T08:13:45.000Z</time>
      </trkpt>
      <trkpt lat="41.6054839454591274261474609375" lon="2.08981591276824474334716796875">
        <ele>297.79998779296875</ele>
        <time>2022-06-01T08:13:49.000Z</time>
      </trkpt>
      <trkpt lat="41.605501212179660797119140625" lon="2.08996578119695186614990234375">
        <ele>297.399993896484375</ele>
        <time>2022-06-01T08:13:51.000Z</time>
      </trkpt>
      <trkpt lat="41.60552166402339935302734375" lon="2.0901273004710674285888671875">
        <ele>297.399993896484375</ele>
        <time>2022-06-01T08:13:53.000Z</time>
      </trkpt>
      <trkpt lat="41.60558025352656841278076171875" lon="2.09056399762630462646484375">
        <ele>296.600006103515625</ele>
        <time>2022-06-01T08:13:58.000Z</time>
      </trkpt>
      <trkpt lat="41.6055935807526111602783203125" lon="2.09065309725701808929443359375">
        <ele>296.20001220703125</ele>
        <time>2022-06-01T08:13:59.000Z</time>
      </trkpt>
      <trkpt lat="41.605661809444427490234375" lon="2.09109842777252197265625">
        <ele>295.399993896484375</ele>
        <time>2022-06-01T08:14:04.000Z</time>
      </trkpt>
      <trkpt lat="41.60572241060435771942138671875" lon="2.09135969169437885284423828125">
        <ele>295</ele>
        <time>2022-06-01T08:14:07.000Z</time>
      </trkpt>
      <trkpt lat="41.60579248331487178802490234375" lon="2.091582231223583221435546875">
        <ele>294.399993896484375</ele>
        <time>2022-06-01T08:14:10.000Z</time>
      </trkpt>
      <trkpt lat="41.60580857656896114349365234375" lon="2.09164517931640148162841796875">
        <ele>294.20001220703125</ele>
        <time>2022-06-01T08:14:11.000Z</time>
      </trkpt>
      <trkpt lat="41.60583422519266605377197265625" lon="2.09188154898583889007568359375">
        <ele>293.399993896484375</ele>
        <time>2022-06-01T08:14:15.000Z</time>
      </trkpt>
      <trkpt lat="41.60586691461503505706787109375" lon="2.09192521870136260986328125">
        <ele>293.20001220703125</ele>
        <time>2022-06-01T08:14:16.000Z</time>
      </trkpt>
      <trkpt lat="41.60594469867646694183349609375" lon="2.0919884182512760162353515625">
        <ele>292.600006103515625</ele>
        <time>2022-06-01T08:14:18.000Z</time>
      </trkpt>
      <trkpt lat="41.606008149683475494384765625" lon="2.09212772548198699951171875">
        <ele>292.20001220703125</ele>
        <time>2022-06-01T08:14:21.000Z</time>
      </trkpt>
      <trkpt lat="41.60603019408881664276123046875" lon="2.09217675961554050445556640625">
        <ele>292.20001220703125</ele>
        <time>2022-06-01T08:14:22.000Z</time>
      </trkpt>
      <trkpt lat="41.60618660040199756622314453125" lon="2.092470042407512664794921875">
        <ele>292.20001220703125</ele>
        <time>2022-06-01T08:14:29.000Z</time>
      </trkpt>
      <trkpt lat="41.60638977773487567901611328125" lon="2.0927927456796169281005859375">
        <ele>293</ele>
        <time>2022-06-01T08:14:38.000Z</time>
      </trkpt>
      <trkpt lat="41.60652522929012775421142578125" lon="2.09297530353069305419921875">
        <ele>294</ele>
        <time>2022-06-01T08:14:44.000Z</time>
      </trkpt>
      <trkpt lat="41.6066010855138301849365234375" lon="2.0930604636669158935546875">
        <ele>294.20001220703125</ele>
        <time>2022-06-01T08:14:47.000Z</time>
      </trkpt>
      <trkpt lat="41.60681289620697498321533203125" lon="2.0932869426906108856201171875">
        <ele>294.79998779296875</ele>
        <time>2022-06-01T08:14:55.000Z</time>
      </trkpt>
      <trkpt lat="41.60689361393451690673828125" lon="2.09335810504853725433349609375">
        <ele>295</ele>
        <time>2022-06-01T08:14:58.000Z</time>
      </trkpt>
      <trkpt lat="41.606997549533843994140625" lon="2.0934493839740753173828125">
        <ele>295.20001220703125</ele>
        <time>2022-06-01T08:15:02.000Z</time>
      </trkpt>
      <trkpt lat="41.6070989705622196197509765625" lon="2.0935394056141376495361328125">
        <ele>295.20001220703125</ele>
        <time>2022-06-01T08:15:07.000Z</time>
      </trkpt>
      <trkpt lat="41.607525" lon="2.09456">
        <ele>298.67958</ele>
        <time>2022-06-01T08:38:12.998Z</time>
      </trkpt>
      <trkpt lat="41.607506" lon="2.094526">
        <ele>298.69169</ele>
        <time>2022-06-01T08:38:58.999Z</time>
      </trkpt>
      <trkpt lat="41.607459" lon="2.094469">
        <ele>298.74342</ele>
        <time>2022-06-01T08:39:02.999Z</time>
      </trkpt>
      <trkpt lat="41.607467" lon="2.094383">
        <ele>298.80781</ele>
        <time>2022-06-01T08:39:06.999Z</time>
      </trkpt>
      <trkpt lat="41.607457" lon="2.094242">
        <ele>298.97641</ele>
        <time>2022-06-01T08:39:21.000Z</time>
      </trkpt>
      <trkpt lat="41.607343" lon="2.094038">
        <ele>299.00922</ele>
        <time>2022-06-01T08:39:31.000Z</time>
      </trkpt>
      <trkpt lat="41.607306" lon="2.093856">
        <ele>299.06892</ele>
        <time>2022-06-01T08:39:39.000Z</time>
      </trkpt>
      <trkpt lat="41.607289" lon="2.093816">
        <ele>299.09004</ele>
        <time>2022-06-01T08:39:41.000Z</time>
      </trkpt>
      <trkpt lat="41.607193" lon="2.093714">
        <ele>299.16575</ele>
        <time>2022-06-01T08:39:47.000Z</time>
      </trkpt>
      <trkpt lat="41.606993" lon="2.093903">
        <ele>299.18762</ele>
        <time>2022-06-01T08:39:53.000Z</time>
      </trkpt>
      <trkpt lat="41.606781" lon="2.094291">
        <ele>298.97233</ele>
        <time>2022-06-01T08:39:58.000Z</time>
      </trkpt>
      <trkpt lat="41.606598" lon="2.09478">
        <ele>298.12285</ele>
        <time>2022-06-01T08:40:03.000Z</time>
      </trkpt>
      <trkpt lat="41.606309" lon="2.09504">
        <ele>296.33681</ele>
        <time>2022-06-01T08:40:07.000Z</time>
      </trkpt>
      <trkpt lat="41.605699" lon="2.095312">
        <ele>293.58775</ele>
        <time>2022-06-01T08:40:17.000Z</time>
      </trkpt>
      <trkpt lat="41.605552" lon="2.095355">
        <ele>293.50625</ele>
        <time>2022-06-01T08:40:21.001Z</time>
      </trkpt>
      <trkpt lat="41.605479" lon="2.095381">
        <ele>293.57833</ele>
        <time>2022-06-01T08:40:25.001Z</time>
      </trkpt>
      <trkpt lat="41.605428" lon="2.095408">
        <ele>293.70642</ele>
        <time>2022-06-01T08:40:29.001Z</time>
      </trkpt>
      <trkpt lat="41.605333" lon="2.095479">
        <ele>294.05235</ele>
        <time>2022-06-01T08:40:36.001Z</time>
      </trkpt>
      <trkpt lat="41.605225" lon="2.095505">
        <ele>294.40369</ele>
        <time>2022-06-01T08:40:40.001Z</time>
      </trkpt>
      <trkpt lat="41.605132" lon="2.095591">
        <ele>294.71168</ele>
        <time>2022-06-01T08:40:45.001Z</time>
      </trkpt>
      <trkpt lat="41.60509" lon="2.095723">
        <ele>294.90969</ele>
        <time>2022-06-01T08:40:50.001Z</time>
      </trkpt>
      <trkpt lat="41.605033" lon="2.09583">
        <ele>295.12748</ele>
        <time>2022-06-01T08:40:54.001Z</time>
      </trkpt>
      <trkpt lat="41.604953" lon="2.095962">
        <ele>295.33694</ele>
        <time>2022-06-01T08:40:59.001Z</time>
      </trkpt>
      <trkpt lat="41.604856" lon="2.096229">
        <ele>295.59139</ele>
        <time>2022-06-01T08:41:08.001Z</time>
      </trkpt>
      <trkpt lat="41.604706" lon="2.096496">
        <ele>295.76116</ele>
        <time>2022-06-01T08:41:19.001Z</time>
      </trkpt>
      <trkpt lat="41.604613" lon="2.096679">
        <ele>296.00247</ele>
        <time>2022-06-01T08:41:26.002Z</time>
      </trkpt>
      <trkpt lat="41.60456" lon="2.096788">
        <ele>296.217</ele>
        <time>2022-06-01T08:41:30.002Z</time>
      </trkpt>
      <trkpt lat="41.604506" lon="2.096997">
        <ele>296.72703</ele>
        <time>2022-06-01T08:41:37.002Z</time>
      </trkpt>
      <trkpt lat="41.604458" lon="2.097182">
        <ele>297.32587</ele>
        <time>2022-06-01T08:41:43.002Z</time>
      </trkpt>
      <trkpt lat="41.604379" lon="2.09742">
        <ele>298.03649</ele>
        <time>2022-06-01T08:41:51.002Z</time>
      </trkpt>
      <trkpt lat="41.604321" lon="2.097643">
        <ele>298.39028</ele>
        <time>2022-06-01T08:41:59.002Z</time>
      </trkpt>
      <trkpt lat="41.604317" lon="2.097756">
        <ele>298.56621</ele>
        <time>2022-06-01T08:42:03.002Z</time>
      </trkpt>
      <trkpt lat="41.60429" lon="2.097873">
        <ele>298.88759</ele>
        <time>2022-06-01T08:42:07.002Z</time>
      </trkpt>
      <trkpt lat="41.604283" lon="2.097957">
        <ele>299.12832</ele>
        <time>2022-06-01T08:42:10.002Z</time>
      </trkpt>
      <trkpt lat="41.604272" lon="2.098219">
        <ele>299.99627</ele>
        <time>2022-06-01T08:42:20.002Z</time>
      </trkpt>
      <trkpt lat="41.604226" lon="2.098338">
        <ele>300.64953</ele>
        <time>2022-06-01T08:42:26.003Z</time>
      </trkpt>
      <trkpt lat="41.604119" lon="2.0985">
        <ele>301.56834</ele>
        <time>2022-06-01T08:42:34.003Z</time>
      </trkpt>
      <trkpt lat="41.603942" lon="2.098608">
        <ele>303.2382</ele>
        <time>2022-06-01T08:42:43.003Z</time>
      </trkpt>
      <trkpt lat="41.603887" lon="2.098652">
        <ele>303.76602</ele>
        <time>2022-06-01T08:42:46.003Z</time>
      </trkpt>
      <trkpt lat="41.603594" lon="2.098839">
        <ele>305.49283</ele>
        <time>2022-06-01T08:43:00.003Z</time>
      </trkpt>
      <trkpt lat="41.6034" lon="2.098919">
        <ele>305.91158</ele>
        <time>2022-06-01T08:43:09.003Z</time>
      </trkpt>
      <trkpt lat="41.603199" lon="2.099073">
        <ele>306.3897</ele>
        <time>2022-06-01T08:43:19.003Z</time>
      </trkpt>
      <trkpt lat="41.602919" lon="2.099088">
        <ele>306.63621</ele>
        <time>2022-06-01T08:43:29.004Z</time>
      </trkpt>
      <trkpt lat="41.60264" lon="2.099005">
        <ele>306.71655</ele>
        <time>2022-06-01T08:43:37.004Z</time>
      </trkpt>
      <trkpt lat="41.602446" lon="2.098943">
        <ele>306.75379</ele>
        <time>2022-06-01T08:43:43.004Z</time>
      </trkpt>
      <trkpt lat="41.602162" lon="2.099041">
        <ele>306.78262</ele>
        <time>2022-06-01T08:43:50.004Z</time>
      </trkpt>
      <trkpt lat="41.601833" lon="2.099287">
        <ele>306.72149</ele>
        <time>2022-06-01T08:43:58.005Z</time>
      </trkpt>
      <trkpt lat="41.600982" lon="2.099937">
        <ele>305.28571</ele>
        <time>2022-06-01T08:44:13.002Z</time>
      </trkpt>
      <trkpt lat="41.600661" lon="2.10006">
        <ele>304.0231</ele>
        <time>2022-06-01T08:44:18.002Z</time>
      </trkpt>
      <trkpt lat="41.600358" lon="2.100084">
        <ele>302.82389</ele>
        <time>2022-06-01T08:44:23.002Z</time>
      </trkpt>
      <trkpt lat="41.600071" lon="2.100141">
        <ele>301.89985</ele>
        <time>2022-06-01T08:44:29.001Z</time>
      </trkpt>
      <trkpt lat="41.599948" lon="2.100239">
        <ele>301.56052</ele>
        <time>2022-06-01T08:44:33.001Z</time>
      </trkpt>
      <trkpt lat="41.599725" lon="2.100382">
        <ele>301.63852</ele>
        <time>2022-06-01T08:44:41.001Z</time>
      </trkpt>
      <trkpt lat="41.59947" lon="2.100499">
        <ele>302.07279</ele>
        <time>2022-06-01T08:44:53.001Z</time>
      </trkpt>
      <trkpt lat="41.599369" lon="2.10053">
        <ele>302.20834</ele>
        <time>2022-06-01T08:44:59.001Z</time>
      </trkpt>
      <trkpt lat="41.599253" lon="2.100543">
        <ele>302.47778</ele>
        <time>2022-06-01T08:45:11.001Z</time>
      </trkpt>
      <trkpt lat="41.599205" lon="2.100584">
        <ele>302.67859</ele>
        <time>2022-06-01T08:45:15.001Z</time>
      </trkpt>
      <trkpt lat="41.599118" lon="2.100605">
        <ele>303.11305</ele>
        <time>2022-06-01T08:45:22.001Z</time>
      </trkpt>
      <trkpt lat="41.599068" lon="2.100588">
        <ele>303.45293</ele>
        <time>2022-06-01T08:45:26.001Z</time>
      </trkpt>
      <trkpt lat="41.598929" lon="2.100619">
        <ele>304.16079</ele>
        <time>2022-06-01T08:45:34.001Z</time>
      </trkpt>
      <trkpt lat="41.598727" lon="2.100626">
        <ele>305.32954</ele>
        <time>2022-06-01T08:45:49.001Z</time>
      </trkpt>
      <trkpt lat="41.59856" lon="2.100647">
        <ele>306.05281</ele>
        <time>2022-06-01T08:46:01.002Z</time>
      </trkpt>
      <trkpt lat="41.598503" lon="2.100681">
        <ele>306.36964</ele>
        <time>2022-06-01T08:46:06.002Z</time>
      </trkpt>
      <trkpt lat="41.598377" lon="2.100697">
        <ele>306.88943</ele>
        <time>2022-06-01T08:46:14.002Z</time>
      </trkpt>
      <trkpt lat="41.598131" lon="2.10079">
        <ele>308.13403</ele>
        <time>2022-06-01T08:46:23.002Z</time>
      </trkpt>
      <trkpt lat="41.597908" lon="2.100858">
        <ele>308.98112</ele>
        <time>2022-06-01T08:46:29.002Z</time>
      </trkpt>
      <trkpt lat="41.597646" lon="2.10096">
        <ele>309.62952</ele>
        <time>2022-06-01T08:46:36.002Z</time>
      </trkpt>
      <trkpt lat="41.597413" lon="2.10093">
        <ele>309.58563</ele>
        <time>2022-06-01T08:46:41.002Z</time>
      </trkpt>
      <trkpt lat="41.596548" lon="2.101455">
        <ele>307.87098</ele>
        <time>2022-06-01T08:46:55.002Z</time>
      </trkpt>
      <trkpt lat="41.595769" lon="2.101867">
        <ele>307.05386</ele>
        <time>2022-06-01T08:47:08.002Z</time>
      </trkpt>
      <trkpt lat="41.595426" lon="2.102049">
        <ele>306.9518</ele>
        <time>2022-06-01T08:47:15.002Z</time>
      </trkpt>
      <trkpt lat="41.594897" lon="2.102225">
        <ele>306.89595</ele>
        <time>2022-06-01T08:47:27.003Z</time>
      </trkpt>
      <trkpt lat="41.59444" lon="2.102359">
        <ele>306.83865</ele>
        <time>2022-06-01T08:47:39.003Z</time>
      </trkpt>
      <trkpt lat="41.593783" lon="2.102652">
        <ele>306.71147</ele>
        <time>2022-06-01T08:47:55.003Z</time>
      </trkpt>
      <trkpt lat="41.593535" lon="2.102678">
        <ele>306.47152</ele>
        <time>2022-06-01T08:48:00.003Z</time>
      </trkpt>
      <trkpt lat="41.593284" lon="2.102505">
        <ele>305.7164</ele>
        <time>2022-06-01T08:48:05.003Z</time>
      </trkpt>
      <trkpt lat="41.592853" lon="2.102606">
        <ele>303.19135</ele>
        <time>2022-06-01T08:48:11.003Z</time>
      </trkpt>
      <trkpt lat="41.592619" lon="2.102762">
        <ele>300.67252</ele>
        <time>2022-06-01T08:48:15.003Z</time>
      </trkpt>
      <trkpt lat="41.592244" lon="2.102802">
        <ele>298.07438</ele>
        <time>2022-06-01T08:48:21.003Z</time>
      </trkpt>
      <trkpt lat="41.591704" lon="2.10303">
        <ele>296.09298</ele>
        <time>2022-06-01T08:48:30.003Z</time>
      </trkpt>
      <trkpt lat="41.591427" lon="2.10297">
        <ele>295.21359</ele>
        <time>2022-06-01T08:48:35.003Z</time>
      </trkpt>
      <trkpt lat="41.590952" lon="2.102729">
        <ele>293.97922</ele>
        <time>2022-06-01T08:48:45.003Z</time>
      </trkpt>
      <trkpt lat="41.590653" lon="2.102871">
        <ele>293.21309</ele>
        <time>2022-06-01T08:48:51.003Z</time>
      </trkpt>
      <trkpt lat="41.590333" lon="2.103125">
        <ele>292.20181</ele>
        <time>2022-06-01T08:48:58.003Z</time>
      </trkpt>
      <trkpt lat="41.589602" lon="2.103286">
        <ele>290.77673</ele>
        <time>2022-06-01T08:49:12.004Z</time>
      </trkpt>
      <trkpt lat="41.589355" lon="2.10336">
        <ele>290.57806</ele>
        <time>2022-06-01T08:49:17.004Z</time>
      </trkpt>
      <trkpt lat="41.589017" lon="2.103373">
        <ele>290.378</ele>
        <time>2022-06-01T08:49:23.004Z</time>
      </trkpt>
      <trkpt lat="41.588145" lon="2.103082">
        <ele>289.7317</ele>
        <time>2022-06-01T08:49:37.004Z</time>
      </trkpt>
      <trkpt lat="41.587777" lon="2.103024">
        <ele>289.03974</ele>
        <time>2022-06-01T08:49:44.004Z</time>
      </trkpt>
      <trkpt lat="41.587221" lon="2.103144">
        <ele>285.92982</ele>
        <time>2022-06-01T08:49:57.004Z</time>
      </trkpt>
      <trkpt lat="41.586822" lon="2.103357">
        <ele>283.47506</ele>
        <time>2022-06-01T08:50:11.004Z</time>
      </trkpt>
      <trkpt lat="41.58674" lon="2.103391">
        <ele>283.15164</ele>
        <time>2022-06-01T08:50:15.004Z</time>
      </trkpt>
      <trkpt lat="41.586264" lon="2.103605">
        <ele>282.34732</ele>
        <time>2022-06-01T08:50:29.005Z</time>
      </trkpt>
      <trkpt lat="41.586036" lon="2.103768">
        <ele>282.21095</ele>
        <time>2022-06-01T08:50:34.006Z</time>
      </trkpt>
      <trkpt lat="41.585987" lon="2.104016">
        <ele>282.11292</ele>
        <time>2022-06-01T08:50:39.006Z</time>
      </trkpt>
      <trkpt lat="41.586129" lon="2.104717">
        <ele>281.96276</ele>
        <time>2022-06-01T08:50:50.006Z</time>
      </trkpt>
      <trkpt lat="41.586213" lon="2.105011">
        <ele>281.7925</ele>
        <time>2022-06-01T08:50:56.006Z</time>
      </trkpt>
      <trkpt lat="41.586153" lon="2.105281">
        <ele>281.3692</ele>
        <time>2022-06-01T08:51:01.008Z</time>
      </trkpt>
      <trkpt lat="41.586013" lon="2.105615">
        <ele>279.97375</ele>
        <time>2022-06-01T08:51:06.007Z</time>
      </trkpt>
      <trkpt lat="41.585955" lon="2.105884">
        <ele>277.57416</ele>
        <time>2022-06-01T08:51:10.006Z</time>
      </trkpt>
      <trkpt lat="41.585687" lon="2.106444">
        <ele>270.29252</ele>
        <time>2022-06-01T08:51:18.004Z</time>
      </trkpt>
      <trkpt lat="41.585324" lon="2.106855">
        <ele>263.6914</ele>
        <time>2022-06-01T08:51:27.003Z</time>
      </trkpt>
      <trkpt lat="41.585221" lon="2.107193">
        <ele>260.76121</ele>
        <time>2022-06-01T08:51:32.002Z</time>
      </trkpt>
      <trkpt lat="41.585088" lon="2.107493">
        <ele>257.80509</ele>
        <time>2022-06-01T08:51:37.002Z</time>
      </trkpt>
      <trkpt lat="41.584909" lon="2.10775">
        <ele>254.51454</ele>
        <time>2022-06-01T08:51:43.002Z</time>
      </trkpt>
      <trkpt lat="41.584387" lon="2.108123">
        <ele>248.06886</ele>
        <time>2022-06-01T08:51:53.002Z</time>
      </trkpt>
      <trkpt lat="41.583948" lon="2.108287">
        <ele>243.50888</ele>
        <time>2022-06-01T08:52:00.002Z</time>
      </trkpt>
      <trkpt lat="41.58364" lon="2.108382">
        <ele>242.18718</ele>
        <time>2022-06-01T08:52:05.002Z</time>
      </trkpt>
      <trkpt lat="41.583323" lon="2.108543">
        <ele>241.66152</ele>
        <time>2022-06-01T08:52:11.002Z</time>
      </trkpt>
      <trkpt lat="41.583113" lon="2.108553">
        <ele>241.49531</ele>
        <time>2022-06-01T08:52:15.001Z</time>
      </trkpt>
      <trkpt lat="41.582965" lon="2.108565">
        <ele>241.47212</ele>
        <time>2022-06-01T08:52:18.001Z</time>
      </trkpt>
      <trkpt lat="41.582862" lon="2.10843">
        <ele>241.47521</ele>
        <time>2022-06-01T08:52:22.001Z</time>
      </trkpt>
      <trkpt lat="41.582782" lon="2.108321">
        <ele>241.62969</ele>
        <time>2022-06-01T08:52:26.001Z</time>
      </trkpt>
      <trkpt lat="41.582542" lon="2.1083">
        <ele>241.96037</ele>
        <time>2022-06-01T08:52:32.001Z</time>
      </trkpt>
      <trkpt lat="41.582343" lon="2.108157">
        <ele>242.14097</ele>
        <time>2022-06-01T08:52:37.001Z</time>
      </trkpt>
      <trkpt lat="41.582177" lon="2.108195">
        <ele>242.3577</ele>
        <time>2022-06-01T08:52:41.001Z</time>
      </trkpt>
      <trkpt lat="41.58205" lon="2.108305">
        <ele>242.51807</ele>
        <time>2022-06-01T08:52:45.001Z</time>
      </trkpt>
      <trkpt lat="41.58135" lon="2.108555">
        <ele>242.39364</ele>
        <time>2022-06-01T08:53:01.001Z</time>
      </trkpt>
      <trkpt lat="41.581047" lon="2.108638">
        <ele>242.22532</ele>
        <time>2022-06-01T08:53:07.001Z</time>
      </trkpt>
      <trkpt lat="41.580472" lon="2.109159">
        <ele>241.65908</ele>
        <time>2022-06-01T08:53:19.001Z</time>
      </trkpt>
      <trkpt lat="41.580252" lon="2.109262">
        <ele>241.30998</ele>
        <time>2022-06-01T08:53:24.001Z</time>
      </trkpt>
      <trkpt lat="41.580025" lon="2.109245">
        <ele>241.03604</ele>
        <time>2022-06-01T08:53:28.001Z</time>
      </trkpt>
      <trkpt lat="41.57975" lon="2.109332">
        <ele>240.80082</ele>
        <time>2022-06-01T08:53:34.001Z</time>
      </trkpt>
      <trkpt lat="41.579546" lon="2.109367">
        <ele>240.63824</ele>
        <time>2022-06-01T08:53:39.001Z</time>
      </trkpt>
      <trkpt lat="41.579268" lon="2.10919">
        <ele>240.44884</ele>
        <time>2022-06-01T08:53:48.001Z</time>
      </trkpt>
      <trkpt lat="41.578579" lon="2.10897">
        <ele>240.39696</ele>
        <time>2022-06-01T08:54:05.001Z</time>
      </trkpt>
      <trkpt lat="41.578368" lon="2.108938">
        <ele>240.3901</ele>
        <time>2022-06-01T08:54:09.001Z</time>
      </trkpt>
      <trkpt lat="41.578136" lon="2.109009">
        <ele>240.38248</ele>
        <time>2022-06-01T08:54:13.001Z</time>
      </trkpt>
      <trkpt lat="41.577599" lon="2.10897">
        <ele>240.33454</ele>
        <time>2022-06-01T08:54:22.001Z</time>
      </trkpt>
      <trkpt lat="41.577259" lon="2.109127">
        <ele>240.22155</ele>
        <time>2022-06-01T08:54:29.001Z</time>
      </trkpt>
      <trkpt lat="41.577173" lon="2.109099">
        <ele>240.13993</ele>
        <time>2022-06-01T08:54:32.001Z</time>
      </trkpt>
      <trkpt lat="41.577224" lon="2.108963">
        <ele>240.05611</ele>
        <time>2022-06-01T08:54:37.001Z</time>
      </trkpt>
      <trkpt lat="41.577381" lon="2.108706">
        <ele>239.93537</ele>
        <time>2022-06-01T08:54:44.001Z</time>
      </trkpt>
      <trkpt lat="41.577574" lon="2.108348">
        <ele>239.92315</ele>
        <time>2022-06-01T08:54:53.001Z</time>
      </trkpt>
      <trkpt lat="41.577722" lon="2.108052">
        <ele>239.94549</ele>
        <time>2022-06-01T08:55:01.001Z</time>
      </trkpt>
      <trkpt lat="41.577849" lon="2.107918">
        <ele>239.98741</ele>
        <time>2022-06-01T08:55:08.001Z</time>
      </trkpt>
      <trkpt lat="41.577987" lon="2.107783">
        <ele>240.08534</ele>
        <time>2022-06-01T08:55:14.001Z</time>
      </trkpt>
      <trkpt lat="41.578037" lon="2.107712">
        <ele>240.13874</ele>
        <time>2022-06-01T08:55:18.001Z</time>
      </trkpt>
      <trkpt lat="41.578116" lon="2.10758">
        <ele>240.29649</ele>
        <time>2022-06-01T08:55:24.001Z</time>
      </trkpt>
      <trkpt lat="41.578295" lon="2.107334">
        <ele>240.924</ele>
        <time>2022-06-01T08:55:35.001Z</time>
      </trkpt>
      <trkpt lat="41.578345" lon="2.107232">
        <ele>241.4393</ele>
        <time>2022-06-01T08:55:40.001Z</time>
      </trkpt>
      <trkpt lat="41.578393" lon="2.10714">
        <ele>241.86485</ele>
        <time>2022-06-01T08:55:44.001Z</time>
      </trkpt>
      <trkpt lat="41.578456" lon="2.107019">
        <ele>242.61224</ele>
        <time>2022-06-01T08:55:49.001Z</time>
      </trkpt>
      <trkpt lat="41.578555" lon="2.106925">
        <ele>243.47927</ele>
        <time>2022-06-01T08:55:54.001Z</time>
      </trkpt>
      <trkpt lat="41.578606" lon="2.106794">
        <ele>244.62765</ele>
        <time>2022-06-01T08:55:59.001Z</time>
      </trkpt>
      <trkpt lat="41.578685" lon="2.106708">
        <ele>245.35125</ele>
        <time>2022-06-01T08:56:03.001Z</time>
      </trkpt>
      <trkpt lat="41.578824" lon="2.106485">
        <ele>246.51854</ele>
        <time>2022-06-01T08:56:13.001Z</time>
      </trkpt>
      <trkpt lat="41.578926" lon="2.106374">
        <ele>247.12249</ele>
        <time>2022-06-01T08:56:19.001Z</time>
      </trkpt>
      <trkpt lat="41.579028" lon="2.10619">
        <ele>247.85771</ele>
        <time>2022-06-01T08:56:26.001Z</time>
      </trkpt>
      <trkpt lat="41.579095" lon="2.1061">
        <ele>248.06886</ele>
        <time>2022-06-01T08:56:30.001Z</time>
      </trkpt>
      <trkpt lat="41.579273" lon="2.105748">
        <ele>248.75046</ele>
        <time>2022-06-01T08:56:43.001Z</time>
      </trkpt>
      <trkpt lat="41.57933" lon="2.105649">
        <ele>248.86048</ele>
        <time>2022-06-01T08:56:47.001Z</time>
      </trkpt>
      <trkpt lat="41.579435" lon="2.105393">
        <ele>249.081</ele>
        <time>2022-06-01T08:56:56.001Z</time>
      </trkpt>
      <trkpt lat="41.57953" lon="2.105298">
        <ele>249.15567</ele>
        <time>2022-06-01T08:57:00.001Z</time>
      </trkpt>
      <trkpt lat="41.579621" lon="2.10519">
        <ele>249.20205</ele>
        <time>2022-06-01T08:57:05.001Z</time>
      </trkpt>
      <trkpt lat="41.579689" lon="2.105084">
        <ele>249.21002</ele>
        <time>2022-06-01T08:57:09.001Z</time>
      </trkpt>
      <trkpt lat="41.579762" lon="2.105029">
        <ele>249.20274</ele>
        <time>2022-06-01T08:57:12.002Z</time>
      </trkpt>
      <trkpt lat="41.579836" lon="2.104912">
        <ele>249.19213</ele>
        <time>2022-06-01T08:57:16.001Z</time>
      </trkpt>
      <trkpt lat="41.579919" lon="2.104758">
        <ele>249.17789</ele>
        <time>2022-06-01T08:57:21.001Z</time>
      </trkpt>
      <trkpt lat="41.580104" lon="2.104476">
        <ele>249.1595</ele>
        <time>2022-06-01T08:57:29.001Z</time>
      </trkpt>
      <trkpt lat="41.580208" lon="2.104286">
        <ele>249.13481</ele>
        <time>2022-06-01T08:57:34.001Z</time>
      </trkpt>
      <trkpt lat="41.580244" lon="2.104063">
        <ele>249.11131</ele>
        <time>2022-06-01T08:57:38.001Z</time>
      </trkpt>
      <trkpt lat="41.580539" lon="2.103226">
        <ele>248.96292</ele>
        <time>2022-06-01T08:57:52.001Z</time>
      </trkpt>
      <trkpt lat="41.580591" lon="2.102594">
        <ele>248.83209</ele>
        <time>2022-06-01T08:58:01.001Z</time>
      </trkpt>
      <trkpt lat="41.580498" lon="2.102362">
        <ele>248.75403</ele>
        <time>2022-06-01T08:58:06.001Z</time>
      </trkpt>
      <trkpt lat="41.580266" lon="2.102148">
        <ele>248.67375</ele>
        <time>2022-06-01T08:58:12.003Z</time>
      </trkpt>
      <trkpt lat="41.579967" lon="2.101958">
        <ele>248.5733</ele>
        <time>2022-06-01T08:58:19.002Z</time>
      </trkpt>
      <trkpt lat="41.579777" lon="2.10196">
        <ele>248.49193</ele>
        <time>2022-06-01T08:58:24.001Z</time>
      </trkpt>
      <trkpt lat="41.579139" lon="2.101855">
        <ele>248.30714</ele>
        <time>2022-06-01T08:58:39.001Z</time>
      </trkpt>
      <trkpt lat="41.578626" lon="2.101851">
        <ele>248.19762</ele>
        <time>2022-06-01T08:58:51.001Z</time>
      </trkpt>
      <trkpt lat="41.577983" lon="2.101746">
        <ele>247.84734</ele>
        <time>2022-06-01T08:59:04.001Z</time>
      </trkpt>
      <trkpt lat="41.577296" lon="2.102049">
        <ele>246.40073</ele>
        <time>2022-06-01T08:59:17.000Z</time>
      </trkpt>
      <trkpt lat="41.57664" lon="2.102873">
        <ele>243.89403</ele>
        <time>2022-06-01T08:59:32.000Z</time>
      </trkpt>
      <trkpt lat="41.576251" lon="2.103288">
        <ele>242.91392</ele>
        <time>2022-06-01T08:59:40.000Z</time>
      </trkpt>
      <trkpt lat="41.575871" lon="2.103837">
        <ele>242.10427</ele>
        <time>2022-06-01T08:59:49.000Z</time>
      </trkpt>
      <trkpt lat="41.575247" lon="2.104434">
        <ele>240.7079</ele>
        <time>2022-06-01T09:00:02.000Z</time>
      </trkpt>
      <trkpt lat="41.574677" lon="2.104927">
        <ele>239.51098</ele>
        <time>2022-06-01T09:00:14.000Z</time>
      </trkpt>
      <trkpt lat="41.5741" lon="2.105233">
        <ele>238.48427</ele>
        <time>2022-06-01T09:00:26.000Z</time>
      </trkpt>
      <trkpt lat="41.573334" lon="2.105812">
        <ele>237.62713</ele>
        <time>2022-06-01T09:00:40.000Z</time>
      </trkpt>
      <trkpt lat="41.572431" lon="2.106371">
        <ele>235.90347</ele>
        <time>2022-06-01T09:00:56.000Z</time>
      </trkpt>
      <trkpt lat="41.571662" lon="2.106882">
        <ele>232.64944</ele>
        <time>2022-06-01T09:01:09.000Z</time>
      </trkpt>
      <trkpt lat="41.571214" lon="2.107042">
        <ele>229.76476</ele>
        <time>2022-06-01T09:01:17.000Z</time>
      </trkpt>
      <trkpt lat="41.570993" lon="2.107455">
        <ele>225.11431</ele>
        <time>2022-06-01T09:01:25.000Z</time>
      </trkpt>
      <trkpt lat="41.570774" lon="2.108115">
        <ele>224.00938</ele>
        <time>2022-06-01T09:01:36.000Z</time>
      </trkpt>
      <trkpt lat="41.570403" lon="2.108918">
        <ele>223.09634</ele>
        <time>2022-06-01T09:01:50.000Z</time>
      </trkpt>
      <trkpt lat="41.570188" lon="2.10923">
        <ele>222.85826</ele>
        <time>2022-06-01T09:01:57.000Z</time>
      </trkpt>
      <trkpt lat="41.570063" lon="2.109075">
        <ele>222.71576</ele>
        <time>2022-06-01T09:02:02.000Z</time>
      </trkpt>
      <trkpt lat="41.570099" lon="2.10864">
        <ele>221.88704</ele>
        <time>2022-06-01T09:02:09.000Z</time>
      </trkpt>
      <trkpt lat="41.570376" lon="2.107981">
        <ele>218.19719</ele>
        <time>2022-06-01T09:02:20.000Z</time>
      </trkpt>
      <trkpt lat="41.570436" lon="2.107748">
        <ele>217.11388</ele>
        <time>2022-06-01T09:02:24.000Z</time>
      </trkpt>
      <trkpt lat="41.570557" lon="2.107254">
        <ele>214.67193</ele>
        <time>2022-06-01T09:02:32.000Z</time>
      </trkpt>
      <trkpt lat="41.57069" lon="2.106782">
        <ele>211.07231</ele>
        <time>2022-06-01T09:02:39.000Z</time>
      </trkpt>
      <trkpt lat="41.570933" lon="2.106322">
        <ele>206.20266</ele>
        <time>2022-06-01T09:02:48.000Z</time>
      </trkpt>
      <trkpt lat="41.570655" lon="2.106449">
        <ele>202.46824</ele>
        <time>2022-06-01T09:02:59.999Z</time>
      </trkpt>
      <trkpt lat="41.570236" lon="2.107082">
        <ele>199.8866</ele>
        <time>2022-06-01T09:03:10.999Z</time>
      </trkpt>
      <trkpt lat="41.570103" lon="2.107127">
        <ele>199.28868</ele>
        <time>2022-06-01T09:03:14.999Z</time>
      </trkpt>
      <trkpt lat="41.569579" lon="2.10668">
        <ele>194.72421</ele>
        <time>2022-06-01T09:03:28.999Z</time>
      </trkpt>
      <trkpt lat="41.569339" lon="2.106627">
        <ele>192.86857</ele>
        <time>2022-06-01T09:03:33.999Z</time>
      </trkpt>
      <trkpt lat="41.569161" lon="2.106723">
        <ele>191.29838</ele>
        <time>2022-06-01T09:03:37.999Z</time>
      </trkpt>
      <trkpt lat="41.568998" lon="2.106829">
        <ele>189.52958</ele>
        <time>2022-06-01T09:03:41.999Z</time>
      </trkpt>
      <trkpt lat="41.568898" lon="2.107001">
        <ele>187.60034</ele>
        <time>2022-06-01T09:03:46.999Z</time>
      </trkpt>
      <trkpt lat="41.568646" lon="2.107403">
        <ele>183.92429</ele>
        <time>2022-06-01T09:03:55.999Z</time>
      </trkpt>
      <trkpt lat="41.568342" lon="2.107672">
        <ele>181.20454</ele>
        <time>2022-06-01T09:04:06.999Z</time>
      </trkpt>
      <trkpt lat="41.568258" lon="2.107829">
        <ele>180.41663</ele>
        <time>2022-06-01T09:04:09.999Z</time>
      </trkpt>
      <trkpt lat="41.568234" lon="2.108159">
        <ele>179.3621</ele>
        <time>2022-06-01T09:04:17.999Z</time>
      </trkpt>
      <trkpt lat="41.568061" lon="2.108295">
        <ele>179.31503</ele>
        <time>2022-06-01T09:04:23.999Z</time>
      </trkpt>
      <trkpt lat="41.567767" lon="2.108252">
        <ele>178.84342</ele>
        <time>2022-06-01T09:04:29.999Z</time>
      </trkpt>
      <trkpt lat="41.567278" lon="2.10857">
        <ele>172.98132</ele>
        <time>2022-06-01T09:04:40.999Z</time>
      </trkpt>
      <trkpt lat="41.566609" lon="2.109177">
        <ele>167.30448</ele>
        <time>2022-06-01T09:04:54.999Z</time>
      </trkpt>
      <trkpt lat="41.566237" lon="2.109649">
        <ele>165.38602</ele>
        <time>2022-06-01T09:05:03.999Z</time>
      </trkpt>
      <trkpt lat="41.566082" lon="2.109548">
        <ele>164.81199</ele>
        <time>2022-06-01T09:05:08.999Z</time>
      </trkpt>
      <trkpt lat="41.565914" lon="2.109411">
        <ele>163.57625</ele>
        <time>2022-06-01T09:05:14.001Z</time>
      </trkpt>
      <trkpt lat="41.56582" lon="2.109349">
        <ele>162.198</ele>
        <time>2022-06-01T09:05:18.001Z</time>
      </trkpt>
      <trkpt lat="41.565738" lon="2.109274">
        <ele>161.02927</ele>
        <time>2022-06-01T09:05:22.001Z</time>
      </trkpt>
      <trkpt lat="41.565634" lon="2.109213">
        <ele>159.86564</ele>
        <time>2022-06-01T09:05:26.000Z</time>
      </trkpt>
      <trkpt lat="41.565429" lon="2.109177">
        <ele>158.09895</ele>
        <time>2022-06-01T09:05:33.000Z</time>
      </trkpt>
      <trkpt lat="41.565073" lon="2.109256">
        <ele>157.84769</ele>
        <time>2022-06-01T09:05:45.000Z</time>
      </trkpt>
      <trkpt lat="41.564917" lon="2.109313">
        <ele>157.96637</ele>
        <time>2022-06-01T09:05:51.000Z</time>
      </trkpt>
      <trkpt lat="41.56477" lon="2.109269">
        <ele>158.08857</ele>
        <time>2022-06-01T09:05:57.000Z</time>
      </trkpt>
      <trkpt lat="41.564622" lon="2.10914">
        <ele>158.31272</ele>
        <time>2022-06-01T09:06:03.000Z</time>
      </trkpt>
      <trkpt lat="41.56456" lon="2.109052">
        <ele>158.50198</ele>
        <time>2022-06-01T09:06:06.000Z</time>
      </trkpt>
      <trkpt lat="41.564467" lon="2.108833">
        <ele>158.99995</ele>
        <time>2022-06-01T09:06:14.000Z</time>
      </trkpt>
      <trkpt lat="41.564439" lon="2.108718">
        <ele>159.45077</ele>
        <time>2022-06-01T09:06:18.000Z</time>
      </trkpt>
      <trkpt lat="41.56447" lon="2.108459">
        <ele>160.8745</ele>
        <time>2022-06-01T09:06:29.000Z</time>
      </trkpt>
      <trkpt lat="41.564513" lon="2.108257">
        <ele>162.52347</ele>
        <time>2022-06-01T09:06:38.000Z</time>
      </trkpt>
      <trkpt lat="41.564518" lon="2.108171">
        <ele>163.29719</ele>
        <time>2022-06-01T09:06:42.000Z</time>
      </trkpt>
      <trkpt lat="41.564599" lon="2.10801">
        <ele>165.00482</ele>
        <time>2022-06-01T09:06:49.000Z</time>
      </trkpt>
      <trkpt lat="41.564638" lon="2.107883">
        <ele>166.41173</ele>
        <time>2022-06-01T09:06:54.000Z</time>
      </trkpt>
      <trkpt lat="41.564641" lon="2.107731">
        <ele>168.20321</ele>
        <time>2022-06-01T09:07:01.000Z</time>
      </trkpt>
      <trkpt lat="41.564669" lon="2.107555">
        <ele>169.59475</ele>
        <time>2022-06-01T09:07:07.000Z</time>
      </trkpt>
      <trkpt lat="41.564655" lon="2.107252">
        <ele>171.26181</ele>
        <time>2022-06-01T09:07:19.000Z</time>
      </trkpt>
      <trkpt lat="41.564629" lon="2.107148">
        <ele>171.60724</ele>
        <time>2022-06-01T09:07:23.000Z</time>
      </trkpt>
      <trkpt lat="41.564555" lon="2.106955">
        <ele>172.1567</ele>
        <time>2022-06-01T09:07:31.000Z</time>
      </trkpt>
      <trkpt lat="41.564487" lon="2.106844">
        <ele>172.52103</ele>
        <time>2022-06-01T09:07:41.000Z</time>
      </trkpt>
      <trkpt lat="41.564476" lon="2.106805">
        <ele>172.57445</ele>
        <time>2022-06-01T09:07:43.000Z</time>
      </trkpt>
      <trkpt lat="41.564458" lon="2.106738">
        <ele>172.68492</ele>
        <time>2022-06-01T09:07:48.000Z</time>
      </trkpt>
      <trkpt lat="41.5644" lon="2.106646">
        <ele>172.82586</ele>
        <time>2022-06-01T09:07:54.000Z</time>
      </trkpt>
      <trkpt lat="41.564364" lon="2.106549">
        <ele>173.00956</ele>
        <time>2022-06-01T09:07:59.000Z</time>
      </trkpt>
      <trkpt lat="41.5643" lon="2.106548">
        <ele>173.15424</ele>
        <time>2022-06-01T09:08:03.000Z</time>
      </trkpt>
      <trkpt lat="41.564163" lon="2.106508">
        <ele>173.44368</ele>
        <time>2022-06-01T09:08:14.000Z</time>
      </trkpt>
      <trkpt lat="41.564129" lon="2.106532">
        <ele>173.49157</ele>
        <time>2022-06-01T09:08:16.000Z</time>
      </trkpt>
      <trkpt lat="41.564106" lon="2.10656">
        <ele>173.533</ele>
        <time>2022-06-01T09:08:19.000Z</time>
      </trkpt>
      <trkpt lat="41.564076" lon="2.106564">
        <ele>173.57099</ele>
        <time>2022-06-01T09:08:21.000Z</time>
      </trkpt>
      <trkpt lat="41.563969" lon="2.106608">
        <ele>173.72502</ele>
        <time>2022-06-01T09:08:30.000Z</time>
      </trkpt>
      <trkpt lat="41.56389" lon="2.106589">
        <ele>173.81515</ele>
        <time>2022-06-01T09:08:35.000Z</time>
      </trkpt>
      <trkpt lat="41.563813" lon="2.106633">
        <ele>173.98683</ele>
        <time>2022-06-01T09:08:40.999Z</time>
      </trkpt>
      <trkpt lat="41.56378" lon="2.106617">
        <ele>174.04035</ele>
        <time>2022-06-01T09:08:42.999Z</time>
      </trkpt>
      <trkpt lat="41.563748" lon="2.106616">
        <ele>174.09722</ele>
        <time>2022-06-01T09:08:44.999Z</time>
      </trkpt>
      <trkpt lat="41.563694" lon="2.106647">
        <ele>174.21708</ele>
        <time>2022-06-01T09:08:48.999Z</time>
      </trkpt>
      <trkpt lat="41.563628" lon="2.106629">
        <ele>174.38818</ele>
        <time>2022-06-01T09:08:55.999Z</time>
      </trkpt>
      <trkpt lat="41.563573" lon="2.106617">
        <ele>174.52169</ele>
        <time>2022-06-01T09:08:59.999Z</time>
      </trkpt>
      <trkpt lat="41.56345" lon="2.106578">
        <ele>174.83248</ele>
        <time>2022-06-01T09:09:07.999Z</time>
      </trkpt>
      <trkpt lat="41.563433" lon="2.106541">
        <ele>174.92183</ele>
        <time>2022-06-01T09:09:09.999Z</time>
      </trkpt>
      <trkpt lat="41.563396" lon="2.106413">
        <ele>175.25228</ele>
        <time>2022-06-01T09:09:16.999Z</time>
      </trkpt>
      <trkpt lat="41.563409" lon="2.106284">
        <ele>175.66916</ele>
        <time>2022-06-01T09:09:21.999Z</time>
      </trkpt>
      <trkpt lat="41.563336" lon="2.106047">
        <ele>176.64805</ele>
        <time>2022-06-01T09:09:27.999Z</time>
      </trkpt>
      <trkpt lat="41.563177" lon="2.10575">
        <ele>177.28294</ele>
        <time>2022-06-01T09:09:32.999Z</time>
      </trkpt>
      <trkpt lat="41.562896" lon="2.105389">
        <ele>177.29616</ele>
        <time>2022-06-01T09:09:38.999Z</time>
      </trkpt>
      <trkpt lat="41.562687" lon="2.105139">
        <ele>176.96448</ele>
        <time>2022-06-01T09:09:43.999Z</time>
      </trkpt>
      <trkpt lat="41.562431" lon="2.104948">
        <ele>176.89259</ele>
        <time>2022-06-01T09:09:51.999Z</time>
      </trkpt>
      <trkpt lat="41.562304" lon="2.104782">
        <ele>177.11513</ele>
        <time>2022-06-01T09:09:58.999Z</time>
      </trkpt>
      <trkpt lat="41.562288" lon="2.104685">
        <ele>177.28316</ele>
        <time>2022-06-01T09:10:02.999Z</time>
      </trkpt>
      <trkpt lat="41.562303" lon="2.104577">
        <ele>177.67555</ele>
        <time>2022-06-01T09:10:06.999Z</time>
      </trkpt>
      <trkpt lat="41.562336" lon="2.104493">
        <ele>178.02179</ele>
        <time>2022-06-01T09:10:10.999Z</time>
      </trkpt>
      <trkpt lat="41.562289" lon="2.104424">
        <ele>178.44071</ele>
        <time>2022-06-01T09:10:14.999Z</time>
      </trkpt>
      <trkpt lat="41.562234" lon="2.104379">
        <ele>178.94227</ele>
        <time>2022-06-01T09:10:18.999Z</time>
      </trkpt>
      <trkpt lat="41.562194" lon="2.104252">
        <ele>179.72613</ele>
        <time>2022-06-01T09:10:24.999Z</time>
      </trkpt>
      <trkpt lat="41.562046" lon="2.104015">
        <ele>181.34653</ele>
        <time>2022-06-01T09:10:38.999Z</time>
      </trkpt>
      <trkpt lat="41.562014" lon="2.103945">
        <ele>181.74547</ele>
        <time>2022-06-01T09:10:42.999Z</time>
      </trkpt>
      <trkpt lat="41.56196" lon="2.103885">
        <ele>182.09747</ele>
        <time>2022-06-01T09:10:46.999Z</time>
      </trkpt>
      <trkpt lat="41.56194" lon="2.103797">
        <ele>182.41829</ele>
        <time>2022-06-01T09:10:50.999Z</time>
      </trkpt>
      <trkpt lat="41.561908" lon="2.103721">
        <ele>182.74457</ele>
        <time>2022-06-01T09:10:54.999Z</time>
      </trkpt>
      <trkpt lat="41.561893" lon="2.103657">
        <ele>183.05909</ele>
        <time>2022-06-01T09:10:58.999Z</time>
      </trkpt>
      <trkpt lat="41.561846" lon="2.103561">
        <ele>183.49936</ele>
        <time>2022-06-01T09:11:05.999Z</time>
      </trkpt>
      <trkpt lat="41.561797" lon="2.103393">
        <ele>184.26141</ele>
        <time>2022-06-01T09:11:16.999Z</time>
      </trkpt>
      <trkpt lat="41.561777" lon="2.103277">
        <ele>184.7709</ele>
        <time>2022-06-01T09:11:22.999Z</time>
      </trkpt>
      <trkpt lat="41.561763" lon="2.103248">
        <ele>184.95044</ele>
        <time>2022-06-01T09:11:25.999Z</time>
      </trkpt>
      <trkpt lat="41.561748" lon="2.103182">
        <ele>185.30758</ele>
        <time>2022-06-01T09:11:31.999Z</time>
      </trkpt>
      <trkpt lat="41.561747" lon="2.103149">
        <ele>185.48557</ele>
        <time>2022-06-01T09:11:33.999Z</time>
      </trkpt>
      <trkpt lat="41.561685" lon="2.102966">
        <ele>186.46817</ele>
        <time>2022-06-01T09:11:43.999Z</time>
      </trkpt>
      <trkpt lat="41.56167" lon="2.102932">
        <ele>186.72719</ele>
        <time>2022-06-01T09:11:46.999Z</time>
      </trkpt>
      <trkpt lat="41.561691" lon="2.102777">
        <ele>187.99875</ele>
        <time>2022-06-01T09:11:59.999Z</time>
      </trkpt>
      <trkpt lat="41.561697" lon="2.1027">
        <ele>188.76946</ele>
        <time>2022-06-01T09:12:04.999Z</time>
      </trkpt>
      <trkpt lat="41.561651" lon="2.10265">
        <ele>189.6553</ele>
        <time>2022-06-01T09:12:09.999Z</time>
      </trkpt>
      <trkpt lat="41.561588" lon="2.102631">
        <ele>190.60381</ele>
        <time>2022-06-01T09:12:15.999Z</time>
      </trkpt>
      <trkpt lat="41.561527" lon="2.102642">
        <ele>191.51598</ele>
        <time>2022-06-01T09:12:20.000Z</time>
      </trkpt>
      <trkpt lat="41.561431" lon="2.102663">
        <ele>192.70109</ele>
        <time>2022-06-01T09:12:26.000Z</time>
      </trkpt>
      <trkpt lat="41.561381" lon="2.102687">
        <ele>193.35586</ele>
        <time>2022-06-01T09:12:31.000Z</time>
      </trkpt>
      <trkpt lat="41.56135" lon="2.102694">
        <ele>193.66638</ele>
        <time>2022-06-01T09:12:33.000Z</time>
      </trkpt>
      <trkpt lat="41.561309" lon="2.102739">
        <ele>194.24932</ele>
        <time>2022-06-01T09:12:37.000Z</time>
      </trkpt>
      <trkpt lat="41.561214" lon="2.102919">
        <ele>195.333</ele>
        <time>2022-06-01T09:12:49.000Z</time>
      </trkpt>
      <trkpt lat="41.561059" lon="2.10306">
        <ele>196.13668</ele>
        <time>2022-06-01T09:13:01.000Z</time>
      </trkpt>
      <trkpt lat="41.560925" lon="2.103153">
        <ele>197.00695</ele>
        <time>2022-06-01T09:13:12.000Z</time>
      </trkpt>
      <trkpt lat="41.560881" lon="2.103252">
        <ele>197.51759</ele>
        <time>2022-06-01T09:13:18.000Z</time>
      </trkpt>
      <trkpt lat="41.560838" lon="2.103295">
        <ele>197.80976</ele>
        <time>2022-06-01T09:13:22.000Z</time>
      </trkpt>
      <trkpt lat="41.560735" lon="2.103378">
        <ele>198.38651</ele>
        <time>2022-06-01T09:13:30.000Z</time>
      </trkpt>
      <trkpt lat="41.560715" lon="2.103409">
        <ele>198.53474</ele>
        <time>2022-06-01T09:13:32.000Z</time>
      </trkpt>
      <trkpt lat="41.560678" lon="2.103455">
        <ele>198.79338</ele>
        <time>2022-06-01T09:13:36.000Z</time>
      </trkpt>
      <trkpt lat="41.560656" lon="2.103463">
        <ele>198.92693</ele>
        <time>2022-06-01T09:13:38.000Z</time>
      </trkpt>
      <trkpt lat="41.560549" lon="2.103536">
        <ele>199.57464</ele>
        <time>2022-06-01T09:13:47.000Z</time>
      </trkpt>
      <trkpt lat="41.560518" lon="2.103577">
        <ele>199.93627</ele>
        <time>2022-06-01T09:13:51.000Z</time>
      </trkpt>
      <trkpt lat="41.560447" lon="2.103614">
        <ele>200.53929</ele>
        <time>2022-06-01T09:13:58.000Z</time>
      </trkpt>
      <trkpt lat="41.560436" lon="2.103693">
        <ele>200.91785</ele>
        <time>2022-06-01T09:14:03.000Z</time>
      </trkpt>
      <trkpt lat="41.560437" lon="2.103595">
        <ele>201.61131</ele>
        <time>2022-06-01T09:14:17.000Z</time>
      </trkpt>
      <trkpt lat="41.560438" lon="2.103519">
        <ele>201.90398</ele>
        <time>2022-06-01T09:14:21.000Z</time>
      </trkpt>
      <trkpt lat="41.559208" lon="2.099907">
        <ele>202.04128</ele>
        <time>2022-06-01T09:16:43.999Z</time>
      </trkpt>
      <trkpt lat="41.559147" lon="2.099493">
        <ele>202.80384</ele>
        <time>2022-06-01T09:16:50.999Z</time>
      </trkpt>
      <trkpt lat="41.559123" lon="2.099271">
        <ele>203.15377</ele>
        <time>2022-06-01T09:16:55.999Z</time>
      </trkpt>
      <trkpt lat="41.559044" lon="2.098786">
        <ele>203.60831</ele>
        <time>2022-06-01T09:17:04.999Z</time>
      </trkpt>
      <trkpt lat="41.559033" lon="2.098557">
        <ele>203.78962</ele>
        <time>2022-06-01T09:17:08.999Z</time>
      </trkpt>
      <trkpt lat="41.558369" lon="2.097349">
        <ele>203.7919</ele>
        <time>2022-06-01T09:17:55.999Z</time>
      </trkpt>
      <trkpt lat="41.557914" lon="2.097095">
        <ele>203.78389</ele>
        <time>2022-06-01T09:18:24.999Z</time>
      </trkpt>
      <trkpt lat="41.55784" lon="2.097147">
        <ele>203.75968</ele>
        <time>2022-06-01T09:18:30.999Z</time>
      </trkpt>
      <trkpt lat="41.557699" lon="2.097164">
        <ele>203.72194</ele>
        <time>2022-06-01T09:18:35.999Z</time>
      </trkpt>
      <trkpt lat="41.554979" lon="2.097352">
        <ele>203.53065</ele>
        <time>2022-06-01T09:19:38.000Z</time>
      </trkpt>
      <trkpt lat="41.554803" lon="2.097324">
        <ele>202.25799</ele>
        <time>2022-06-01T09:19:42.000Z</time>
      </trkpt>
      <trkpt lat="41.554509" lon="2.097385">
        <ele>199.77208</ele>
        <time>2022-06-01T09:19:49.000Z</time>
      </trkpt>
      <trkpt lat="41.554166" lon="2.09745">
        <ele>198.14178</ele>
        <time>2022-06-01T09:19:56.000Z</time>
      </trkpt>
      <trkpt lat="41.554057" lon="2.097389">
        <ele>197.62966</ele>
        <time>2022-06-01T09:19:59.000Z</time>
      </trkpt>
      <trkpt lat="41.554006" lon="2.097298">
        <ele>197.19685</ele>
        <time>2022-06-01T09:20:03.000Z</time>
      </trkpt>
      <trkpt lat="41.553932" lon="2.09725">
        <ele>196.72121</ele>
        <time>2022-06-01T09:20:22.000Z</time>
      </trkpt>
      <trkpt lat="41.553896" lon="2.097263">
        <ele>196.65139</ele>
        <time>2022-06-01T09:20:24.000Z</time>
      </trkpt>
      <trkpt lat="41.553863" lon="2.09725">
        <ele>196.58625</ele>
        <time>2022-06-01T09:20:26.000Z</time>
      </trkpt>
      <trkpt lat="41.553719" lon="2.097405">
        <ele>196.2233</ele>
        <time>2022-06-01T09:20:36.000Z</time>
      </trkpt>
      <trkpt lat="41.553443" lon="2.097563">
        <ele>195.80479</ele>
        <time>2022-06-01T09:20:43.000Z</time>
      </trkpt>
      <trkpt lat="41.553273" lon="2.097599">
        <ele>195.58899</ele>
        <time>2022-06-01T09:20:47.000Z</time>
      </trkpt>
      <trkpt lat="41.55274" lon="2.097649">
        <ele>195.2547</ele>
        <time>2022-06-01T09:21:01.000Z</time>
      </trkpt>
      <trkpt lat="41.55211" lon="2.097781">
        <ele>194.01962</ele>
        <time>2022-06-01T09:21:15.000Z</time>
      </trkpt>
      <trkpt lat="41.55151" lon="2.097866">
        <ele>192.81635</ele>
        <time>2022-06-01T09:21:28.000Z</time>
      </trkpt>
      <trkpt lat="41.551301" lon="2.097843">
        <ele>192.67392</ele>
        <time>2022-06-01T09:21:32.000Z</time>
      </trkpt>
      <trkpt lat="41.551107" lon="2.097904">
        <ele>192.38686</ele>
        <time>2022-06-01T09:21:36.000Z</time>
      </trkpt>
      <trkpt lat="41.55091" lon="2.097888">
        <ele>192.08308</ele>
        <time>2022-06-01T09:21:40.000Z</time>
      </trkpt>
      <trkpt lat="41.550611" lon="2.097926">
        <ele>191.83673</ele>
        <time>2022-06-01T09:21:46.000Z</time>
      </trkpt>
      <trkpt lat="41.550488" lon="2.097875">
        <ele>191.59151</ele>
        <time>2022-06-01T09:21:49.000Z</time>
      </trkpt>
      <trkpt lat="41.550509" lon="2.096667">
        <ele>191.6037</ele>
        <time>2022-06-01T09:22:34.000Z</time>
      </trkpt>
      <trkpt lat="41.550536" lon="2.096511">
        <ele>191.70932</ele>
        <time>2022-06-01T09:22:42.000Z</time>
      </trkpt>
      <trkpt lat="41.550598" lon="2.096298">
        <ele>191.93649</ele>
        <time>2022-06-01T09:22:52.000Z</time>
      </trkpt>
      <trkpt lat="41.550618" lon="2.096129">
        <ele>192.2467</ele>
        <time>2022-06-01T09:23:00.000Z</time>
      </trkpt>
      <trkpt lat="41.550622" lon="2.096081">
        <ele>192.34757</ele>
        <time>2022-06-01T09:23:02.000Z</time>
      </trkpt>
      <trkpt lat="41.550637" lon="2.096009">
        <ele>192.59392</ele>
        <time>2022-06-01T09:23:07.000Z</time>
      </trkpt>
      <trkpt lat="41.55066" lon="2.095936">
        <ele>192.88453</ele>
        <time>2022-06-01T09:23:10.000Z</time>
      </trkpt>
      <trkpt lat="41.55066" lon="2.09589">
        <ele>193.05047</ele>
        <time>2022-06-01T09:23:12.000Z</time>
      </trkpt>
      <trkpt lat="41.550654" lon="2.095847">
        <ele>193.23042</ele>
        <time>2022-06-01T09:23:14.000Z</time>
      </trkpt>
      <trkpt lat="41.550662" lon="2.095775">
        <ele>193.62267</ele>
        <time>2022-06-01T09:23:17.000Z</time>
      </trkpt>
      <trkpt lat="41.550703" lon="2.095711">
        <ele>194.09711</ele>
        <time>2022-06-01T09:23:22.000Z</time>
      </trkpt>
      <trkpt lat="41.550704" lon="2.095672">
        <ele>194.36573</ele>
        <time>2022-06-01T09:23:24.000Z</time>
      </trkpt>
      <trkpt lat="41.550713" lon="2.095602">
        <ele>194.9519</ele>
        <time>2022-06-01T09:23:27.000Z</time>
      </trkpt>
      <trkpt lat="41.550681" lon="2.09555">
        <ele>195.59239</ele>
        <time>2022-06-01T09:23:31.000Z</time>
      </trkpt>
      <trkpt lat="41.550244" lon="2.095245">
        <ele>195.80831</ele>
        <time>2022-06-01T09:23:53.000Z</time>
      </trkpt>
      <trkpt lat="41.549714" lon="2.095086">
        <ele>197.46938</ele>
        <time>2022-06-01T09:24:07.000Z</time>
      </trkpt>
      <trkpt lat="41.549165" lon="2.094971">
        <ele>197.70914</ele>
        <time>2022-06-01T09:24:19.000Z</time>
      </trkpt>
      <trkpt lat="41.549016" lon="2.09492">
        <ele>197.68403</ele>
        <time>2022-06-01T09:24:23.000Z</time>
      </trkpt>
      <trkpt lat="41.548761" lon="2.094882">
        <ele>197.61277</ele>
        <time>2022-06-01T09:24:28.000Z</time>
      </trkpt>
      <trkpt lat="41.54858" lon="2.094906">
        <ele>197.51494</ele>
        <time>2022-06-01T09:24:33.000Z</time>
      </trkpt>
      <trkpt lat="41.548508" lon="2.0949">
        <ele>197.46302</ele>
        <time>2022-06-01T09:24:37.000Z</time>
      </trkpt>
      <trkpt lat="41.548352" lon="2.095008">
        <ele>197.27035</ele>
        <time>2022-06-01T09:24:43.000Z</time>
      </trkpt>
      <trkpt lat="41.548245" lon="2.094878">
        <ele>196.91215</ele>
        <time>2022-06-01T09:24:51.000Z</time>
      </trkpt>
      <trkpt lat="41.548046" lon="2.094795">
        <ele>196.3563</ele>
        <time>2022-06-01T09:25:00.000Z</time>
      </trkpt>
      <trkpt lat="41.547963" lon="2.094756">
        <ele>196.10513</ele>
        <time>2022-06-01T09:25:03.000Z</time>
      </trkpt>
      <trkpt lat="41.547889" lon="2.094736">
        <ele>195.95124</ele>
        <time>2022-06-01T09:25:05.000Z</time>
      </trkpt>
      <trkpt lat="41.547829" lon="2.094686">
        <ele>195.8158</ele>
        <time>2022-06-01T09:25:07.000Z</time>
      </trkpt>
      <trkpt lat="41.54776" lon="2.094628">
        <ele>195.66141</ele>
        <time>2022-06-01T09:25:10.000Z</time>
      </trkpt>
      <trkpt lat="41.547615" lon="2.094562">
        <ele>195.51971</ele>
        <time>2022-06-01T09:25:14.000Z</time>
      </trkpt>
      <trkpt lat="41.547446" lon="2.094586">
        <ele>195.4152</ele>
        <time>2022-06-01T09:25:18.000Z</time>
      </trkpt>
      <trkpt lat="41.547316" lon="2.094617">
        <ele>195.32603</ele>
        <time>2022-06-01T09:25:21.000Z</time>
      </trkpt>
      <trkpt lat="41.547174" lon="2.094544">
        <ele>195.20604</ele>
        <time>2022-06-01T09:25:25.000Z</time>
      </trkpt>
      <trkpt lat="41.547058" lon="2.09455">
        <ele>195.13791</ele>
        <time>2022-06-01T09:25:29.000Z</time>
      </trkpt>
      <trkpt lat="41.546972" lon="2.094618">
        <ele>195.08224</ele>
        <time>2022-06-01T09:25:31.000Z</time>
      </trkpt>
      <trkpt lat="41.546929" lon="2.094633">
        <ele>195.04381</ele>
        <time>2022-06-01T09:25:32.000Z</time>
      </trkpt>
      <trkpt lat="41.546175" lon="2.094594">
        <ele>194.92101</ele>
        <time>2022-06-01T09:26:02.000Z</time>
      </trkpt>
      <trkpt lat="41.546101" lon="2.094545">
        <ele>193.70753</ele>
        <time>2022-06-01T09:26:25.000Z</time>
      </trkpt>
      <trkpt lat="41.546131" lon="2.094605">
        <ele>192.78235</ele>
        <time>2022-06-01T09:26:44.000Z</time>
      </trkpt>
      <trkpt lat="41.546128" lon="2.094688">
        <ele>192.49832</ele>
        <time>2022-06-01T09:26:49.000Z</time>
      </trkpt>
      <trkpt lat="41.546107" lon="2.094714">
        <ele>192.34974</ele>
        <time>2022-06-01T09:26:52.000Z</time>
      </trkpt>
      <trkpt lat="41.546079" lon="2.094726">
        <ele>192.20331</ele>
        <time>2022-06-01T09:26:54.000Z</time>
      </trkpt>
      <trkpt lat="41.546079" lon="2.094765">
        <ele>192.06239</ele>
        <time>2022-06-01T09:26:55.000Z</time>
      </trkpt>
      <trkpt lat="41.546101" lon="2.094498">
        <ele>191.10904</ele>
        <time>2022-06-01T09:27:07.000Z</time>
      </trkpt>
      <trkpt lat="41.54611" lon="2.094467">
        <ele>191.07096</ele>
        <time>2022-06-01T09:27:08.000Z</time>
      </trkpt>
      <trkpt lat="41.546051" lon="2.094204">
        <ele>191.09359</ele>
        <time>2022-06-01T09:27:17.000Z</time>
      </trkpt>
      <trkpt lat="41.546101" lon="2.094075">
        <ele>191.19635</ele>
        <time>2022-06-01T09:27:21.000Z</time>
      </trkpt>
      <trkpt lat="41.546124" lon="2.093966">
        <ele>191.28196</ele>
        <time>2022-06-01T09:27:24.000Z</time>
      </trkpt>
      <trkpt lat="41.546133" lon="2.093875">
        <ele>191.34259</ele>
        <time>2022-06-01T09:27:27.000Z</time>
      </trkpt>
      <trkpt lat="41.546148" lon="2.093905">
        <ele>191.3793</ele>
        <time>2022-06-01T09:27:30.000Z</time>
      </trkpt>
      <trkpt lat="41.546179" lon="2.093929">
        <ele>191.41806</ele>
        <time>2022-06-01T09:27:32.000Z</time>
      </trkpt>
      <trkpt lat="41.546084" lon="2.094121">
        <ele>191.72258</ele>
        <time>2022-06-01T09:27:50.000Z</time>
      </trkpt>
      <trkpt lat="41.545933" lon="2.094164">
        <ele>191.75558</ele>
        <time>2022-06-01T09:27:55.000Z</time>
      </trkpt>
      <trkpt lat="41.545776" lon="2.09424">
        <ele>191.73539</ele>
        <time>2022-06-01T09:27:59.000Z</time>
      </trkpt>
      <trkpt lat="41.545469" lon="2.094236">
        <ele>191.66734</ele>
        <time>2022-06-01T09:28:06.000Z</time>
      </trkpt>
      <trkpt lat="41.545222" lon="2.094167">
        <ele>191.62185</ele>
        <time>2022-06-01T09:28:11.000Z</time>
      </trkpt>
      <trkpt lat="41.545151" lon="2.094079">
        <ele>191.59942</ele>
        <time>2022-06-01T09:28:14.000Z</time>
      </trkpt>
      <trkpt lat="41.545179" lon="2.093874">
        <ele>191.56351</ele>
        <time>2022-06-01T09:28:18.000Z</time>
      </trkpt>
      <trkpt lat="41.545198" lon="2.093702">
        <ele>191.50375</ele>
        <time>2022-06-01T09:28:23.000Z</time>
      </trkpt>
      <trkpt lat="41.545201" lon="2.093338">
        <ele>191.28009</ele>
        <time>2022-06-01T09:28:32.000Z</time>
      </trkpt>
      <trkpt lat="41.545137" lon="2.092903">
        <ele>190.35293</ele>
        <time>2022-06-01T09:28:42.000Z</time>
      </trkpt>
      <trkpt lat="41.545069" lon="2.092639">
        <ele>189.44222</ele>
        <time>2022-06-01T09:28:50.000Z</time>
      </trkpt>
      <trkpt lat="41.545087" lon="2.092525">
        <ele>189.08533</ele>
        <time>2022-06-01T09:28:54.000Z</time>
      </trkpt>
      <trkpt lat="41.545085" lon="2.092495">
        <ele>188.90227</ele>
        <time>2022-06-01T09:28:55.000Z</time>
      </trkpt>
      <trkpt lat="41.545123" lon="2.092441">
        <ele>188.71887</ele>
        <time>2022-06-01T09:28:56.000Z</time>
      </trkpt>
      <trkpt lat="41.545147" lon="2.092406">
        <ele>188.53959</ele>
        <time>2022-06-01T09:28:57.000Z</time>
      </trkpt>
      <trkpt lat="41.545184" lon="2.092363">
        <ele>188.3656</ele>
        <time>2022-06-01T09:28:59.001Z</time>
      </trkpt>
      <trkpt lat="41.545233" lon="2.092354">
        <ele>188.19918</ele>
        <time>2022-06-01T09:29:00.001Z</time>
      </trkpt>
      <trkpt lat="41.545227" lon="2.09229">
        <ele>187.89407</ele>
        <time>2022-06-01T09:29:02.001Z</time>
      </trkpt>
      <trkpt lat="41.54507" lon="2.092211">
        <ele>187.18869</ele>
        <time>2022-06-01T09:29:09.001Z</time>
      </trkpt>
      <trkpt lat="41.544952" lon="2.092108">
        <ele>186.74124</ele>
        <time>2022-06-01T09:29:13.001Z</time>
      </trkpt>
      <trkpt lat="41.544612" lon="2.09206">
        <ele>186.08562</ele>
        <time>2022-06-01T09:29:22.001Z</time>
      </trkpt>
      <trkpt lat="41.544311" lon="2.092032">
        <ele>185.64541</ele>
        <time>2022-06-01T09:29:29.001Z</time>
      </trkpt>
      <trkpt lat="41.543796" lon="2.091897">
        <ele>184.88045</ele>
        <time>2022-06-01T09:29:39.001Z</time>
      </trkpt>
      <trkpt lat="41.543233" lon="2.091781">
        <ele>183.68328</ele>
        <time>2022-06-01T09:29:50.001Z</time>
      </trkpt>
      <trkpt lat="41.543001" lon="2.091729">
        <ele>183.06418</ele>
        <time>2022-06-01T09:29:55.001Z</time>
      </trkpt>
      <trkpt lat="41.542821" lon="2.091718">
        <ele>182.39807</ele>
        <time>2022-06-01T09:30:00.001Z</time>
      </trkpt>
      <trkpt lat="41.542786" lon="2.091701">
        <ele>182.24843</ele>
        <time>2022-06-01T09:30:02.001Z</time>
      </trkpt>
      <trkpt lat="41.542784" lon="2.091605">
        <ele>181.75728</ele>
        <time>2022-06-01T09:30:09.001Z</time>
      </trkpt>
      <trkpt lat="41.542646" lon="2.091525">
        <ele>181.03712</ele>
        <time>2022-06-01T09:30:15.001Z</time>
      </trkpt>
      <trkpt lat="41.542365" lon="2.091554">
        <ele>180.30642</ele>
        <time>2022-06-01T09:30:22.001Z</time>
      </trkpt>
      <trkpt lat="41.54202" lon="2.091684">
        <ele>179.35459</ele>
        <time>2022-06-01T09:30:30.001Z</time>
      </trkpt>
      <trkpt lat="41.541707" lon="2.091765">
        <ele>178.40357</ele>
        <time>2022-06-01T09:30:36.001Z</time>
      </trkpt>
      <trkpt lat="41.541193" lon="2.092036">
        <ele>176.50557</ele>
        <time>2022-06-01T09:30:46.001Z</time>
      </trkpt>
      <trkpt lat="41.541065" lon="2.091925">
        <ele>175.98171</ele>
        <time>2022-06-01T09:30:50.001Z</time>
      </trkpt>
      <trkpt lat="41.540884" lon="2.091478">
        <ele>175.18214</ele>
        <time>2022-06-01T09:31:00.001Z</time>
      </trkpt>
      <trkpt lat="41.540722" lon="2.09116">
        <ele>175.1516</ele>
        <time>2022-06-01T09:31:10.001Z</time>
      </trkpt>
      <trkpt lat="41.540611" lon="2.09102">
        <ele>175.24024</ele>
        <time>2022-06-01T09:31:16.001Z</time>
      </trkpt>
      <trkpt lat="41.540569" lon="2.09093">
        <ele>175.30831</ele>
        <time>2022-06-01T09:31:19.001Z</time>
      </trkpt>
      <trkpt lat="41.540513" lon="2.090809">
        <ele>175.50176</ele>
        <time>2022-06-01T09:31:23.001Z</time>
      </trkpt>
      <trkpt lat="41.540454" lon="2.09069">
        <ele>175.76799</ele>
        <time>2022-06-01T09:31:27.001Z</time>
      </trkpt>
      <trkpt lat="41.540379" lon="2.090593">
        <ele>176.01907</ele>
        <time>2022-06-01T09:31:33.001Z</time>
      </trkpt>
      <trkpt lat="41.540318" lon="2.090504">
        <ele>176.22722</ele>
        <time>2022-06-01T09:31:37.001Z</time>
      </trkpt>
      <trkpt lat="41.540281" lon="2.090376">
        <ele>176.597</ele>
        <time>2022-06-01T09:31:41.001Z</time>
      </trkpt>
      <trkpt lat="41.540236" lon="2.090313">
        <ele>176.8552</ele>
        <time>2022-06-01T09:31:44.001Z</time>
      </trkpt>
      <trkpt lat="41.540175" lon="2.090197">
        <ele>177.39909</ele>
        <time>2022-06-01T09:31:49.001Z</time>
      </trkpt>
      <trkpt lat="41.540165" lon="2.090114">
        <ele>177.71378</ele>
        <time>2022-06-01T09:31:52.001Z</time>
      </trkpt>
      <trkpt lat="41.540184" lon="2.090043">
        <ele>178.05563</ele>
        <time>2022-06-01T09:31:55.001Z</time>
      </trkpt>
      <trkpt lat="41.540188" lon="2.089854">
        <ele>178.82952</ele>
        <time>2022-06-01T09:32:03.001Z</time>
      </trkpt>
      <trkpt lat="41.540198" lon="2.089811">
        <ele>179.03309</ele>
        <time>2022-06-01T09:32:05.001Z</time>
      </trkpt>
      <trkpt lat="41.540149" lon="2.089714">
        <ele>179.64535</ele>
        <time>2022-06-01T09:32:11.001Z</time>
      </trkpt>
      <trkpt lat="41.540061" lon="2.089649">
        <ele>180.37694</ele>
        <time>2022-06-01T09:32:15.001Z</time>
      </trkpt>
      <trkpt lat="41.53999" lon="2.089661">
        <ele>180.70948</ele>
        <time>2022-06-01T09:32:19.001Z</time>
      </trkpt>
      <trkpt lat="41.539884" lon="2.089624">
        <ele>181.17076</ele>
        <time>2022-06-01T09:32:25.001Z</time>
      </trkpt>
      <trkpt lat="41.539801" lon="2.089538">
        <ele>181.62313</ele>
        <time>2022-06-01T09:32:30.001Z</time>
      </trkpt>
      <trkpt lat="41.539756" lon="2.089446">
        <ele>182.03783</ele>
        <time>2022-06-01T09:32:34.001Z</time>
      </trkpt>
      <trkpt lat="41.539691" lon="2.089339">
        <ele>182.42279</ele>
        <time>2022-06-01T09:32:39.001Z</time>
      </trkpt>
      <trkpt lat="41.539624" lon="2.089288">
        <ele>182.7005</ele>
        <time>2022-06-01T09:32:43.001Z</time>
      </trkpt>
      <trkpt lat="41.539578" lon="2.089179">
        <ele>183.1272</ele>
        <time>2022-06-01T09:32:48.001Z</time>
      </trkpt>
      <trkpt lat="41.539503" lon="2.089085">
        <ele>183.55195</ele>
        <time>2022-06-01T09:32:52.001Z</time>
      </trkpt>
      <trkpt lat="41.539433" lon="2.08901">
        <ele>183.96765</ele>
        <time>2022-06-01T09:32:56.001Z</time>
      </trkpt>
      <trkpt lat="41.539393" lon="2.088922">
        <ele>184.38526</ele>
        <time>2022-06-01T09:32:59.001Z</time>
      </trkpt>
      <trkpt lat="41.539287" lon="2.088756">
        <ele>185.22121</ele>
        <time>2022-06-01T09:33:06.001Z</time>
      </trkpt>
      <trkpt lat="41.539243" lon="2.088599">
        <ele>185.63375</ele>
        <time>2022-06-01T09:33:11.001Z</time>
      </trkpt>
      <trkpt lat="41.5392" lon="2.088483">
        <ele>185.93469</ele>
        <time>2022-06-01T09:33:15.001Z</time>
      </trkpt>
      <trkpt lat="41.539187" lon="2.088324">
        <ele>186.50617</ele>
        <time>2022-06-01T09:33:19.001Z</time>
      </trkpt>
      <trkpt lat="41.539124" lon="2.088214">
        <ele>186.98416</ele>
        <time>2022-06-01T09:33:23.001Z</time>
      </trkpt>
      <trkpt lat="41.539026" lon="2.088192">
        <ele>187.35687</ele>
        <time>2022-06-01T09:33:27.001Z</time>
      </trkpt>
      <trkpt lat="41.538886" lon="2.0881">
        <ele>187.75543</ele>
        <time>2022-06-01T09:33:33.001Z</time>
      </trkpt>
      <trkpt lat="41.538778" lon="2.087921">
        <ele>187.95649</ele>
        <time>2022-06-01T09:33:39.003Z</time>
      </trkpt>
      <trkpt lat="41.538659" lon="2.087749">
        <ele>188.08739</ele>
        <time>2022-06-01T09:33:44.002Z</time>
      </trkpt>
      <trkpt lat="41.538538" lon="2.087495">
        <ele>188.22559</ele>
        <time>2022-06-01T09:33:50.001Z</time>
      </trkpt>
      <trkpt lat="41.538385" lon="2.087261">
        <ele>188.3569</ele>
        <time>2022-06-01T09:33:56.001Z</time>
      </trkpt>
      <trkpt lat="41.538075" lon="2.086791">
        <ele>188.4416</ele>
        <time>2022-06-01T09:34:07.001Z</time>
      </trkpt>
      <trkpt lat="41.537799" lon="2.08631">
        <ele>188.19008</ele>
        <time>2022-06-01T09:34:17.000Z</time>
      </trkpt>
      <trkpt lat="41.537598" lon="2.086026">
        <ele>187.4969</ele>
        <time>2022-06-01T09:34:23.000Z</time>
      </trkpt>
      <trkpt lat="41.537032" lon="2.085067">
        <ele>186.48988</ele>
        <time>2022-06-01T09:34:38.000Z</time>
      </trkpt>
      <trkpt lat="41.53633" lon="2.08456">
        <ele>184.74921</ele>
        <time>2022-06-01T09:34:47.000Z</time>
      </trkpt>
      <trkpt lat="41.536078" lon="2.08442">
        <ele>183.72126</ele>
        <time>2022-06-01T09:34:51.000Z</time>
      </trkpt>
      <trkpt lat="41.535873" lon="2.084276">
        <ele>182.63884</ele>
        <time>2022-06-01T09:34:56.000Z</time>
      </trkpt>
      <trkpt lat="41.535595" lon="2.084475">
        <ele>181.53328</ele>
        <time>2022-06-01T09:35:02.000Z</time>
      </trkpt>
      <trkpt lat="41.535238" lon="2.084052">
        <ele>180.52568</ele>
        <time>2022-06-01T09:35:10.000Z</time>
      </trkpt>
      <trkpt lat="41.535028" lon="2.083579">
        <ele>180.1602</ele>
        <time>2022-06-01T09:35:18.000Z</time>
      </trkpt>
      <trkpt lat="41.534985" lon="2.083346">
        <ele>180.12744</ele>
        <time>2022-06-01T09:35:22.000Z</time>
      </trkpt>
      <trkpt lat="41.534953" lon="2.083054">
        <ele>180.08949</ele>
        <time>2022-06-01T09:35:27.000Z</time>
      </trkpt>
      <trkpt lat="41.534953" lon="2.082488">
        <ele>180.05127</ele>
        <time>2022-06-01T09:35:35.001Z</time>
      </trkpt>
      <trkpt lat="41.534834" lon="2.0823">
        <ele>180.0142</ele>
        <time>2022-06-01T09:35:40.001Z</time>
      </trkpt>
      <trkpt lat="41.534481" lon="2.082271">
        <ele>179.92487</ele>
        <time>2022-06-01T09:35:46.001Z</time>
      </trkpt>
      <trkpt lat="41.534152" lon="2.082417">
        <ele>179.7976</ele>
        <time>2022-06-01T09:35:52.001Z</time>
      </trkpt>
      <trkpt lat="41.533622" lon="2.082941">
        <ele>179.00637</ele>
        <time>2022-06-01T09:36:03.001Z</time>
      </trkpt>
      <trkpt lat="41.533515" lon="2.083035">
        <ele>178.33411</ele>
        <time>2022-06-01T09:36:07.001Z</time>
      </trkpt>
      <trkpt lat="41.533433" lon="2.083171">
        <ele>177.13475</ele>
        <time>2022-06-01T09:36:12.001Z</time>
      </trkpt>
      <trkpt lat="41.533268" lon="2.083307">
        <ele>175.34211</ele>
        <time>2022-06-01T09:36:18.001Z</time>
      </trkpt>
      <trkpt lat="41.533242" lon="2.083337">
        <ele>175.02689</ele>
        <time>2022-06-01T09:36:20.001Z</time>
      </trkpt>
      <trkpt lat="41.533281" lon="2.083333">
        <ele>174.1294</ele>
        <time>2022-06-01T09:37:03.000Z</time>
      </trkpt>
      <trkpt lat="41.53329" lon="2.083364">
        <ele>173.83969</ele>
        <time>2022-06-01T09:37:23.999Z</time>
      </trkpt>
    </trkseg>
  </trk>
</gpx>
